[[{"header":{"parameterUnit":"m.s-1","parameterCategory":1,"la1":30.6,"la2":29.2853,"lo1":-89.7004,"lo2":-87.6739,"dy":0.0162,"dx":0.0183,"nx":112,"ny":82,"refTime":"2026-05-06T00:00:00:Z","depth":0,"parameterNumber":2,"parameterNumberName":"U-component_of_WINDS"},"data":[0.0,0.0,0.0,0.0,0.0,0.0,0.0,0.0,0.0,0.0,0.0,0.0,0.0,0.0,0.0,0.0,0.0,0.0,0.0,0.0,0.0,0.0,0.0,0.0,0.0,0.0,0.0,0.0,0.0,0.0,0.0,0.0,0.0,0.0,0.0,0.0,0.0,0.0,0.0,0.0,0.0,0.0,0.0,0.0,0.0,0.0,0.0,0.0,0.0,0.0,0.0,0.0,0.0,0.0,0.0,0.0,0.0,0.0,0.0,0.0,0.0,0.0,0.0,0.0,0.0,0.0,0.0,0.0,0.0,0.0,0.0,0.0,0.0,0.0,0.0,0.0,0.0,0.0,0.0,0.0,0.0,0.0,0.0,0.0,0.0,0.0,0.0,0.0,0.0,0.0,0.0,-4.8971,-5.5401,-5.8742,-5.733,-5.4511,-4.974,-4.2462,0.0,0.0,0.0,0.0,0.0,0.0,0.0,0.0,0.0,0.0,0.0,0.0,0.0,0.0,0.0,0.0,0.0,0.0,0.0,0.0,0.0,0.0,0.0,0.0,0.0,0.0,0.0,0.0,0.0,0.0,0.0,0.0,0.0,0.0,0.0,0.0,0.0,0.0,0.0,0.0,0.0,0.0,0.0,0.0,0.0,0.0,0.0,0.0,0.0,0.0,0.0,0.0,0.0,0.0,0.0,0.0,0.0,0.0,0.0,0.0,0.0,0.0,0.0,0.0,0.0,0.0,0.0,0.0,0.0,0.0,0.0,0.0,0.0,0.0,0.0,0.0,0.0,0.0,0.0,0.0,0.0,0.0,0.0,0.0,0.0,0.0,0.0,0.0,0.0,0.0,0.0,0.0,0.0,0.0,0.0,0.0,0.0,0.0,0.0,0.0,0.0,0.0,0.0,0.0,-4.3827,-5.4513,-5.733,-5.8396,-5.8127,-5.378,-4.874,-4.3239,0.0,0.0,0.0,0.0,0.0,0.0,0.0,0.0,0.0,0.0,0.0,0.0,0.0,0.0,0.0,0.0,0.0,0.0,0.0,0.0,0.0,0.0,0.0,0.0,0.0,0.0,0.0,0.0,0.0,0.0,0.0,0.0,0.0,0.0,0.0,0.0,0.0,0.0,0.0,0.0,0.0,0.0,0.0,0.0,0.0,0.0,0.0,0.0,0.0,0.0,0.0,0.0,0.0,0.0,0.0,0.0,0.0,0.0,0.0,0.0,0.0,0.0,0.0,0.0,0.0,0.0,0.0,0.0,0.0,0.0,0.0,0.0,0.0,0.0,0.0,0.0,0.0,0.0,0.0,0.0,0.0,0.0,0.0,0.0,0.0,0.0,0.0,0.0,0.0,0.0,0.0,0.0,0.0,0.0,0.0,0.0,0.0,0.0,0.0,0.0,0.0,0.0,0.0,-4.1739,-4.6894,-5.6022,-5.7368,-5.7588,-5.7588,-5.3367,-4.8519,-4.3431,-3.8654,0.0,0.0,0.0,0.0,0.0,0.0,0.0,0.0,0.0,0.0,0.0,0.0,0.0,0.0,0.0,0.0,0.0,0.0,0.0,0.0,0.0,0.0,0.0,0.0,0.0,0.0,0.0,0.0,0.0,0.0,0.0,0.0,0.0,0.0,0.0,0.0,0.0,0.0,0.0,0.0,0.0,0.0,0.0,0.0,0.0,0.0,0.0,0.0,0.0,0.0,0.0,0.0,0.0,0.0,0.0,0.0,0.0,0.0,0.0,0.0,0.0,0.0,0.0,0.0,0.0,0.0,0.0,0.0,0.0,0.0,0.0,0.0,0.0,0.0,0.0,0.0,0.0,0.0,0.0,0.0,0.0,0.0,0.0,0.0,0.0,0.0,0.0,0.0,0.0,0.0,0.0,0.0,0.0,0.0,0.0,0.0,0.0,0.0,0.0,0.0,0.0,0.0,-4.7077,-5.0356,-5.6368,-5.6983,-5.6907,-5.6714,-5.2482,-4.7778,-4.3085,-3.7462,0.0,0.0,0.0,0.0,0.0,0.0,0.0,0.0,0.0,0.0,0.0,0.0,0.0,0.0,0.0,0.0,0.0,0.0,0.0,0.0,0.0,0.0,0.0,0.0,0.0,0.0,0.0,0.0,0.0,0.0,0.0,0.0,0.0,0.0,0.0,0.0,0.0,0.0,0.0,0.0,0.0,0.0,0.0,0.0,0.0,0.0,0.0,0.0,0.0,0.0,0.0,0.0,0.0,0.0,0.0,0.0,0.0,0.0,0.0,0.0,0.0,0.0,0.0,0.0,0.0,0.0,0.0,0.0,0.0,0.0,0.0,0.0,0.0,0.0,0.0,0.0,0.0,0.0,0.0,0.0,0.0,0.0,0.0,0.0,0.0,0.0,0.0,0.0,0.0,0.0,0.0,0.0,0.0,0.0,0.0,0.0,0.0,0.0,0.0,0.0,0.0,0.0,-4.7654,-5.2972,-5.6599,-5.6983,-5.6676,-5.5857,-5.051,-4.5654,-4.2115,-3.4885,0.0,0.0,0.0,0.0,0.0,0.0,0.0,0.0,0.0,0.0,0.0,0.0,0.0,0.0,0.0,0.0,0.0,0.0,0.0,0.0,0.0,0.0,0.0,0.0,0.0,0.0,0.0,0.0,0.0,0.0,0.0,0.0,0.0,0.0,0.0,0.0,0.0,0.0,0.0,0.0,0.0,0.0,0.0,0.0,0.0,0.0,0.0,0.0,0.0,0.0,0.0,0.0,0.0,0.0,0.0,0.0,0.0,0.0,0.0,0.0,0.0,0.0,0.0,0.0,0.0,0.0,0.0,0.0,0.0,0.0,0.0,0.0,0.0,0.0,0.0,0.0,0.0,0.0,0.0,0.0,0.0,0.0,0.0,0.0,0.0,0.0,0.0,0.0,0.0,0.0,0.0,0.0,0.0,0.0,0.0,0.0,0.0,0.0,0.0,0.0,0.0,0.0,-4.6331,-5.1048,0.0,-5.5434,-5.5318,-5.4972,-5.0971,-4.6317,-4.1316,0.0,0.0,0.0,0.0,0.0,0.0,0.0,0.0,0.0,0.0,0.0,0.0,0.0,0.0,0.0,0.0,0.0,0.0,0.0,0.0,0.0,0.0,0.0,0.0,0.0,0.0,0.0,0.0,0.0,0.0,0.0,0.0,0.0,0.0,0.0,0.0,0.0,0.0,0.0,0.0,0.0,0.0,0.0,0.0,0.0,0.0,0.0,0.0,0.0,0.0,0.0,0.0,0.0,0.0,0.0,0.0,0.0,0.0,0.0,0.0,0.0,0.0,0.0,0.0,0.0,0.0,0.0,0.0,0.0,0.0,0.0,0.0,0.0,0.0,0.0,0.0,0.0,0.0,0.0,0.0,0.0,0.0,0.0,0.0,0.0,0.0,0.0,0.0,0.0,0.0,0.0,0.0,0.0,0.0,0.0,0.0,0.0,0.0,0.0,0.0,0.0,0.0,-4.1072,-4.5761,-4.9933,0.0,-5.4087,-5.3972,-5.3703,-5.0048,-4.5586,-4.0439,0.0,0.0,0.0,0.0,0.0,0.0,0.0,0.0,0.0,0.0,0.0,0.0,0.0,0.0,0.0,0.0,0.0,0.0,0.0,0.0,0.0,0.0,0.0,0.0,0.0,0.0,0.0,0.0,0.0,0.0,0.0,0.0,0.0,0.0,0.0,0.0,0.0,0.0,0.0,0.0,0.0,0.0,0.0,0.0,0.0,0.0,0.0,0.0,0.0,0.0,0.0,0.0,0.0,0.0,0.0,0.0,0.0,0.0,0.0,0.0,0.0,0.0,0.0,0.0,0.0,0.0,0.0,0.0,0.0,0.0,0.0,0.0,0.0,0.0,0.0,0.0,0.0,0.0,0.0,0.0,0.0,0.0,0.0,0.0,0.0,0.0,0.0,0.0,0.0,0.0,0.0,0.0,0.0,0.0,0.0,0.0,0.0,0.0,0.0,0.0,0.0,0.0,-4.1123,-4.624,-5.0394,-5.2933,-5.3203,-5.2856,-5.1962,-4.724,-4.2893,0.0,0.0,0.0,0.0,0.0,0.0,0.0,0.0,0.0,0.0,0.0,0.0,0.0,0.0,0.0,0.0,0.0,0.0,0.0,0.0,0.0,0.0,0.0,0.0,0.0,0.0,0.0,0.0,0.0,0.0,0.0,0.0,0.0,0.0,0.0,0.0,0.0,0.0,0.0,0.0,0.0,0.0,0.0,0.0,0.0,0.0,0.0,0.0,0.0,0.0,0.0,0.0,0.0,0.0,0.0,0.0,0.0,0.0,0.0,0.0,0.0,0.0,0.0,0.0,0.0,0.0,0.0,0.0,0.0,0.0,0.0,0.0,0.0,0.0,0.0,0.0,0.0,0.0,0.0,0.0,0.0,0.0,0.0,0.0,0.0,0.0,0.0,0.0,0.0,0.0,0.0,0.0,0.0,0.0,0.0,0.0,0.0,0.0,0.0,0.0,0.0,0.0,0.0,-4.0377,-4.6425,-5.0818,-5.2154,-5.2269,-5.2192,-5.1923,-4.8346,-4.3932,-3.87,0.0,0.0,0.0,0.0,0.0,0.0,0.0,0.0,0.0,0.0,0.0,0.0,0.0,0.0,0.0,0.0,0.0,0.0,0.0,0.0,0.0,0.0,0.0,0.0,0.0,0.0,0.0,0.0,0.0,0.0,0.0,0.0,0.0,0.0,0.0,0.0,0.0,0.0,0.0,0.0,0.0,0.0,0.0,0.0,0.0,0.0,0.0,0.0,0.0,0.0,0.0,0.0,0.0,0.0,0.0,0.0,0.0,0.0,0.0,0.0,0.0,0.0,0.0,0.0,0.0,0.0,0.0,0.0,0.0,0.0,0.0,0.0,0.0,0.0,0.0,0.0,0.0,0.0,0.0,0.0,0.0,0.0,0.0,0.0,0.0,0.0,0.0,0.0,0.0,0.0,0.0,0.0,0.0,0.0,0.0,0.0,0.0,0.0,0.0,0.0,0.0,0.0,-3.9977,-4.5877,-5.0125,-5.1318,-5.1433,-5.1433,-5.1433,-4.8317,-4.4124,-3.8854,0.0,0.0,0.0,0.0,0.0,0.0,0.0,0.0,0.0,0.0,0.0,0.0,0.0,0.0,0.0,0.0,0.0,0.0,0.0,0.0,0.0,0.0,0.0,0.0,0.0,0.0,0.0,0.0,0.0,0.0,0.0,0.0,0.0,0.0,0.0,0.0,0.0,0.0,0.0,0.0,0.0,0.0,0.0,0.0,0.0,0.0,0.0,0.0,0.0,0.0,0.0,0.0,0.0,0.0,0.0,0.0,0.0,0.0,0.0,0.0,0.0,0.0,0.0,0.0,0.0,0.0,0.0,0.0,0.0,0.0,0.0,0.0,0.0,0.0,0.0,0.0,0.0,0.0,0.0,0.0,0.0,0.0,0.0,0.0,0.0,0.0,0.0,0.0,0.0,0.0,0.0,0.0,0.0,0.0,0.0,0.0,0.0,0.0,0.0,0.0,0.0,0.0,-3.9823,-4.4932,-4.8779,-5.0519,-5.0712,-5.0673,-5.0596,-4.7595,-4.394,-3.9669,0.0,0.0,0.0,0.0,0.0,0.0,0.0,0.0,0.0,0.0,0.0,0.0,0.0,0.0,0.0,0.0,0.0,0.0,0.0,0.0,0.0,0.0,0.0,0.0,0.0,0.0,0.0,0.0,0.0,0.0,0.0,0.0,0.0,0.0,0.0,0.0,0.0,0.0,0.0,0.0,0.0,0.0,0.0,0.0,0.0,0.0,0.0,0.0,0.0,0.0,0.0,0.0,0.0,0.0,0.0,0.0,0.0,0.0,0.0,0.0,-4.7734,0.0,0.0,0.0,0.0,0.0,0.0,0.0,0.0,0.0,0.0,0.0,0.0,0.0,0.0,0.0,0.0,0.0,0.0,0.0,0.0,0.0,0.0,0.0,0.0,0.0,0.0,0.0,0.0,0.0,0.0,0.0,0.0,0.0,0.0,0.0,0.0,0.0,0.0,0.0,0.0,0.0,-3.9823,-4.4932,-4.8779,-5.0519,-5.0712,-5.0442,-4.974,-4.7817,-4.4816,-4.0516,0.0,0.0,0.0,0.0,0.0,0.0,0.0,0.0,0.0,0.0,0.0,0.0,0.0,0.0,0.0,0.0,0.0,0.0,0.0,0.0,0.0,0.0,0.0,0.0,0.0,0.0,0.0,0.0,0.0,0.0,0.0,0.0,0.0,0.0,0.0,0.0,0.0,0.0,0.0,0.0,0.0,0.0,0.0,0.0,0.0,0.0,0.0,0.0,0.0,0.0,0.0,0.0,0.0,0.0,0.0,0.0,0.0,0.0,0.0,0.0,0.0,-4.9726,0.0,0.0,0.0,0.0,0.0,0.0,0.0,0.0,0.0,0.0,0.0,0.0,0.0,0.0,0.0,0.0,0.0,0.0,0.0,0.0,0.0,0.0,0.0,0.0,0.0,0.0,0.0,0.0,0.0,0.0,0.0,0.0,0.0,0.0,0.0,0.0,0.0,0.0,0.0,0.0,-4.0469,-4.5201,-4.8779,-5.0519,-5.0327,-4.9894,-4.9433,-4.7471,-4.4816,-4.1354,-3.7161,0.0,0.0,0.0,0.0,0.0,0.0,0.0,0.0,0.0,0.0,0.0,0.0,0.0,0.0,0.0,0.0,0.0,0.0,0.0,0.0,0.0,0.0,0.0,0.0,0.0,0.0,0.0,0.0,0.0,0.0,0.0,0.0,0.0,0.0,0.0,0.0,0.0,0.0,0.0,0.0,0.0,0.0,0.0,0.0,0.0,0.0,0.0,0.0,0.0,0.0,0.0,0.0,0.0,-5.9844,-6.0781,-6.1992,-6.1953,-6.2344,-6.2812,-5.8398,-5.6367,-5.5898,0.0,0.0,0.0,0.0,0.0,0.0,0.0,0.0,0.0,0.0,0.0,0.0,0.0,0.0,0.0,0.0,0.0,0.0,0.0,0.0,0.0,0.0,0.0,0.0,0.0,-4.447,-4.3585,0.0,0.0,0.0,0.0,0.0,0.0,0.0,0.0,0.0,0.0,0.0,0.0,-4.1393,-4.5586,-4.8702,-5.0289,-4.9817,-4.9279,-4.8971,-4.7048,-4.4816,-4.2393,-3.8538,-3.5308,0.0,0.0,0.0,0.0,0.0,0.0,0.0,0.0,0.0,0.0,0.0,0.0,0.0,0.0,0.0,0.0,0.0,0.0,0.0,0.0,0.0,0.0,0.0,0.0,0.0,0.0,0.0,0.0,0.0,0.0,0.0,0.0,-4.3241,-4.5234,0.0,0.0,0.0,0.0,0.0,0.0,0.0,0.0,0.0,0.0,0.0,0.0,0.0,0.0,-5.9375,-6.2617,-6.4375,-6.4609,-6.7578,-6.875,-6.8281,-6.8242,-6.8281,-6.832,-6.6914,0.0,-5.9492,-5.6719,0.0,0.0,0.0,0.0,0.0,0.0,0.0,0.0,0.0,0.0,0.0,0.0,0.0,0.0,0.0,0.0,0.0,0.0,0.0,0.0,0.0,0.0,-4.824,-4.7586,-4.7509,-4.7201,0.0,-4.1316,-3.7084,-3.5038,0.0,0.0,0.0,0.0,0.0,0.0,0.0,0.0,-4.2277,-4.597,-4.8471,-4.9471,-4.9471,-4.8817,-4.7355,-4.6932,-4.5932,-4.4085,-4.1354,-3.9046,-3.7238,-3.3237,0.0,0.0,0.0,0.0,0.0,0.0,0.0,0.0,0.0,0.0,0.0,0.0,0.0,0.0,0.0,0.0,0.0,0.0,0.0,0.0,0.0,0.0,0.0,0.0,0.0,0.0,0.0,0.0,0.0,-4.2023,-4.6172,-4.6953,-4.7226,-4.6757,0.0,0.0,0.0,0.0,0.0,0.0,0.0,0.0,0.0,-5.9531,-6.1797,-6.375,-6.543,-6.793,-6.9453,-6.9961,-7.1445,-7.1992,-7.164,-7.1601,-7.1328,-7.0859,-7.0508,-6.875,-6.5898,-6.1836,-5.7656,-5.3594,0.0,0.0,0.0,0.0,0.0,-4.9648,-5.1946,-5.1847,0.0,0.0,0.0,0.0,0.0,0.0,0.0,0.0,0.0,0.0,0.0,0.0,0.0,-5.0077,-5.0231,-5.001,-4.9202,-4.6586,-4.3355,0.0,-3.8154,-3.5968,-3.1468,0.0,0.0,0.0,0.0,0.0,-4.3239,-4.5893,-4.774,-4.8586,-4.8279,-4.7702,-4.6962,-4.6432,-4.5432,-4.3739,-4.2124,-4.0469,-3.8815,-3.5584,-3.2462,0.0,0.0,0.0,0.0,0.0,0.0,0.0,0.0,0.0,0.0,0.0,0.0,0.0,0.0,0.0,0.0,0.0,0.0,0.0,0.0,0.0,0.0,0.0,0.0,0.0,0.0,0.0,0.0,-4.5075,-4.8984,-4.9219,-5.0781,-5.082,0.0,0.0,0.0,0.0,0.0,0.0,-5.75,-5.9648,-6.1992,-6.457,-6.6953,-6.8906,-7.039,-7.1914,-7.3086,-7.3945,-7.375,-7.3633,-7.3633,-7.3398,-7.2812,-7.1992,-7.1992,-7.1523,-7.0351,-6.5859,-6.1836,-5.8359,-5.6406,-5.4726,-5.3594,-5.5078,-5.5117,-5.4765,-5.7491,-5.7656,-5.6258,-5.3752,0.0,-4.9413,-4.5338,0.0,0.0,0.0,0.0,-4.5701,-4.8663,-4.9894,-5.0625,-5.1654,-5.1885,-5.1692,-5.0856,-5.001,-4.8202,0.0,-4.2893,-4.0893,-3.6007,0.0,0.0,0.0,0.0,-4.1085,-4.4239,-4.597,-4.7115,-4.774,-4.7269,-4.6817,-4.6586,-4.5778,-4.4739,-4.347,-4.2393,-4.1239,-3.9969,-3.77,-3.5269,-3.2731,0.0,0.0,0.0,0.0,0.0,0.0,0.0,0.0,0.0,0.0,0.0,0.0,0.0,0.0,0.0,0.0,0.0,0.0,0.0,0.0,0.0,0.0,0.0,0.0,0.0,0.0,0.0,0.0,0.0,-5.3594,-5.5234,0.0,0.0,0.0,0.0,-5.6015,-5.7851,-6.0312,-6.3672,-6.4765,-6.6445,-6.8984,-7.082,-7.2187,-7.3086,-7.4023,-7.4922,-7.5742,-7.4922,-7.4531,-7.4492,-7.3672,-7.2812,-7.1992,-7.1992,-7.1523,-7.0508,-6.7812,-6.5586,-6.3672,-6.1094,-5.957,-5.8906,-5.9765,-5.957,-5.8983,-5.965,-5.8787,-5.7408,-5.7806,-5.5158,-5.1597,-5.0558,-4.8548,0.0,0.0,-4.9663,-5.0702,-5.251,-5.2972,-5.2818,-5.2077,-5.1885,-5.1692,-5.0856,-5.001,-4.9086,0.0,-4.5817,-4.3585,-4.1692,0.0,-3.9284,-4.0054,-4.1046,-4.2624,-4.521,-4.6317,-4.6923,-4.6962,-4.6923,-4.6547,-4.5748,-4.4855,-4.4316,-4.4239,-4.2701,-4.1769,-4.1692,-4.0008,-3.7892,-3.5346,-3.2769,0.0,0.0,0.0,0.0,0.0,0.0,0.0,0.0,0.0,0.0,0.0,0.0,0.0,0.0,0.0,0.0,0.0,0.0,0.0,0.0,0.0,0.0,0.0,0.0,0.0,0.0,0.0,0.0,-5.7226,-6.0312,0.0,-5.875,-5.9297,-6.0273,-6.1484,-6.3164,-6.5195,-6.7539,-6.8945,-7.039,-7.1875,-7.3047,-7.3828,-7.414,-7.4453,-7.4765,-7.5078,-7.4765,-7.4297,-7.375,-7.3437,-7.2812,-7.1992,-7.1992,-7.1836,-7.1367,-6.9336,-6.75,-6.582,-6.4336,-6.3242,-6.2539,-6.2812,-6.2339,-6.1534,-6.1758,-6.0889,-5.9483,-5.7947,-5.6049,-5.4087,-5.2702,-5.1664,-5.1087,-5.1664,-5.2087,-5.2587,-5.3741,-5.4049,-5.3818,-5.2933,-5.2741,-5.2356,-5.0981,-5.0481,-5.0125,-4.9817,-4.8125,-4.5855,-4.3124,-4.3047,-4.2901,-4.1546,-4.2508,-4.3932,-4.5402,-4.5855,-4.6047,-4.6047,-4.6047,-4.5701,-4.4855,-4.447,-4.3855,-4.2777,-4.1585,-4.0739,-4.02,-3.9084,-3.7546,-3.5538,-3.4045,-3.0814,0.0,0.0,0.0,0.0,0.0,0.0,0.0,0.0,0.0,0.0,0.0,0.0,0.0,0.0,0.0,0.0,0.0,0.0,0.0,0.0,0.0,0.0,0.0,0.0,0.0,0.0,-5.9414,-5.9961,-6.3867,-6.5469,-6.2812,-6.3906,-6.5117,-6.5976,-6.7344,-6.8828,-7.0273,-7.168,-7.2578,-7.2851,-7.3984,-7.4453,-7.414,-7.4453,-7.4609,-7.4609,-7.4297,-7.3867,-7.3281,-7.3008,-7.2539,-7.1992,-7.1992,-7.1836,-7.1445,-7.0039,-6.8594,-6.7265,-6.6367,-6.5703,-6.5195,-6.5195,-6.437,-6.3213,-6.2535,-6.1512,-6.0191,-5.8424,-5.706,-5.5934,-5.4818,-5.428,-5.4049,-5.4049,-5.4049,-5.4164,-5.4741,-5.4703,-5.428,-5.3395,-5.2972,-5.2395,-5.102,-5.0712,-5.0712,-5.0712,-4.951,-4.7817,-4.5624,-4.5663,-4.547,-4.3769,-4.4201,-4.494,-4.5518,-4.5594,-4.5594,-4.5594,-4.5594,-4.5248,-4.4355,-4.3778,-4.297,-4.1885,-4.0431,-3.9554,-3.9323,-3.8161,-3.693,-3.5538,-3.3814,-3.1121,-2.7428,0.0,0.0,0.0,0.0,0.0,0.0,0.0,0.0,0.0,0.0,0.0,0.0,0.0,0.0,0.0,0.0,0.0,0.0,0.0,0.0,0.0,0.0,0.0,-5.2734,-5.8047,-6.1836,-6.1914,-6.5703,-6.7305,-6.4805,-6.6836,-6.8633,-6.9414,-7.0273,-7.1094,-7.1953,-7.2812,-7.289,-7.207,-7.3672,-7.414,-7.332,-7.4101,-7.4531,-7.4492,-7.3672,-7.3242,-7.3242,-7.2383,-7.1992,-7.1992,-7.1992,-7.1484,-7.0625,-6.9804,-6.8984,-6.8086,-6.7226,-6.6914,-6.6914,-6.6875,-6.5781,-6.398,-6.1997,-6.0519,-5.955,-5.9511,-5.8396,-5.706,-5.7022,-5.6406,-5.5703,-5.5703,-5.5703,-5.5703,-5.5703,-5.5088,-5.428,-5.3395,-5.2538,-5.1692,-5.0856,-5.0712,-5.0712,-5.0712,-5.001,-4.9433,-4.9394,-4.8048,-4.6923,-4.6885,-4.6163,0.0,-4.5594,-4.5594,-4.5594,-4.5594,-4.5594,-4.521,-4.4355,-4.2739,-4.1769,-4.1731,-3.9392,-3.8392,-3.9207,-3.7623,-3.6346,-3.5538,-3.2192,-3.0006,-2.9165,0.0,0.0,0.0,0.0,0.0,0.0,0.0,0.0,0.0,0.0,0.0,0.0,0.0,0.0,0.0,0.0,0.0,0.0,0.0,0.0,0.0,0.0,-5.5469,-5.6367,-6.1133,-6.5,-6.625,-6.9101,-7.0664,-6.9961,-7.0547,-7.1055,-7.1289,-7.1523,-7.1758,-7.1992,-7.2812,-7.3203,-7.2969,-7.3398,-7.3555,-7.3281,-7.289,-7.2695,-7.2695,-7.2461,-7.2344,-7.2344,-7.2109,-7.1992,-7.1992,-7.1858,-7.1334,-7.0472,-6.9471,-6.8578,-6.7777,-6.7139,-6.6914,-6.6875,-6.6738,-6.5476,-6.3514,-6.1601,-6.0723,-6.0319,-5.9704,-5.8781,-5.7819,-5.7176,-5.6406,-5.5703,-5.5703,-5.5703,-5.5703,-5.5703,-5.5088,-5.428,-5.3395,-5.2538,-5.1692,-5.0856,-5.0712,-5.0712,-5.0712,-5.0519,-5.0125,-4.951,-4.8509,-4.7586,-4.7,-4.6163,0.0,-4.5594,-4.5594,-4.5594,-4.5594,-4.5017,-4.4316,-4.3508,-4.2431,-4.1277,-4.0046,-3.8738,-3.8123,-3.8354,-3.7276,-3.6615,-3.6385,-3.3038,-3.1237,0.0,0.0,0.0,0.0,0.0,0.0,0.0,0.0,0.0,0.0,0.0,0.0,0.0,0.0,0.0,0.0,0.0,0.0,0.0,0.0,0.0,0.0,-5.5694,-5.9212,-6.0898,-6.4336,-6.7187,-6.8594,-7.0664,-7.1992,-7.1992,-7.1992,-7.1992,-7.1992,-7.1992,-7.1992,-7.1992,-7.2812,-7.3125,-7.2773,-7.3125,-7.3125,-7.2773,-7.2265,-7.1992,-7.1992,-7.1992,-7.1951,-7.1862,-7.1862,-7.1852,0.0,-7.1651,-7.0922,-6.9791,-6.9155,-6.8222,0.0,0.0,0.0,0.0,0.0,-6.4429,-6.2856,-6.1378,-6.0856,-6.0704,-6.0204,-5.9242,-5.8204,-5.7703,-5.6665,-5.5703,-5.5703,-5.5703,-5.5626,-5.528,-5.4587,-5.3741,-5.2856,-5.201,-5.1279,-5.0789,-5.0712,-5.0712,-5.0712,0.0,0.0,-4.9548,-4.8663,-4.7932,-4.7471,-4.6355,-4.5594,-4.5594,-4.5594,-4.5594,-4.5594,-4.5171,-4.4355,-4.3201,-4.2316,0.0,0.0,0.0,-3.77,-3.6969,-3.6462,0.0,0.0,0.0,0.0,0.0,0.0,0.0,0.0,-3.0923,-3.0893,0.0,0.0,0.0,0.0,0.0,0.0,0.0,0.0,0.0,0.0,0.0,0.0,0.0,0.0,0.0,0.0,-5.8983,-6.268,-6.5306,-6.7106,-6.8474,-6.9374,-7.0936,-7.1952,-7.1952,-7.1992,-7.1992,-7.1992,-7.1992,-7.1992,-7.1992,0.0,0.0,0.0,0.0,-7.2773,-7.1992,-7.1992,-7.1992,-7.1952,-7.1952,-7.1861,-7.1675,-7.1675,-7.1614,-7.1478,-7.1379,-7.0399,-6.8889,-6.8752,-6.7765,-6.6334,-6.6374,-6.6335,-6.6011,-6.4371,-6.3138,0.0,0.0,0.0,0.0,-6.0781,-5.9665,-5.8319,-5.8319,-5.7088,-5.5703,-5.5703,-5.5703,-5.5511,-5.4703,-5.3857,-5.2972,-5.2115,-5.1279,-5.0712,-5.0712,-5.0712,-5.0712,-5.0712,-5.0712,-5.0442,-4.9663,-4.874,-4.8086,-4.7971,-4.6624,-4.5594,-4.5594,-4.5594,-4.5594,-4.5594,0.0,0.0,-4.3239,-4.2316,-4.1393,-4.0439,-3.8969,-3.7469,-3.6,-3.5923,-3.5923,-3.5923,-3.5846,-3.65,-3.8007,-3.8007,-3.8084,-3.8161,-3.3462,-3.2954,0.0,0.0,0.0,0.0,0.0,0.0,0.0,0.0,0.0,0.0,0.0,0.0,0.0,0.0,0.0,-5.8117,-6.1389,-6.4015,-6.5961,-6.7141,-6.8154,-6.9129,-7.0738,-7.1753,-7.1753,-7.1907,-7.1992,-7.1992,-7.1992,-7.1992,-7.1992,-7.2148,0.0,-7.1992,-7.2148,-7.2187,-7.1992,-7.1992,-7.1909,-7.1753,0.0,0.0,-7.153,-7.153,-7.1511,-7.1432,-7.0607,-6.9633,-6.8664,-6.7813,-6.6862,-6.6019,-6.6307,-6.587,-6.4981,-6.4011,-6.3013,-6.2001,-6.1142,-6.0839,-6.0781,-6.0781,-5.9665,-5.8319,-5.8319,-5.7088,0.0,-5.5703,-5.5703,-5.5511,-5.4703,-5.3857,-5.2972,-5.2115,-5.1279,-5.0712,-5.0712,-5.0712,-5.0712,-5.0712,-5.0712,-5.0635,-5.0481,-4.9125,-4.7894,-4.7231,-4.624,-4.5594,-4.5594,-4.5594,-4.5594,-4.5594,-4.4979,-4.4162,-4.3162,-4.2316,-4.1162,-3.9631,-3.9246,-3.8892,-3.8584,-3.8584,-3.8584,-3.8584,-3.7853,-3.77,-3.8007,-3.8007,-3.87,-3.9977,-3.7623,-3.7315,0.0,0.0,0.0,0.0,0.0,0.0,0.0,0.0,0.0,0.0,0.0,-4.774,-5.0741,0.0,-5.7063,-6.048,-6.2873,-6.4792,-6.6218,-6.6958,-6.7803,-6.8928,-7.0167,-7.1102,-7.1565,-7.1698,-7.1767,-7.1767,-7.1767,-7.1767,-7.1767,-7.1767,-7.1767,-7.1767,-7.1767,-7.1767,-7.1767,-7.1767,-7.1702,-7.1604,-7.1604,-7.1524,-7.137,-7.137,-7.1066,-7.0553,-7.0026,-6.9069,-6.7834,-6.6896,-6.6244,-6.5935,-6.6088,-6.5296,-6.4012,-6.3587,-6.2612,-6.1408,-6.0935,-6.0781,-6.0781,-6.0781,-5.9665,-5.8319,-5.8319,-5.7088,-5.5703,-5.5703,-5.5703,-5.5395,-5.4164,-5.3549,-5.2895,-5.1587,-5.0971,-5.0712,-5.0712,-5.0712,-5.0712,-5.0712,-5.0712,-5.0558,-5.0125,-4.8971,-4.7971,-4.7548,-4.6432,-4.5594,-4.5594,-4.5594,-4.5594,-4.5594,-4.521,-4.4624,-4.3778,-4.2547,-4.1277,-3.9977,-3.99,-3.9708,-3.9323,-3.9708,-3.99,-3.99,-3.9892,-4.0123,-4.0546,-4.0546,-4.0969,-4.1777,-4.0931,-4.0812,0.0,0.0,0.0,0.0,0.0,0.0,0.0,0.0,-4.4923,-4.9009,-5.051,-5.1972,-5.4741,-5.74,-5.9928,-6.2143,-6.3903,-6.5316,-6.6175,-6.6636,-6.7298,-6.8419,-6.9507,-7.0424,-7.1116,-7.1379,-7.1478,-7.1478,-7.1478,-7.1478,-7.1478,-7.1478,-7.1478,-7.1478,-7.1478,-7.1478,-7.1478,-7.1478,-7.1464,-7.1427,-7.1427,-7.1353,-7.1137,-7.0982,-7.0459,-6.9667,-6.936,-6.8321,-6.6821,-6.6167,-6.5897,-6.5859,-6.5705,-6.4705,-6.3308,-6.3308,-6.2243,-6.0781,-6.0781,-6.0781,-6.0781,-6.0781,-5.9665,-5.8319,-5.8319,-5.7088,-5.5703,-5.5703,-5.5703,-5.5318,-5.3626,-5.3203,-5.2779,-5.1097,-5.0712,-5.0712,-5.0712,-5.0712,-5.0712,-5.0712,-5.0712,-5.0481,-4.9779,-4.8779,-4.8048,-4.7894,-4.6586,-4.5594,-4.5594,-4.5594,-4.5594,-4.5594,-4.5594,-4.5171,-4.4162,-4.2662,-4.1431,-4.0554,-4.0516,-4.0285,-3.9815,-4.04,-4.0823,-4.1016,-4.17,-4.2393,-4.3085,-4.3085,-4.3162,-4.3316,-4.3316,-4.3389,-4.0477,-4.0777,-4.22,-4.4363,-4.4402,-4.5893,0.0,0.0,-5.1779,-5.528,-5.6703,-5.7434,-5.7819,-5.9969,-6.2032,-6.3022,-6.4638,-6.5806,-6.5931,-6.5986,-6.6358,-6.7203,-6.8882,-6.9992,-7.007,-7.0953,-7.1478,-7.1478,-7.1478,-7.1478,-7.1478,-7.1478,-7.1478,-7.1478,-7.1478,-7.1478,-7.1478,-7.1478,-7.1397,-7.1223,-7.1223,-7.1115,-7.0914,-7.0182,-6.9823,-6.9629,-6.8052,-6.6859,-6.6013,-6.5936,-6.5897,-6.582,-6.5051,-6.4166,-6.3308,-6.3308,-6.2243,-6.0781,-6.0781,-6.0781,-6.0781,-6.0781,-5.9665,-5.8319,-5.8319,-5.7088,-5.5703,-5.5703,-5.5703,-5.5318,-5.3626,-5.3203,-5.2779,-5.1097,-5.0712,-5.0712,-5.0712,-5.0712,-5.0712,-5.0712,-5.0712,-5.0673,-5.0558,-4.9202,-4.7855,-4.7154,-4.6201,-4.5594,-4.5594,-4.5594,-4.5594,-4.5594,-4.5594,-4.4979,-4.3355,-4.2354,-4.1431,-4.0554,-4.0516,-4.0816,-4.1508,-4.1623,-4.2008,-4.2777,-4.2893,-4.3008,-4.3085,-4.3085,-4.347,-4.4162,-4.4162,-4.4245,-4.6364,-4.6317,-4.6701,0.0,-4.9779,-5.1279,-5.5329,-5.5126,-5.4934,-5.7857,-5.8742,-5.9165,-5.9665,-6.105,-6.2358,0.0,-6.4359,-6.532,-6.582,-6.5474,-6.5282,-6.559,-6.6791,-6.8147,-6.9652,-7.0192,-7.0645,-7.1109,-7.1148,-7.1148,-7.1148,-7.1148,-7.1148,-7.1148,-7.1148,-7.1148,-7.1148,-7.1148,-7.1131,-7.1041,-7.1041,-7.0966,-7.086,-7.0052,-6.9167,-6.8129,-6.6898,-6.6205,-6.5897,-6.5897,-6.5897,-6.582,-6.4936,-6.4089,-6.3231,-6.2781,-6.182,-6.0781,-6.0781,-6.0781,-6.0781,-6.0781,-5.9665,-5.8319,-5.8319,-5.7088,-5.5703,-5.5703,-5.5703,-5.5318,-5.3626,-5.3203,-5.2779,-5.1097,-5.0712,-5.0712,-5.0712,-5.0712,-5.0712,-5.0712,-5.0712,-5.0712,-5.0712,-4.924,-4.8009,-4.7663,-4.6471,-4.5594,-4.5594,-4.5594,-4.5594,-4.5594,-4.5594,-4.5094,-4.3893,-4.3047,-4.22,-4.1316,-4.0785,-4.0893,-4.1769,-4.2277,-4.297,-4.3778,-4.4278,-4.4547,-4.4547,-4.4547,-4.4739,-4.5056,-4.5056,-4.5106,-4.9356,-4.9856,0.0,-5.2202,-5.3895,-5.5472,-5.6511,-5.6742,-5.728,-5.9127,-5.9511,-5.9627,-6.005,-6.1012,-6.2012,-6.2858,-6.3897,-6.482,-6.5436,-6.5013,-6.4512,-6.4282,-6.4782,-6.609,-6.8436,-6.909,-6.9667,-7.0514,-7.0552,-7.0667,-7.0898,-7.0898,-7.0898,-7.0898,-7.0898,-7.0898,-7.0898,-7.0898,-7.0898,-7.0898,-7.0898,-7.0783,-7.0514,-6.9475,-6.8167,-6.6744,-6.6128,-6.5897,-6.5897,-6.5897,-6.5897,-6.5782,-6.4666,-6.3858,-6.3166,-6.2127,-6.1331,-6.0781,-6.0781,-6.0781,-6.0742,-6.0512,-5.9473,-5.828,-5.8011,-5.6896,-5.5703,-5.5703,-5.5703,-5.5318,-5.3626,-5.3203,-5.2779,-5.1097,-5.0712,-5.0712,-5.0712,-5.0712,-5.0712,-5.0712,-5.0712,-5.0635,-5.0366,-4.9086,-4.8009,-4.7817,-4.6509,-4.5594,-4.5594,-4.5594,-4.5594,-4.5594,-4.5594,-4.5248,-4.4355,-4.3778,-4.3085,-4.22,-4.1585,-4.1585,-4.247,-4.3085,-4.3816,-4.4624,-4.5287,-4.5594,-4.5594,-4.5594,-4.5594,-4.5594,-4.5594,-4.5594,-4.7192,0.0,-5.2231,-5.3972,-5.5665,-5.7368,-5.9011,-5.9396,-5.9396,-5.9473,-5.9511,-5.9281,-5.8511,-5.9742,-6.1127,-6.1985,-6.3512,-6.4628,-6.4628,-6.4628,-6.4282,-6.3435,-6.3346,-6.4089,0.0,-6.7475,-6.8821,-6.9667,-6.9744,-7.009,-7.086,-7.0898,-7.0898,-7.0898,-7.0898,-7.0898,-7.0898,-7.0898,-7.0898,-7.0898,-7.0898,-7.0475,-6.9667,-6.7975,-6.6705,-6.5936,-6.5897,-6.5897,-6.5897,-6.5897,-6.5897,-6.5743,-6.4012,-6.332,-6.3089,-6.1435,-6.0819,-6.0781,-6.0781,-6.0781,-6.0666,-5.9819,-5.8973,-5.8127,-5.7291,-5.6406,-5.5703,-5.5703,-5.5703,-5.5318,-5.3626,-5.3203,-5.2779,-5.1097,-5.0712,-5.0712,-5.0712,-5.0712,-5.0712,-5.0712,-5.0712,-5.0442,-4.9586,-4.8702,-4.7855,-4.7038,-4.6163,-4.5594,-4.5594,-4.5594,-4.5594,-4.5594,-4.5594,-4.5248,-4.4355,-4.4278,-4.3932,-4.3124,-4.3047,-4.3393,-4.4201,-4.4239,-4.4662,-4.5556,-4.5594,-4.5594,-4.5594,-4.5594,-4.5594,-4.5594,-4.5594,-4.5594,-4.9808,0.0,-5.4857,-5.6588,-5.7857,-5.8973,-6.0089,-5.9935,-5.9511,-5.9511,-5.8627,-5.7753,-5.7473,-5.7907,-5.8753,-6.0165,-6.182,-6.3128,-6.3666,-6.4243,-6.4089,-6.2666,-6.2974,0.0,0.0,0.0,0.0,-6.8744,-6.936,-6.9821,-7.009,-7.0591,-7.0898,-7.0898,-7.0898,-7.0898,-7.0898,-7.0898,-7.0898,-7.0898,-7.036,-6.936,-6.7975,-6.7359,-6.6667,-6.5897,-6.5897,-6.5897,-6.5897,-6.5897,-6.5897,-6.5743,-6.3974,-6.3308,-6.3089,-6.1435,-6.0781,-6.0781,-6.0781,-6.0781,-6.0666,-5.9781,-5.8973,-5.8127,-5.7253,-5.6406,-5.5703,-5.5703,-5.5703,-5.5318,-5.3626,-5.3203,-5.2779,-5.1097,-5.0712,-5.0712,-5.0712,-5.0712,-5.0712,-5.0712,-5.0712,-5.0596,-5.0327,-4.9048,-4.7625,-4.624,-4.5787,-4.5594,-4.5594,-4.5594,-4.5594,-4.5594,-4.5594,-4.5479,-4.521,-4.4624,-4.4162,-4.3893,-4.3393,-4.347,-4.4278,-4.4316,-4.4701,-4.5594,-4.5594,-4.5594,-4.5594,-4.5594,-4.5594,-4.5594,-4.5594,-4.5594,-5.251,-5.4664,-5.6626,-5.8704,-5.9588,-6.0012,-6.0281,-5.9665,-5.8819,-5.7896,-5.6357,-5.5088,-5.479,-5.4752,-5.5598,-5.8204,-5.9819,-6.1358,-6.3051,-6.3512,-6.3397,-6.2627,-6.2743,-6.3128,0.0,0.0,0.0,-6.7821,-6.8744,-6.936,-6.9667,-7.0475,-7.0898,-7.0898,-7.0898,-7.0898,-7.0898,-7.0898,-7.0744,-7.0475,-6.9629,-6.8475,-6.709,-6.6782,-6.6397,-6.5897,-6.5897,-6.5897,-6.5897,-6.5897,-6.5897,-6.5743,-6.3974,-6.3308,-6.3089,-6.1435,-6.0781,-6.0781,-6.0781,-6.0781,-6.0589,-5.9435,-5.8704,-5.8088,-5.6896,-5.6126,-5.5703,-5.5703,-5.5703,-5.5318,-5.3626,-5.3203,-5.2779,-5.1097,-5.0712,-5.0712,-5.0712,-5.0712,-5.0712,-5.0712,-5.0712,-5.0596,-5.0289,-4.8817,-4.7201,-4.5825,-4.5594,-4.5594,-4.5594,-4.5594,-4.5594,-4.5594,-4.5594,-4.5594,-4.5594,-4.5094,-4.4739,-4.4739,-4.4278,-4.4239,-4.4739,-4.4739,-4.5017,-4.5594,-4.5594,-4.5594,-4.5594,-4.5594,-4.5594,-4.5594,-4.5594,-4.5594,-5.4857,-5.6483,-5.7791,-6.0204,-6.0781,-6.0512,-5.9627,-5.8742,-5.7396,-5.4818,-5.2895,-5.1385,0.0,0.0,-5.1933,-5.6077,-5.7627,-5.9473,-6.2781,-6.2666,-6.2474,0.0,0.0,0.0,0.0,0.0,0.0,-6.6898,0.0,-6.8783,-6.959,-7.0437,-7.0898,-7.0898,-7.0898,-7.0898,-7.0898,-7.086,-7.0437,-6.9629,-6.8744,-6.7898,-6.7013,-6.6244,-6.5897,-6.5897,-6.5897,-6.5897,-6.5897,-6.5897,-6.5859,-6.5667,-6.3974,-6.3281,-6.3051,-6.1396,-6.0781,-6.0781,-6.0781,-6.0781,-6.0473,-5.8819,-5.828,-5.7934,-5.6203,-5.5703,-5.5703,-5.5703,-5.5703,-5.5318,-5.3626,-5.3203,-5.2779,-5.1097,-5.0712,-5.0712,-5.0712,-5.0712,-5.0712,-5.0712,-5.0712,-5.0404,-4.9471,-4.8009,-4.6663,-4.5748,-4.5594,-4.5594,-4.5594,-4.5594,-4.5594,-4.5594,-4.5594,-4.5594,-4.5594,-4.5594,-4.5594,-4.5594,-4.5594,-4.5594,-4.5594,-4.5594,-4.5594,-4.5594,-4.5594,-4.5594,-4.5594,-4.5594,-4.5594,-4.5594,-4.5594,-4.5594,-5.6099,-5.8215,-5.9973,-6.0627,-6.0319,-5.9627,-5.8781,-5.6973,-5.4741,-5.2202,-4.9817,-4.774,0.0,0.0,0.0,-5.2731,-5.6077,0.0,-6.2012,-6.3281,0.0,-6.3346,0.0,-6.4128,-6.4551,-6.4589,0.0,0.0,-6.759,-6.8513,-6.8744,-7.0129,-7.0898,-7.0898,-7.0898,-7.0898,-7.0898,-7.0321,-6.959,-6.8744,-6.7859,-6.7013,-6.6205,-6.5974,-6.5897,-6.5897,-6.5897,-6.5897,-6.5897,-6.5897,-6.5513,-6.482,-6.3743,-6.2935,-6.2281,-6.1204,-6.0781,-6.0781,-6.0781,-6.0358,-5.9665,-5.8627,-5.7857,-5.7137,-5.6011,-5.5703,-5.5703,-5.5703,-5.5703,-5.5318,-5.3626,-5.3203,-5.2779,-5.1097,-5.0712,-5.0712,-5.0712,-5.0712,-5.0712,-5.0712,-5.0712,-5.0212,-4.8702,-4.8086,-4.7278,-4.5825,-4.5594,-4.5594,-4.5594,-4.5594,-4.5594,-4.5594,-4.5594,-4.5594,-4.5594,-4.5594,-4.5594,-4.5594,-4.5594,-4.5594,-4.5594,-4.5594,-4.5594,-4.5594,-4.5594,-4.5594,-4.5594,-4.5594,-4.5594,-4.5594,-4.5594,-4.5594,-5.7627,-5.9396,-6.0704,-6.0319,-5.9588,-5.8357,-5.6011,-5.3818,-5.1202,-4.7548,-4.5355,0.0,-4.1854,0.0,0.0,0.0,0.0,0.0,-6.1601,-6.2897,-6.3743,0.0,-6.4551,0.0,-6.5128,-6.5166,-6.5513,0.0,-6.7667,-6.8385,-6.8385,-6.9975,-7.0898,-7.0898,-7.0898,-7.0744,-7.0398,-6.9552,-6.8706,-6.7821,-6.7321,-6.6667,-6.5897,-6.5897,-6.5897,-6.5897,0.0,-6.5897,-6.5897,-6.5897,-6.5397,-6.4512,-6.3628,-6.282,-6.1985,-6.1127,-6.0781,-6.0781,-6.0781,-6.0012,-5.8896,-5.8434,-5.7703,-5.683,-5.5972,-5.5703,-5.5703,-5.5703,-5.5703,-5.5318,-5.3626,-5.3203,-5.2779,-5.1097,-5.0712,-5.0712,-5.0712,-5.0712,-5.0712,-5.0712,-5.0712,-5.0289,-4.8894,-4.8355,-4.7663,-4.6355,-4.5825,-4.5594,-4.5594,-4.5594,-4.5594,-4.5594,-4.5594,-4.5594,-4.5594,-4.5594,-4.5594,-4.5594,-4.5594,-4.5594,-4.5594,-4.5594,-4.5594,-4.5594,-4.5594,-4.5594,-4.5594,-4.5594,-4.5594,-4.5594,-4.5594,-4.5787,-5.9242,-6.0204,-6.0589,-5.9704,-5.8819,-5.7011,-5.2731,-5.0279,-4.7432,-4.2354,0.0,-3.9361,-3.7777,-4.0277,-4.3778,-4.7355,0.0,-5.5972,-6.1177,-6.2024,-6.3024,-6.5436,-6.5166,-6.5051,-6.582,-6.5897,-6.6205,-6.6898,-6.7859,-6.8462,-6.8577,-7.0052,-7.086,-7.0744,-7.0744,-7.036,-6.9552,-6.8667,-6.7859,-6.709,-6.6974,-6.659,-6.5897,-6.5897,-6.5897,-6.5897,0.0,0.0,-6.5897,-6.5897,-6.532,-6.4359,-6.3589,-6.2743,-6.1831,-6.1089,-6.0781,-6.0781,-6.0781,-5.9704,-5.8319,-5.8319,-5.7627,-5.6676,-5.5934,-5.5703,-5.5703,-5.5703,-5.5703,-5.5318,-5.3626,-5.3203,-5.2779,-5.1097,-5.0712,-5.0712,-5.0712,-5.0712,-5.0712,-5.0712,-5.0712,-5.0442,-4.9548,-4.8779,-4.8009,-4.7192,-4.6317,-4.5787,-4.5787,-4.5671,-4.5594,-4.5594,-4.5594,-4.5594,-4.5594,-4.5594,-4.5594,-4.5594,-4.5594,-4.5594,-4.5594,-4.5594,-4.5594,-4.5594,-4.5594,-4.5594,-4.5594,-4.5594,-4.5594,-4.5594,-4.571,-4.6163,-6.0281,-6.0666,-6.0589,-5.9704,-5.8357,-5.6126,-5.1856,-4.8519,0.0,0.0,-3.743,-3.6045,-3.5045,-3.7668,-4.1546,-4.6317,0.0,0.0,0.0,0.0,-6.2793,0.0,0.0,0.0,0.0,0.0,0.0,0.0,0.0,0.0,-6.9436,-7.0398,-7.0591,-6.9937,-6.9898,-6.9513,-6.8615,-6.7744,-6.7244,-6.709,-6.6436,-6.6051,-6.5897,-6.5897,-6.5897,-6.5897,0.0,0.0,-6.5897,-6.5897,-6.4974,-6.3512,-6.3346,-6.2358,-6.1012,-6.0858,-6.0781,-6.0781,-6.0781,-5.9704,-5.8319,-5.8319,-5.7203,-5.5895,-5.5742,-5.5703,-5.5703,-5.5703,-5.5703,-5.5318,-5.3626,-5.3203,-5.2779,-5.1097,-5.0712,-5.0712,-5.0712,-5.0712,-5.0712,-5.0712,-5.0712,-5.0442,-4.9548,-4.9279,-4.8894,-4.8009,-4.7201,-4.6663,-4.6663,-4.6047,-4.5594,-4.5594,-4.5594,-4.5594,-4.5594,-4.5594,-4.5594,-4.5594,-4.5594,-4.5594,-4.5594,-4.5594,-4.5594,-4.5594,-4.5594,-4.5594,-4.5594,-4.5594,-4.5594,-4.5633,-4.6355,-4.6778,-6.055,-6.0781,-6.0473,-5.9204,-5.728,-5.4357,-4.9211,0.0,0.0,0.0,-3.4699,-3.3737,-3.2468,-3.5738,0.0,-4.247,0.0,0.0,0.0,0.0,0.0,0.0,0.0,0.0,0.0,0.0,0.0,0.0,0.0,0.0,-6.8975,-6.9821,-6.9898,-6.9052,-6.859,-6.8167,-6.7744,-6.6898,-6.6474,-6.6474,-6.609,-6.5897,-6.5897,-6.5897,-6.5897,-6.5897,-6.5897,0.0,-6.5859,-6.5397,-6.4474,-6.3281,-6.2858,-6.1897,-6.0781,-6.0781,-6.0781,-6.0781,-6.0781,-5.9704,-5.8319,-5.8319,-5.7126,-5.5703,-5.5703,-5.5703,-5.5703,-5.5703,-5.5703,-5.5318,-5.3626,-5.3203,-5.2779,-5.1097,-5.0712,-5.0712,-5.0712,-5.0712,-5.0712,-5.0712,-5.0712,-5.0558,-5.0164,-4.9702,-4.924,-4.8856,-4.7702,-4.6885,-4.6885,-4.6124,-4.5594,-4.5594,-4.5594,-4.5594,-4.5594,-4.5594,-4.5594,-4.5594,-4.5594,-4.5594,-4.5594,-4.5594,-4.5594,-4.5594,-4.5594,-4.5594,-4.5594,-4.6047,-4.6278,-4.6317,-4.7124,-4.7778,-6.0319,-6.0666,-6.0396,-5.8704,-5.6395,-5.2895,-4.671,-4.2709,0.0,0.0,-3.2506,-3.2006,-3.0885,-3.4083,-3.7507,0.0,-4.3239,-4.8202,0.0,0.0,0.0,0.0,0.0,0.0,0.0,0.0,0.0,0.0,0.0,0.0,-6.8359,-6.9052,-6.9013,-6.8167,-6.7475,-6.7013,-6.6821,-6.6205,-6.5897,-6.5897,-6.5897,-6.5897,-6.5897,-6.5897,-6.5897,-6.5897,-6.5897,0.0,0.0,-6.4974,-6.4089,-6.3243,-6.2397,-6.1562,-6.0781,-6.0781,-6.0781,-6.0781,-6.0781,-5.9704,-5.8319,-5.8319,-5.7126,-5.5703,-5.5703,-5.5703,-5.5703,-5.5703,-5.5703,-5.5318,-5.3626,-5.3203,-5.2779,-5.1097,-5.0712,-5.0712,-5.0712,-5.0712,-5.0712,-5.0712,-5.0712,-5.0712,-5.0712,-5.0125,-4.9663,-4.9663,-4.8394,-4.7355,-4.7192,-4.6394,-4.5825,-4.5633,-4.5594,-4.5594,-4.5594,-4.5594,-4.5594,-4.5594,-4.5594,-4.5594,-4.5594,-4.5594,-4.5594,-4.5594,-4.5594,-4.571,-4.5893,-4.6586,-4.7,-4.7192,-4.8009,-4.874,-5.9588,-6.0204,-6.0396,-5.8704,-5.6395,-5.2741,-4.597,0.0,0.0,-3.2852,-3.1192,-3.0808,-3.1468,-3.2545,-3.4891,-3.9631,-4.2124,-4.5778,0.0,0.0,0.0,0.0,0.0,0.0,0.0,0.0,0.0,0.0,0.0,0.0,0.0,-6.8475,-6.8129,-6.7244,-6.7128,-6.6744,-6.6013,-6.5936,-6.5897,-6.5897,-6.5897,-6.5897,-6.5897,-6.5897,-6.5897,-6.5897,0.0,0.0,0.0,-6.4974,-6.4089,-6.3243,-6.2397,-6.1562,-6.0781,-6.0781,-6.0781,-6.0781,-6.0781,-5.9704,-5.8319,-5.8319,-5.7126,-5.5703,-5.5703,-5.5703,-5.5703,-5.5703,-5.5703,-5.5318,-5.3626,-5.3203,-5.2779,-5.1097,-5.0712,-5.0712,-5.0712,-5.0712,-5.0712,-5.0712,-5.0712,-5.0712,-5.0712,-5.0635,-5.0596,-5.0596,-4.9779,-4.8894,-4.8086,-4.7278,-4.6471,-4.5671,-4.5594,-4.5594,-4.5594,-4.5594,-4.5594,-4.5594,-4.5594,-4.5594,-4.5594,-4.5594,-4.5594,-4.5594,-4.5594,-4.597,-4.6778,-4.6846,-4.7278,-4.8009,-4.8894,-4.9317,-5.9088,-5.9742,-5.9742,-5.8588,-5.5588,-5.1433,-4.5624,0.0,-3.7199,-3.266,-3.1,-3.05,-3.0846,-3.1621,-3.316,-3.6206,-3.7738,-4.07,-4.6971,0.0,0.0,0.0,0.0,0.0,0.0,0.0,0.0,0.0,0.0,0.0,0.0,-6.7359,-6.7244,-6.6397,-6.6359,-6.6205,-6.5897,-6.5897,-6.5897,-6.5897,-6.5897,-6.5897,-6.5897,-6.5897,-6.5897,-6.5897,0.0,0.0,0.0,-6.4166,-6.332,-6.2474,-6.1627,-6.1089,-6.0781,-6.0781,-6.0781,-6.0781,-6.0781,-5.9704,-5.8319,-5.8319,-5.7126,-5.5703,-5.5703,-5.5703,-5.5703,-5.5703,-5.5703,-5.5434,-5.428,-5.3203,-5.2125,-5.0971,-5.0712,-5.0712,-5.0712,-5.0712,-5.0712,-5.0712,-5.0712,-5.0712,-5.0712,-5.0712,-5.0712,-5.0712,-4.9971,-4.9086,-4.8202,-4.7394,-4.6586,-4.571,-4.5594,-4.5594,-4.5594,-4.5594,-4.5594,-4.5594,-4.5594,-4.5594,-4.5594,-4.5594,-4.5864,-4.6355,-4.6394,-4.6778,-4.7625,-4.8163,-4.8586,-4.8894,-4.9779,-5.0164,-5.7473,-5.8588,-5.8896,-5.7819,-5.4511,-5.0202,0.0,-4.0662,-3.6507,-3.2506,-3.1,-3.0385,-3.0385,-3.0885,-3.1968,-3.3898,-3.5122,-3.7923,-4.3855,-4.7086,0.0,0.0,0.0,0.0,0.0,0.0,0.0,0.0,0.0,0.0,0.0,-6.6436,-6.6474,-6.5897,-6.5897,-6.5897,-6.5897,-6.5897,-6.5897,-6.5897,-6.5897,-6.5897,-6.5897,-6.5897,-6.5897,-6.5897,0.0,0.0,0.0,-6.3397,-6.2589,-6.2024,-6.1127,-6.0781,-6.0781,-6.0781,-6.0781,-6.0781,-6.0781,-5.9704,-5.8319,-5.8319,-5.7126,-5.5703,-5.5703,-5.5703,-5.5703,-5.5703,-5.5318,-5.4818,-5.4241,-5.2856,-5.1395,-5.0827,-5.0712,-5.0712,-5.0712,-5.0712,-5.0712,-5.0712,-5.0712,-5.0712,-5.0712,-5.0712,-5.0712,-5.0712,-5.0164,-4.9471,-4.8586,-4.8009,-4.7317,-4.6432,-4.6124,-4.5893,-4.5633,-4.5594,-4.5594,-4.5594,-4.5594,-4.5594,-4.5594,-4.5864,-4.6278,-4.6885,-4.7115,-4.7663,-4.8509,-4.9086,-4.951,-4.9779,-5.0404,-5.0712,-5.4318,-5.6395,-5.7896,-5.6165,-5.3213,-4.9365,-4.4278,-3.9777,-3.5769,-3.2391,-3.1,-3.0385,-3.0385,-3.0423,-3.1231,-3.3782,-3.5584,-3.8777,-4.4748,-4.8519,0.0,0.0,0.0,0.0,0.0,0.0,0.0,0.0,0.0,0.0,0.0,-6.5897,-6.5897,-6.5897,-6.5897,-6.5897,-6.5897,-6.5897,-6.5897,-6.5897,-6.5897,-6.5897,-6.5897,-6.5897,-6.5897,0.0,0.0,0.0,0.0,-6.2781,-6.2101,-6.2024,-6.1127,-6.0781,-6.0781,-6.0781,-6.0781,-6.0781,-6.0781,-5.9704,-5.8319,-5.8319,-5.7126,-5.5703,-5.5703,-5.5703,-5.5703,-5.5703,-5.4511,-5.3241,-5.3241,-5.1972,-5.0712,-5.0712,-5.0712,-5.0712,-5.0712,-5.0712,-5.0712,-5.0712,-5.0712,-5.0712,-5.0712,-5.0712,-5.0712,-5.0712,-5.0712,-5.0366,-4.951,-4.9394,-4.9048,-4.8163,-4.7355,-4.6547,-4.5671,-4.5594,-4.5594,-4.5594,-4.5594,-4.5594,-4.5594,-4.6432,-4.6885,-4.6885,-4.7702,-4.8509,-4.9394,-4.9394,-4.9817,-5.0712,-5.0712,-5.0712,-4.9894,-5.1164,-5.1818,-5.0125,-4.7971,-4.5163,-4.0623,-3.8084,-3.5577,-3.1615,-3.0577,-3.0385,-3.0385,-3.0385,-3.1615,-3.5315,-3.6346,-3.8584,0.0,0.0,0.0,0.0,0.0,0.0,0.0,0.0,0.0,0.0,0.0,0.0,0.0,-6.5897,-6.5897,-6.5897,-6.5897,-6.5897,-6.5897,-6.5897,-6.5897,-6.5897,-6.5897,-6.5897,-6.5897,-6.5897,0.0,0.0,0.0,0.0,0.0,-6.2332,-6.1755,-6.1166,-6.0896,-6.0781,-6.0781,-6.0781,-6.0781,-6.0704,-6.0127,-5.9204,-5.8204,-5.7588,-5.6626,-5.5703,-5.5703,-5.5703,-5.5703,-5.5703,-5.4934,-5.3933,-5.3356,-5.2356,-5.1395,-5.0827,-5.0712,-5.0712,-5.0712,-5.0712,-5.0712,-5.0712,-5.0712,-5.0712,-5.0712,-5.0712,-5.0712,-5.0712,-5.0712,-5.0404,-4.951,-4.9394,-4.9086,-4.8202,-4.7855,-4.7394,-4.6547,-4.5932,-4.5855,-4.6432,-4.6509,-4.674,-4.7278,-4.7586,-4.8009,-4.8586,-4.8856,-4.9433,-5.0289,-5.0289,-5.0442,-5.0712,-5.0712,-5.0712,-4.574,-4.7086,-4.7625,-4.6278,-4.4624,-4.2431,-3.8815,-3.6853,-3.4814,-3.1577,-3.0615,-3.0385,-3.0385,-3.0385,-3.1462,-3.4737,-3.5808,-3.8038,0.0,0.0,0.0,0.0,0.0,0.0,0.0,0.0,0.0,0.0,0.0,0.0,0.0,0.0,-6.5897,-6.5897,-6.5897,-6.5897,-6.5897,-6.5897,-6.5897,-6.5897,-6.5897,-6.5897,-6.5897,-6.5551,0.0,0.0,0.0,0.0,0.0,-6.1755,-6.1281,-6.0781,-6.0781,-6.0781,-6.0781,-6.0781,-6.0781,-6.0666,-5.9819,-5.8973,-5.8165,-5.728,-5.6406,-5.5703,-5.5703,-5.5703,-5.5703,-5.5703,-5.5126,-5.428,-5.3433,-5.2538,-5.1692,-5.0894,-5.0712,-5.0712,-5.0712,-5.0712,-5.0712,-5.0712,-5.0712,-5.0712,-5.0712,-5.0712,-5.0712,-5.0712,-5.0712,-5.0519,-4.9971,-4.9894,-4.9663,-4.9125,-4.8779,-4.8394,-4.7894,-4.7048,-4.6778,-4.7317,-4.7355,-4.7586,-4.8086,-4.8432,-4.8856,-4.9394,-4.9702,-5.0164,-5.0712,-5.0712,-5.0712,-5.0712,-5.0712,-5.0712,0.0,-4.3701,-4.4825,-4.3816,-4.247,-4.0692,-3.8123,-3.5776,0.0,-3.1968,-3.0962,-3.0462,-3.0654,-3.0577,-3.1154,-3.3122,-3.4814,0.0,0.0,0.0,0.0,0.0,0.0,0.0,0.0,0.0,0.0,0.0,0.0,0.0,0.0,0.0,-6.5897,-6.5897,-6.5897,-6.5897,-6.5897,-6.5897,-6.5897,-6.5897,-6.5897,-6.5859,-6.5782,-6.4974,0.0,0.0,0.0,0.0,0.0,-6.1127,-6.0781,-6.0781,-6.0781,-6.0781,-6.0781,-6.0742,-6.0704,-6.055,-5.9627,-5.8819,-5.805,-5.7176,-5.6368,-5.5703,-5.5703,-5.5703,-5.5703,-5.5703,-5.5126,-5.4318,-5.351,-5.2577,-5.1692,-5.0971,-5.075,-5.0712,-5.0712,-5.0712,-5.0712,-5.0712,-5.0712,-5.0712,-5.0712,-5.0712,-5.0712,-5.0712,-5.0712,-5.0712,-5.0712,-5.0712,-5.0712,-5.0712,-4.9971,-4.9471,-4.9471,-4.8625,-4.8125,-4.8202,-4.8202,-4.824,-4.8279,-4.9048,-4.9471,-4.9471,-5.0289,-5.0712,-5.0712,-5.0712,-5.0712,-5.0712,-5.0712,-5.075,-3.5084,0.0,-3.9277,-3.713,-3.6776,-3.6308,0.0,-3.3199,-3.2737,-3.1038,-3.0538,-3.1,-3.2929,-3.2275,-3.3006,-3.7938,-3.9053,0.0,0.0,0.0,0.0,0.0,0.0,0.0,0.0,0.0,0.0,0.0,0.0,0.0,0.0,0.0,-6.5897,-6.5897,-6.5897,-6.5897,-6.5897,-6.5897,-6.5897,-6.5897,-6.5897,-6.5551,-6.4897,-6.4705,0.0,0.0,0.0,0.0,-6.1089,-6.0858,-6.0781,-6.0781,-6.0781,-6.0781,-6.0704,-6.005,-5.9819,-5.9588,-5.8088,-5.7473,-5.7165,-5.628,-5.5857,-5.5703,-5.5703,-5.5703,-5.5703,-5.5703,-5.5126,-5.4434,-5.4241,-5.3049,-5.1846,-5.1654,-5.1164,-5.0712,-5.0712,-5.0712,-5.0712,-5.0712,-5.0712,-5.0712,-5.0712,-5.0712,-5.0712,-5.0712,-5.0712,-5.0712,-5.0712,-5.0712,-5.0712,-5.0712,-5.0519,-5.0404,-5.0404,-4.8971,-4.8394,-4.9048,-4.9086,-4.9394,-5.0048,-5.0289,-5.0404,-5.0404,-5.0596,-5.0712,-5.0712,-5.0712,-5.0712,-5.0712,-5.0712,-5.101,-3.241,-3.4814,-3.7084,-3.5699,-3.5699,-3.5577,-3.3846,-3.2891,-3.1968,-3.0654,-3.0385,-3.0923,-3.2737,-3.2929,-3.4122,-3.8123,-4.0085,0.0,0.0,0.0,0.0,0.0,0.0,0.0,0.0,0.0,0.0,0.0,0.0,0.0,0.0,0.0,-6.4705,-6.4705,-6.4705,-6.5089,-6.5897,-6.5513,-6.5282,-6.5282,-6.4897,-6.4474,-6.4012,-6.3628,0.0,0.0,0.0,0.0,-6.0781,-6.0781,-6.0781,-6.0781,-6.0781,-6.0781,-6.0742,-6.0281,-5.9858,-5.9319,-5.805,-5.7049,-5.6329,-5.5857,-5.5703,-5.5703,-5.5703,-5.5703,-5.5703,-5.5703,-5.5395,-5.4972,-5.4587,-5.351,-5.2385,-5.2,-5.1279,-5.0712,-5.0712,-5.0712,-5.0712,-5.0712,-5.0712,-5.0712,-5.0712,-5.0712,-5.0712,-5.0712,-5.0712,-5.0712,-5.0712,-5.0712,-5.0712,-5.0712,-5.0712,-5.0712,-5.0712,-4.9817,-4.9471,-4.9971,-5.001,-5.0212,-5.0673,-5.0712,-5.0712,-5.0712,-5.0712,-5.0712,-5.0712,-5.0712,-5.0712,-5.0712,-5.0712,-5.1125,-3.2045,-3.4525,-3.693,-3.6269,-3.6423,-3.6423,-3.5346,-3.3423,-3.166,-3.0923,-3.0769,-3.1154,-3.2429,-3.3814,0.0,0.0,0.0,0.0,0.0,0.0,0.0,0.0,0.0,0.0,0.0,0.0,0.0,0.0,0.0,0.0,0.0,0.0,0.0,-6.3308,-6.3308,-6.4012,-6.5474,-6.4782,-6.4397,-6.4397,-6.3666,-6.3243,-6.3089,-6.2397,-6.2024,0.0,0.0,0.0,-6.0781,-6.0781,-6.0781,-6.0781,-6.0781,-6.0781,-6.0781,-6.0666,-6.005,-5.9165,-5.8242,-5.6934,-5.5703,-5.5703,-5.5703,-5.5703,-5.5703,-5.5703,-5.5703,-5.5703,-5.5703,-5.5549,-5.4857,-5.3933,-5.301,-5.2269,-5.1395,-5.0712,-5.0712,-5.0712,-5.0712,-5.0712,-5.0712,-5.0712,-5.0712,-5.0712,-5.0712,-5.0712,-5.0712,-5.0712,-5.0712,-5.0712,-5.0712,-5.0712,-5.0712,-5.0712,-5.0712,-5.0712,-5.0712,-5.0712,-5.0712,-5.0712,-5.0712,-5.0712,-5.0712,-5.0712,-5.0712,-5.0712,-5.0712,-5.0712,-5.0712,-5.0712,-5.0827,-5.1318,-3.2936,-3.6136,-3.8046,-3.4391,-3.5084,-3.6115,-3.3814,-3.3006,-3.2699,-3.2545,0.0,0.0,0.0,-3.7238,-3.843,0.0,0.0,0.0,0.0,0.0,0.0,0.0,0.0,0.0,0.0,0.0,0.0,0.0,0.0,0.0,0.0,0.0,0.0,-6.3308,-6.3308,-6.3435,-6.3705,-6.3589,-6.3512,-6.3512,-6.3346,-6.2935,-6.2281,-6.2178,-6.1716,0.0,0.0,-6.0781,-6.0781,-6.0781,-6.0781,-6.0781,-6.0781,-6.0781,-6.0704,-5.9973,-5.9165,-5.828,-5.6665,-5.5934,-5.5703,-5.5703,-5.5703,-5.5703,-5.5703,-5.5703,-5.5703,-5.5703,-5.5703,-5.5665,-5.5549,-5.4357,-5.3164,-5.3049,-5.1818,-5.0712,-5.0712,-5.0712,-5.0712,-5.0712,-5.0712,-5.0712,-5.0712,-5.0712,-5.0712,-5.0712,-5.0712,-5.0712,-5.0712,-5.0712,-5.0712,-5.0712,-5.0712,-5.0712,-5.0712,-5.0712,-5.0712,-5.0712,-5.0712,-5.0712,-5.0712,-5.0712,-5.0712,-5.0712,-5.0712,-5.0712,-5.0712,-5.0712,-5.0712,-5.0712,-5.1395,-5.2192,-3.124,-3.4233,-3.6565,-3.4565,-3.7133,-3.9738,-3.8084,-3.6622,-3.5507,-3.5045,-3.4968,0.0,0.0,0.0,0.0,0.0,0.0,0.0,0.0,0.0,0.0,0.0,0.0,0.0,0.0,0.0,0.0,0.0,0.0,0.0,0.0,0.0,0.0,0.0,-6.1935,-6.1935,-6.1935,-6.1935,-6.2204,-6.2666,-6.2166,-6.1743,-6.1408,-6.1408,-6.1166,-6.0781,0.0,-6.0781,-6.0781,-6.0781,-6.0781,-6.0781,-6.0781,-6.0781,-6.0627,-5.9319,-5.8627,-5.805,-5.628,-5.5703,-5.5703,-5.5703,-5.5703,-5.5703,-5.5703,-5.5703,-5.5703,-5.5703,-5.5703,-5.5703,-5.5703,-5.4818,-5.3895,-5.3895,-5.2933,-5.1933,-5.1433,-5.1356,-5.1202,-5.0789,-5.0712,-5.0712,-5.0712,-5.0712,-5.0712,-5.0712,-5.0712,-5.0712,-5.0712,-5.0712,-5.0712,-5.0712,-5.0712,-5.0712,-5.0712,-5.0712,-5.0712,-5.0712,-5.0712,-5.0712,-5.0712,-5.0712,-5.0712,-5.0712,-5.0712,-5.0712,-5.0712,-5.0712,-5.0933,-5.1356,-5.1731,-5.2615,-3.0622,-3.3039,-3.5509,-3.59,-3.8958,-4.1893,-4.1808,-4.0008,-3.8277,-3.82,-3.8192,0.0,0.0,0.0,0.0,0.0,0.0,0.0,0.0,0.0,0.0,0.0,0.0,0.0,0.0,0.0,0.0,0.0,0.0,0.0,0.0,0.0,0.0,0.0,-6.0781,-6.0781,-6.0781,-6.0781,-6.1127,-6.1793,-6.1127,-6.0781,-6.0781,-6.0781,-6.0781,-6.0781,-6.0781,-6.0781,-6.0781,-6.0781,-6.0781,-6.0781,-6.0781,-6.0781,-6.0589,-5.8934,-5.8319,-5.805,-5.628,-5.5703,-5.5703,-5.5703,-5.5703,-5.5703,-5.5703,-5.5703,-5.5703,-5.5703,-5.5703,-5.5703,-5.5703,-5.5088,-5.4511,-5.4511,-5.3818,-5.301,-5.2346,-5.2038,-5.1731,-5.1087,-5.0827,-5.0712,-5.0712,-5.0712,-5.0712,-5.0712,-5.0712,-5.0712,-5.0712,-5.0712,-5.0712,-5.0712,-5.0712,-5.0712,-5.0712,-5.0712,-5.0712,-5.0712,-5.0712,-5.0712,-5.0712,-5.0712,-5.0712,-5.0712,-5.0712,-5.0712,-5.0712,-5.0894,-5.1318,-5.1923,-5.2308,-5.3241,-3.3418,-3.5143,-3.6672,-3.8256,-3.8506,-3.8969,-4.1269,-4.0431,-3.9854,-4.2162,-4.2624,0.0,0.0,0.0,0.0,0.0,0.0,0.0,0.0,0.0,0.0,0.0,0.0,0.0,0.0,0.0,0.0,0.0,0.0,0.0,0.0,0.0,0.0,0.0,0.0,-6.0781,-6.0781,-6.0781,-6.0819,-6.0896,-6.0819,-6.0781,-6.0781,-6.0781,-6.0781,-6.0781,-6.0781,-6.0781,-6.0781,-6.0781,-6.0781,-6.0781,-6.0781,-6.0781,-6.0589,-5.8934,-5.8319,-5.805,-5.628,-5.5703,-5.5703,-5.5703,-5.5703,-5.5703,-5.5703,-5.5703,-5.5703,-5.5703,-5.5703,-5.5703,-5.5703,-5.5088,-5.4511,-5.4511,-5.3818,-5.3164,-5.3126,-5.2462,-5.1885,-5.1808,-5.1202,-5.0712,-5.0712,-5.0712,-5.0712,-5.0712,-5.0712,-5.0712,-5.0712,-5.0712,-5.0712,-5.0712,-5.0712,-5.0712,-5.0712,-5.0712,-5.0712,-5.0712,-5.0712,-5.0712,-5.0712,-5.0712,-5.0712,-5.0712,-5.0712,-5.0712,-5.0712,-5.1471,-5.1846,-5.1923,-5.3549,-5.4395,-3.1439,-3.3634,-3.5827,-3.6825,-3.8729,-4.1046,-4.3585,-4.4085,-4.4586,-4.6586,-4.7009,-4.7009,0.0,0.0,0.0,0.0,0.0,0.0,0.0,0.0,0.0,0.0,0.0,0.0,0.0,0.0,0.0,0.0,0.0,0.0,0.0,0.0,0.0,0.0,0.0,-6.0781,-6.0781,-6.0781,-6.0781,-6.0781,-6.0781,-6.0781,-6.0781,-6.0781,-6.0781,-6.0781,-6.0781,-6.0781,-6.0781,-6.0781,-6.0781,-6.0781,-6.0781,-6.0781,-6.0666,-5.9473,-5.8742,-5.8127,-5.6934,-5.6126,-5.5703,-5.5703,-5.5703,-5.5703,-5.5703,-5.5703,-5.5703,-5.5703,-5.5703,-5.5703,-5.5703,-5.5472,-5.5241,-5.5241,-5.4972,-5.4626,-5.4126,-5.3741,-5.3356,-5.2818,-5.2472,-5.2087,-5.1548,-5.1471,-5.1279,-5.0789,-5.0712,-5.0712,-5.0712,-5.0712,-5.0712,-5.0712,-5.0712,-5.0712,-5.0712,-5.0712,-5.0712,-5.0712,-5.0712,-5.0712,-5.0712,-5.0712,-5.0712,-5.0712,-5.0712,-5.0712,-5.0712,-5.151,-5.2192,-5.2741,-5.3933,-5.478,-3.0943,-3.2995,-3.5306,-3.6159,-3.8897,-4.2277,-4.5624,-4.6663,-4.7586,-5.0087,-5.0164,-4.9894,-5.0125,0.0,0.0,0.0,0.0,0.0,0.0,0.0,0.0,0.0,0.0,0.0,0.0,0.0,0.0,0.0,0.0,0.0,0.0,0.0,0.0,0.0,0.0,0.0,-6.0781,-6.0781,-6.0781,-6.0781,-6.0781,-6.0781,-6.0781,-6.0781,-6.0781,-6.0781,-6.0781,-6.0781,-6.0781,-6.0781,-6.0781,-6.0781,-6.0781,-6.0781,-6.0704,-5.9819,-5.9011,-5.8165,-5.7291,-5.6445,-5.5703,-5.5703,-5.5703,-5.5703,-5.5703,-5.5703,-5.5703,-5.5703,-5.5703,-5.5703,-5.5703,-5.5703,-5.5703,-5.5703,-5.5703,-5.5549,-5.5011,-5.4664,-5.4318,-5.3741,-5.3395,-5.301,-5.2423,-5.2077,-5.1692,-5.1164,-5.0856,-5.0712,-5.0712,-5.0712,-5.0712,-5.0712,-5.0712,-5.0712,-5.0712,-5.0712,-5.0712,-5.0712,-5.0712,-5.0712,-5.0712,-5.0712,-5.0712,-5.0712,-5.0712,-5.0827,-5.1087,-5.1895,-5.2779,-5.3626,-5.4472,-5.5164,-3.2882,-3.3848,-3.545,-3.6848,-3.8907,-4.1901,-4.6971,-4.7509,-4.8115,-5.2356,-5.1895,-5.0971,-5.1769,0.0,0.0,0.0,0.0,0.0,0.0,0.0,0.0,0.0,0.0,0.0,0.0,0.0,0.0,0.0,0.0,0.0,0.0,0.0,0.0,0.0,0.0,0.0,-6.0781,-6.0781,-6.0781,-6.0781,-6.0781,-6.0781,-6.0781,-6.0781,-6.0781,-6.0781,-6.0781,-6.0781,-6.0781,-6.0781,-6.0781,-6.0781,-6.0781,-6.0781,-6.0704,-5.9819,-5.9011,-5.8165,-5.733,-5.6445,-5.5703,-5.5703,-5.5703,-5.5703,-5.5703,-5.5703,-5.5703,-5.5703,-5.5703,-5.5703,-5.5703,-5.5703,-5.5703,-5.5703,-5.5703,-5.5703,-5.5703,-5.5049,-5.4511,-5.4511,-5.3818,-5.3241,-5.3203,-5.25,-5.1923,-5.1885,-5.1202,-5.0712,-5.0712,-5.0712,-5.0712,-5.0712,-5.0712,-5.0712,-5.0712,-5.0712,-5.0712,-5.0712,-5.0712,-5.0712,-5.0712,-5.0712,-5.0712,-5.0712,-5.0712,-5.1087,-5.1885,-5.2779,-5.3664,-5.4511,-5.5318,-5.5703,-3.2169,-3.4103,-3.6581,-3.804,-4.2143,-4.6547,-4.9279,-4.974,-5.0587,-5.4203,-5.4126,-5.3433,-5.3664,0.0,0.0,0.0,0.0,0.0,0.0,0.0,0.0,0.0,0.0,0.0,0.0,0.0,0.0,0.0,0.0,0.0,0.0,0.0,0.0,0.0,0.0,0.0,-6.0781,-6.0781,-6.0781,-6.0781,-6.0781,-6.0781,-6.0781,-6.0781,-6.0781,-6.0781,-6.0781,-6.0781,-6.0781,-6.0781,-6.0781,-6.0781,-6.0781,-6.0781,-6.0781,-6.0512,-5.9511,-5.828,-5.8011,-5.6934,-5.5703,-5.5703,-5.5703,-5.5703,-5.5703,-5.5703,-5.5703,-5.5703,-5.5703,-5.5703,-5.5703,-5.5703,-5.5703,-5.5703,-5.5703,-5.5703,-5.5703,-5.5511,-5.5318,-5.5318,-5.5126,-5.478,-5.4203,-5.3895,-5.3318,-5.2077,-5.1692,-5.1356,-5.0789,-5.0712,-5.0712,-5.0712,-5.0712,-5.0712,-5.0712,-5.0712,-5.0712,-5.0712,-5.0712,-5.0712,-5.0712,-5.0712,-5.0712,-5.0712,-5.1279,-5.1654,-5.1885,-5.3395,-5.4241,-5.4511,-5.5318,-5.5703,-3.4054,-3.6318,-3.8912,-4.0698,-4.4541,-4.8642,-5.1528,0.0,0.0,0.0,-5.5049,-5.4511,0.0,0.0,0.0,0.0,0.0,0.0,0.0,0.0,0.0,0.0,0.0,0.0,0.0,0.0,0.0,0.0,0.0,0.0,0.0,0.0,0.0,0.0,0.0,0.0,-6.0781,-6.0781,-6.0627,-6.0281,-6.0627,-6.0627,-6.0281,-6.0627,-6.0781,-6.0781,-6.0435,-6.0281,-6.0242,-5.9935,-6.0012,-6.0281,-6.0281,-6.0281,-6.0281,-6.0281,-5.9204,-5.778,-5.778,-5.6857,-5.5703,-5.5703,-5.5703,-5.5703,-5.5703,-5.5703,-5.5703,-5.5703,-5.5703,-5.5703,-5.5703,-5.5703,-5.5703,-5.5703,-5.5703,-5.5703,-5.5703,-5.5703,-5.5703,-5.5703,-5.5703,-5.5549,-5.5049,-5.4703,-5.4126,-5.3087,-5.2346,-5.1625,-5.0789,-5.0712,-5.0712,-5.0712,-5.0712,-5.0712,-5.0712,-5.0712,-5.0712,-5.0712,-5.0712,-5.0818,-5.1164,-5.0856,-5.0712,-5.0712,-5.151,-5.2077,-5.2423,-5.3818,-5.4664,-5.4972,-5.5472,-5.5703,-3.7106,-3.9319,-4.1629,-4.402,-4.6339,0.0,-5.358,-5.5143,-5.5703,-5.5703,0.0,0.0,0.0,0.0,0.0,0.0,0.0,0.0,0.0,0.0,0.0,0.0,0.0,0.0,0.0,0.0,0.0,0.0,0.0,0.0,0.0,0.0,0.0,0.0,0.0,0.0,-6.055,-6.055,-6.0165,0.0,-6.0204,-6.0165,-5.9435,-6.0358,-6.0742,-6.0627,-5.9781,-5.9396,-5.9319,-5.8588,-5.8742,-5.9396,-5.9396,-5.9396,-5.9396,-5.9396,-5.8396,-5.6983,-5.6983,-5.6445,-5.5703,-5.5703,-5.5703,-5.5703,-5.5703,-5.5703,-5.5703,-5.5703,-5.5703,-5.5703,-5.5703,-5.5703,-5.5703,-5.5703,-5.5703,-5.5703,-5.5703,-5.5703,-5.5703,-5.5703,-5.5703,-5.5703,-5.5703,-5.5088,-5.4587,-5.4511,-5.301,-5.1664,-5.101,-5.0789,-5.075,-5.0789,-5.075,-5.0712,-5.0712,-5.0789,-5.0827,-5.0827,-5.0866,-5.1241,-5.2,-5.1241,-5.0866,-5.0943,-5.1741,-5.2538,-5.3318,-5.4203,-5.4972,-5.5703,-5.5703,-5.5703,-3.4708,-3.7401,0.0,-4.4133,-4.8504,-5.2489,-5.4498,-5.5343,-5.5703,-5.5703,0.0,0.0,0.0,0.0,0.0,0.0,0.0,0.0,0.0,0.0,0.0,0.0,0.0,0.0,0.0,0.0,0.0,0.0,0.0,0.0,0.0,0.0,0.0,0.0,0.0,-5.8858,-5.8858,-5.8858,-5.8742,0.0,-5.8742,-5.8742,-5.8627,-6.0127,-6.0435,-5.9742,-5.8896,-5.855,-5.855,-5.8357,-5.8396,-5.855,-5.855,-5.855,-5.855,-5.855,-5.7896,-5.6983,-5.6983,-5.6445,-5.5703,-5.5703,-5.5703,-5.5703,-5.5703,-5.5703,-5.5703,-5.5703,-5.5703,-5.5703,-5.5703,-5.5703,-5.5703,-5.5703,-5.5703,-5.5703,-5.5703,-5.5703,-5.5703,-5.5703,-5.5703,-5.5703,-5.5703,-5.5549,-5.5241,-5.4587,-5.301,-5.2077,-5.2587,-5.151,-5.0933,-5.1587,-5.1087,-5.0712,-5.0712,-5.1279,-5.1654,-5.1654,-5.2279,-5.2741,-5.2933,-5.2087,-5.1972,-5.2664,-5.351,-5.4049,-5.4203,-5.5049,-5.5511,-5.5703,-5.5703,-5.5703,-3.5279,0.0,0.0,-4.6468,0.0,-5.2669,-5.3908,-5.4828,-5.5411,0.0,0.0,0.0,0.0,0.0,0.0,0.0,0.0,0.0,0.0,0.0,0.0,0.0,0.0,0.0,0.0,0.0,0.0,0.0,0.0,0.0,0.0,0.0,0.0,0.0,-5.8319,-5.8319,-5.8319,-5.8319,-5.8088,-5.7665,-5.8088,-5.8319,-5.8319,-5.9204,-5.9358,-5.8896,-5.805,-5.7665,-5.7665,-5.7242,-5.728,-5.7665,-5.7665,-5.7665,-5.7665,-5.7665,-5.7126,-5.6368,-5.6368,-5.6088,-5.5703,-5.5703,-5.5703,-5.5703,-5.5703,-5.5703,-5.5703,-5.5703,-5.5703,-5.5703,-5.5703,-5.5703,-5.5703,-5.5703,-5.5703,-5.5703,-5.5703,-5.5703,-5.5703,-5.5703,-5.5703,-5.5703,-5.5703,-5.5703,-5.5434,-5.4626,-5.3741,-5.3164,-5.3203,-5.2433,-5.2049,-5.2462,-5.2164,-5.1895,-5.1895,-5.2279,-5.25,-5.25,-5.2972,-5.3395,-5.3818,-5.3395,-5.3164,-5.3203,-5.4049,-5.4511,-5.4511,-5.5318,-5.5703,-5.5703,-5.5703,-5.5703,-3.5504,0.0,-4.3766,-4.8644,-5.0641,0.0,-5.2645,-5.387,0.0,0.0,0.0,0.0,0.0,0.0,0.0,0.0,0.0,0.0,0.0,0.0,0.0,0.0,0.0,0.0,0.0,0.0,0.0,0.0,0.0,0.0,0.0,0.0,-5.7088,-5.7819,-5.7857,-5.7857,-5.7857,-5.7857,-5.7473,-5.6791,-5.7511,-5.7857,-5.7857,-5.7857,-5.7934,-5.805,-5.7126,-5.6791,-5.6714,-5.6011,-5.6126,-5.6791,-5.6791,-5.6791,-5.6791,-5.6791,-5.6329,-5.5703,-5.5703,-5.5703,-5.5703,-5.5703,-5.5703,-5.5703,-5.5703,-5.5703,-5.5703,-5.5703,-5.5703,-5.5703,-5.5703,-5.5703,-5.5703,-5.5703,-5.5703,-5.5703,-5.5703,-5.5703,-5.5703,-5.5703,-5.5703,-5.5703,-5.5703,-5.5703,-5.5472,-5.4818,-5.4587,-5.428,-5.3703,-5.3395,-5.328,-5.3395,-5.328,-5.3203,-5.3203,-5.3356,-5.3433,-5.3433,-5.3549,-5.3933,-5.4664,-5.4703,-5.4357,-5.3664,-5.4357,-5.4703,-5.4703,-5.5395,-5.5703,-5.5703,-5.5703,-5.5703,-3.0882,0.0,-4.2925,0.0,-4.9937,-5.1361,0.0,0.0,0.0,0.0,0.0,0.0,0.0,0.0,0.0,0.0,0.0,0.0,0.0,0.0,0.0,0.0,0.0,0.0,0.0,0.0,0.0,0.0,0.0,0.0,0.0,-5.5857,-5.5934,-5.6049,-5.6049,-5.6049,-5.6049,-5.6049,-5.5972,-5.5857,-5.5972,-5.6049,-5.6049,-5.6049,-5.6472,-5.7137,-5.6242,-5.5857,-5.5857,-5.5742,-5.578,-5.5857,-5.5857,-5.5857,-5.5857,-5.5857,-5.578,-5.5703,-5.5703,-5.5703,-5.5703,-5.5703,-5.5703,-5.5703,-5.5703,-5.5703,-5.5703,-5.5703,-5.5703,-5.5703,-5.5703,-5.5703,-5.5703,-5.5703,-5.5703,-5.5703,-5.5703,-5.5703,-5.5703,-5.5703,-5.5703,-5.5703,-5.5703,-5.5703,-5.5665,-5.5549,-5.4934,-5.4703,-5.528,-5.4087,-5.351,-5.4241,-5.3664,-5.3203,-5.3203,-5.3895,-5.4318,-5.4318,-5.4972,-5.5434,-5.5511,-5.5549,-5.5472,-5.5357,-5.5472,-5.5549,-5.5549,-5.5665,-5.5703,-5.5703,-5.5703,-5.5703,-3.3073,-3.7749,-4.2364,0.0,-4.8617,-4.9807,-5.0514,0.0,0.0,0.0,0.0,0.0,0.0,0.0,0.0,0.0,0.0,0.0,0.0,0.0,0.0,0.0,0.0,0.0,0.0,0.0,0.0,0.0,0.0,0.0,-5.5703,-5.5703,-5.5703,-5.5703,-5.5703,-5.5703,-5.5703,-5.5703,-5.5703,-5.5703,-5.5703,-5.5703,-5.5703,-5.5703,-5.5895,-5.6252,-5.5857,-5.5703,-5.5703,-5.5703,-5.5703,-5.5703,-5.5703,-5.5703,-5.5703,-5.5703,-5.5703,-5.5703,-5.5703,-5.5703,-5.5703,-5.5703,-5.5703,-5.5703,-5.5703,-5.5703,-5.5703,-5.5703,-5.5703,-5.5703,-5.5703,-5.5703,-5.5703,-5.5703,-5.5703,-5.5703,-5.5703,-5.5703,-5.5703,-5.5703,-5.5703,-5.5703,-5.5703,-5.5703,-5.5703,-5.5703,-5.5395,-5.528,-5.5665,-5.5049,-5.4741,-5.5126,-5.4818,-5.4587,-5.4587,-5.4934,-5.5164,-5.5164,-5.5511,-5.5703,-5.5703,-5.5703,-5.5703,-5.5703,-5.5703,-5.5703,-5.5703,-5.5703,-5.5703,-5.5703,-5.5703,-5.5703,-3.4151,-3.7404,-3.9994,-4.4471,-4.6415,-4.7627,0.0,0.0,0.0,0.0,0.0,0.0,0.0,0.0,0.0,0.0,0.0,0.0,0.0,0.0,0.0,0.0,0.0,0.0,0.0,0.0,0.0,0.0,0.0,0.0,-5.5703,-5.5703,-5.5703,-5.5703,-5.5703,-5.5703,-5.5703,-5.5703,-5.5703,-5.5703,-5.5703,-5.5703,-5.5703,-5.5703,-5.5703,-5.5703,-5.5703,-5.5703,-5.5703,-5.5703,-5.5703,-5.5703,-5.5703,-5.5703,-5.5703,-5.5703,-5.5703,-5.5703,-5.5703,-5.5703,-5.5703,-5.5703,-5.5703,-5.5703,-5.5703,-5.5703,-5.5703,-5.5703,-5.5703,-5.5703,-5.5703,-5.5703,-5.5703,-5.5703,-5.5703,-5.5703,-5.5703,-5.5703,-5.5703,-5.5703,-5.5703,-5.5703,-5.5703,-5.5703,-5.5703,-5.5703,-5.5703,-5.5703,-5.5703,-5.5703,-5.5703,-5.5703,-5.5703,-5.5703,-5.5703,-5.5703,-5.5703,-5.5703,-5.5703,-5.5703,-5.5703,-5.5703,-5.5703,-5.5703,-5.5703,-5.5703,-5.5703,-5.5703,-5.5703,-5.5703,-5.5703,-5.5703,-3.0368,-3.2375,-3.438,-3.9994,-4.2887,0.0,0.0,0.0,0.0,0.0,0.0,0.0,0.0,0.0,0.0,0.0,0.0,0.0,0.0,0.0,0.0,0.0,0.0,0.0,0.0,0.0,0.0,0.0,0.0,0.0,-5.5703,-5.5703,-5.5703,-5.5703,-5.5703,-5.5703,-5.5703,-5.5703,-5.5703,-5.5703,-5.5703,-5.5703,-5.5703,-5.5703,-5.5703,-5.5703,-5.5703,-5.5703,-5.5703,-5.5703,-5.5703,-5.5703,-5.5703,-5.5703,-5.5703,-5.5703,-5.5703,-5.5703,-5.5703,-5.5703,-5.5703,-5.5703,-5.5703,-5.5703,-5.5703,-5.5703,-5.5703,-5.5703,-5.5703,-5.5703,-5.5703,-5.5703,-5.5703,-5.5703,-5.5703,-5.5703,-5.5703,-5.5703,-5.5703,-5.5703,-5.5703,-5.5703,-5.5703,-5.5703,-5.5703,-5.5703,-5.5703,-5.5703,-5.5703,-5.5703,-5.5703,-5.5703,-5.5703,-5.5703,-5.5703,-5.5703,-5.5703,-5.5703,-5.5703,-5.5703,-5.5703,-5.5703,-5.5703,-5.5703,-5.5703,-5.5703,-5.5703,-5.5703,-5.5703,-5.5703,-5.5703,-5.5703,-2.8962,-3.1188,0.0,-3.7734,-4.0504,0.0,0.0,0.0,0.0,0.0,0.0,0.0,0.0,0.0,0.0,0.0,0.0,0.0,0.0,0.0,0.0,0.0,0.0,0.0,0.0,0.0,0.0,0.0,0.0,0.0,-5.4895,-5.4934,-5.5164,-5.5665,-5.5703,-5.5703,-5.5703,-5.5703,-5.5703,-5.5703,-5.5703,-5.5703,-5.5703,-5.5703,-5.5703,-5.5703,-5.5703,-5.5703,-5.5703,-5.5703,-5.5703,-5.5703,-5.5703,-5.5703,-5.5703,-5.5703,-5.5703,-5.5703,-5.5703,-5.5703,-5.5703,-5.5703,-5.5703,-5.5703,-5.5703,-5.5703,-5.5703,-5.5703,-5.5703,-5.5703,-5.5703,-5.5703,-5.5703,-5.5703,-5.5703,-5.5703,-5.5703,-5.5703,-5.5703,-5.5703,-5.5703,-5.5703,-5.5703,-5.5703,-5.5703,-5.5703,-5.5703,-5.5703,-5.5703,-5.5703,-5.5703,-5.5703,-5.5703,-5.5703,-5.5703,-5.5703,-5.5703,-5.5703,-5.5703,-5.5703,-5.5703,-5.5703,-5.5703,-5.5703,-5.5703,-5.5703,-5.5703,-5.5703,-5.5703,-5.5703,-5.5703,-5.5703,-2.7346,-2.9365,0.0,0.0,0.0,0.0,0.0,0.0,0.0,0.0,0.0,0.0,0.0,0.0,0.0,0.0,0.0,0.0,0.0,0.0,0.0,0.0,0.0,0.0,0.0,0.0,0.0,0.0,0.0,0.0,-5.4049,-5.4049,-5.4434,-5.528,-5.5549,-5.5703,-5.5703,-5.5703,-5.5703,-5.5703,-5.5703,-5.5703,-5.5703,-5.5703,-5.5703,-5.5703,-5.5703,-5.5703,-5.5703,-5.5703,-5.5703,-5.5703,-5.5703,-5.5703,-5.5703,-5.5703,-5.5703,-5.5703,-5.5703,-5.5703,-5.5703,-5.5703,-5.5703,-5.5703,-5.5703,-5.5703,-5.5703,-5.5703,-5.5895,-5.6137,-5.6137,-5.6357,-5.6588,-5.6588,-5.6588,-5.6588,-5.6588,-5.6126,-5.5703,-5.5703,-5.5703,-5.5703,-5.5703,-5.5703,-5.5703,-5.5703,-5.5703,-5.5703,-5.5703,-5.5703,-5.5703,-5.5703,-5.5703,-5.5703,-5.5703,-5.5703,-5.5703,-5.5703,-5.5703,-5.5703,-5.5703,-5.5703,-5.5703,-5.5703,-5.5703,-5.5703,-5.5703,-5.5703,-5.5703,-5.5703,-5.5703,-5.5703,0.0,0.0,0.0,0.0,0.0,0.0,0.0,0.0,0.0,0.0,0.0,0.0,0.0,0.0,0.0,0.0,0.0,0.0,0.0,0.0,0.0,0.0,0.0,0.0,0.0,0.0,0.0,0.0,0.0,-5.27,-5.3133,-5.3192,-5.3587,-5.4472,-5.5241,-5.5665,-5.5703,-5.5703,-5.5703,-5.5703,-5.5703,-5.5703,-5.5703,-5.5703,-5.5703,-5.5703,-5.5703,-5.5703,-5.5703,-5.5703,-5.5703,-5.5703,-5.5703,-5.5703,-5.5703,-5.5703,-5.5703,-5.5703,-5.5703,-5.5703,-5.5703,-5.5703,-5.5703,-5.5703,-5.5703,-5.5703,-5.5742,-5.5742,-5.6368,-5.706,-5.706,-5.7665,-5.8319,-5.8319,-5.8319,-5.8319,-5.8319,-5.6973,-5.578,-5.578,-5.578,-5.578,-5.578,-5.578,-5.578,-5.578,-5.5742,-5.5742,-5.5742,-5.5703,-5.5703,-5.5703,-5.5703,-5.5703,-5.5703,-5.5703,-5.5703,-5.5703,-5.5703,-5.5703,-5.5703,-5.5703,-5.5703,-5.5703,-5.5703,-5.5703,-5.5703,-5.5703,-5.5703,-5.5703,-5.5703,-5.5703,-2.5411,0.0,0.0,0.0,0.0,0.0,0.0,0.0,0.0,0.0,0.0,0.0,0.0,0.0,0.0,0.0,0.0,0.0,0.0,0.0,0.0,0.0,0.0,0.0,0.0,0.0,0.0,0.0,-5.0354,-5.0783,-5.177,-5.2713,-5.3587,-5.4472,-5.4703,-5.5126,-5.5703,-5.5703,-5.5703,-5.5703,-5.5703,-5.5703,-5.5703,-5.5703,-5.5703,-5.5703,-5.5703,-5.5703,-5.5703,-5.5703,-5.5703,-5.5703,-5.5703,-5.5703,-5.5703,-5.5703,-5.5703,-5.5703,-5.5703,-5.5703,-5.5703,-5.5703,-5.5703,-5.5703,-5.5703,-5.6126,-5.6637,-5.6637,-5.728,-5.7934,-5.7934,-5.8127,-5.8319,-5.8319,-5.8319,-5.8319,-5.8319,-5.7934,-5.7588,-5.7588,-5.7588,-5.7588,-5.7588,-5.7588,-5.7588,-5.7588,-5.7049,-5.6637,-5.6637,-5.6088,-5.5703,-5.5703,-5.5703,-5.5703,-5.5703,-5.5703,-5.5703,-5.5703,-5.5703,-5.5703,-5.5703,-5.5703,-5.5703,-5.5703,-5.5703,-5.5703,-5.5703,-5.5703,-5.5703,-5.5703,-5.5703,-5.5703,-2.666,-2.7578,-2.8962,0.0,0.0,0.0,0.0,0.0,0.0,0.0,0.0,0.0,0.0,0.0,0.0,0.0,0.0,0.0,0.0,0.0,0.0,0.0,0.0,0.0,0.0,0.0,0.0,0.0,-4.9249,-4.9692,-5.0747,-5.1698,-5.2579,-5.3385,-5.398,-5.4556,-5.5203,-5.5511,-5.5703,-5.5703,-5.5703,-5.5703,-5.5703,-5.5703,-5.5703,-5.5703,-5.5703,-5.5703,-5.5703,-5.5703,-5.5703,-5.5703,-5.5703,-5.5703,-5.5703,-5.5703,-5.5703,-5.5703,-5.5703,-5.5703,-5.5703,-5.5703,-5.5703,-5.5703,-5.5703,-5.6329,-5.6983,-5.6983,-5.7857,-5.8896,-5.9242,-5.9358,-5.9358,-5.9358,-5.9358,-5.9358,-5.9358,-5.9358,-5.9127,-5.8434,-5.8319,-5.8319,-5.8319,-5.8319,-5.8319,-5.8319,-5.7857,-5.755,-5.755,-5.678,-5.6252,-5.6252,-5.5934,-5.5703,-5.5703,-5.5703,-5.5703,-5.5703,-5.5703,-5.5703,-5.5703,-5.5703,-5.5703,-5.5703,-5.5703,-5.5703,-5.5703,-5.5703,-5.5703,-5.5703,-5.5703,-5.5703,-2.8925,-2.9365,-3.076,-3.2032,0.0,0.0,-3.5973,-3.5385,0.0,0.0,0.0,0.0,0.0,0.0,0.0,0.0,0.0,0.0,0.0,0.0,0.0,0.0,0.0,0.0,0.0,0.0,-4.8458,-4.8813,-4.8861,-4.9218,-4.9936,-5.0434,-5.1051,-5.1834,-5.313,-5.4023,-5.4511,-5.528,-5.5703,-5.5703,-5.5703,-5.5703,-5.5703,-5.5703,-5.5703,-5.5703,-5.5703,-5.5703,-5.5703,-5.5703,-5.5703,-5.5703,-5.5703,-5.5703,-5.5703,-5.5703,-5.5703,-5.5703,-5.5703,-5.5703,-5.5703,-5.5703,-5.5703,-5.5703,-5.5703,-5.6368,-5.7176,-5.7368,-5.8511,-5.9819,-6.0589,-6.0781,-6.0781,-6.0781,-6.0781,-6.0781,-6.0781,-6.0781,-6.0358,-5.8858,-5.8588,-5.8588,-5.8588,-5.8588,-5.8588,-5.8588,-5.8511,-5.8434,-5.8434,-5.7665,-5.7137,-5.7137,-5.6357,-5.5818,-5.5818,-5.5742,-5.5703,-5.5703,-5.5703,-5.5703,-5.5703,-5.5703,-5.5703,-5.5703,-5.5703,-5.5703,-5.5703,-5.5703,-5.5703,-5.5703,-5.5703,-5.5703,-3.1971,-3.1885,-3.1885,-3.0895,0.0,0.0,0.0,-3.0467,0.0,0.0,0.0,0.0,0.0,0.0,0.0,0.0,0.0,0.0,0.0,0.0,0.0,0.0,0.0,0.0,0.0,0.0,-4.8344,-4.8402,-4.8709,-4.8961,-4.9123,-4.9824,-5.0621,-5.1391,-5.2686,-5.3727,-5.4472,-5.528,-5.5703,-5.5703,-5.5703,-5.5703,-5.5703,-5.5703,-5.5703,-5.5703,-5.5703,-5.5703,-5.5703,-5.5703,-5.5703,-5.5703,-5.5703,-5.5703,-5.5703,-5.5703,-5.5703,-5.5703,-5.5703,-5.5703,-5.5703,-5.5703,-5.5703,-5.5703,-5.5703,-5.678,-5.8319,-5.9665,-6.0281,-6.0589,-6.0742,-6.0781,-6.0781,-6.0781,-6.0781,-6.0781,-6.0781,-6.0781,-6.0704,-6.0358,-6.0319,-6.0319,-6.0319,-6.0319,-6.0319,-6.0319,-5.9704,-5.9281,-5.9281,-5.855,-5.805,-5.805,-5.728,-5.6753,-5.6753,-5.6088,-5.5703,-5.5703,-5.5703,-5.5703,-5.5703,-5.5703,-5.5703,-5.5703,-5.5703,-5.5703,-5.5703,-5.5703,-5.5703,-5.5703,-5.5703,-5.5703,-3.4344,-3.4124,-3.4247,-3.344,0.0,0.0,0.0,0.0,0.0,0.0,0.0,0.0,0.0,0.0,0.0,0.0,0.0,0.0,0.0,0.0,0.0,0.0,0.0,0.0,0.0,0.0,-4.7846,-4.8269,-4.8495,-4.8779,-4.9171,-4.9202,-4.9764,-5.0944,-5.204,-5.2992,-5.3857,-5.5088,-5.5703,-5.5703,-5.5703,-5.5703,-5.5703,-5.5703,-5.5703,-5.5703,-5.5703,-5.5703,-5.5703,-5.5703,-5.5703,-5.5703,-5.5703,-5.5703,-5.5703,-5.5703,-5.5703,-5.5703,-5.5703,-5.5703,-5.5703,-5.5703,-5.5703,-5.578,-5.6214,-5.755,-5.9165,-6.0435,-6.0781,-6.0781,-6.0781,-6.0781,-6.0781,-6.0781,-6.0781,-6.0781,-6.0781,-6.0781,-6.0781,-6.0781,-6.0781,-6.0781,-6.0781,-6.0781,-6.0781,-6.0781,-6.0435,-6.0165,-6.0165,-5.9435,-5.8896,-5.8896,-5.7742,-5.6983,-5.6983,-5.6214,-5.5703,-5.5703,-5.5703,-5.5703,-5.5703,-5.5703,-5.5703,-5.5703,-5.5703,-5.5703,-5.5703,-5.5703,-5.5703,-5.5703,-5.5703,-5.5703,0.0,0.0,0.0,0.0,0.0,-3.3146,0.0,0.0,0.0,-3.4321,0.0,0.0,0.0,0.0,0.0,0.0,0.0,0.0,0.0,0.0,0.0,0.0,0.0,0.0,0.0,0.0,-4.6636,-4.7755,-4.7572,-4.7846,-4.8971,-4.8635,-4.9043,-5.044,-5.1547,-5.2462,-5.3192,-5.4857,-5.5703,-5.5703,-5.5703,-5.5703,-5.5703,-5.5703,-5.5703,-5.5703,-5.5703,-5.5703,-5.5703,-5.5703,-5.5703,-5.5703,-5.5703,-5.5703,-5.5703,-5.5703,-5.5703,-5.5703,-5.5703,-5.5703,-5.5703,-5.5703,-5.5818,-5.6126,-5.7176,-5.8434,-5.9665,-6.055,-6.0781,-6.0781,-6.0781,-6.0781,-6.0781,-6.0781,-6.0781,-6.0781,-6.0781,-6.0781,-6.0781,-6.0781,-6.0781,-6.0781,-6.0781,-6.0781,-6.0781,-6.0781,-6.0781,-6.0781,-6.0781,-6.0204,-5.9742,-5.9742,-5.8396,-5.7484,-5.7484,-5.6703,-5.6203,-5.6203,-5.6203,-5.6203,-5.6203,-5.6203,-5.6126,-5.5934,-5.5934,-5.5857,-5.5703,-5.5703,-5.5703,-5.5703,-5.5703,-5.5703,0.0,0.0,0.0,0.0,-3.7074,0.0,0.0,0.0,-3.1849,-3.0161,0.0,0.0,0.0,0.0,0.0,0.0,0.0,0.0,0.0,0.0,0.0,0.0,0.0,0.0,0.0,0.0,0.0,-4.5993,-4.4856,-4.5019,-4.7242,-4.8303,-4.9075,-4.9617,-5.1521,-5.2738,-5.3192,-5.4857,-5.5703,-5.5703,-5.5703,-5.5703,-5.5703,-5.5703,-5.5703,-5.5703,-5.5703,-5.5703,-5.5703,-5.5703,-5.5703,-5.5703,-5.5703,-5.5703,-5.5703,-5.5703,-5.5703,-5.5703,-5.5703,-5.5703,-5.5703,-5.5703,-5.6214,-5.7137,-5.8742,-5.9358,-5.9665,-6.055,-6.0781,-6.0781,-6.0781,-6.0781,-6.0781,-6.0781,-6.0781,-6.0781,-6.0781,-6.0781,-6.0781,-6.0781,-6.0781,-6.0781,-6.0781,-6.0781,-6.0781,-6.0781,-6.0781,-6.0781,-6.0781,-6.0704,-6.0666,-6.0666,-5.9781,-5.9204,-5.9204,-5.8473,-5.8011,-5.8011,-5.8011,-5.8011,-5.8011,-5.8011,-5.7627,-5.6868,-5.6868,-5.6483,-5.5703,-5.5703,-5.5703,-5.5703,-5.5703,-5.5703,0.0,0.0,0.0,0.0,0.0,0.0,-3.1678,0.0,-3.1188,0.0,0.0,0.0,0.0,0.0,0.0,0.0,0.0,0.0,0.0,0.0,0.0,0.0,0.0,0.0,0.0,0.0,0.0,0.0,0.0,-4.3965,-4.6621,-4.744,-4.8481,-4.9794,-5.0709,-5.1736,-5.285,-5.3798,-5.46,-5.5363,-5.5363,-5.5363,-5.5363,-5.5363,-5.5363,-5.5363,-5.5363,-5.547,-5.5703,-5.5703,-5.5703,-5.5703,-5.5703,-5.5703,-5.5703,-5.5703,-5.6011,-5.6445,-5.6445,-5.678,-5.7203,-5.7203,-5.778,-5.8588,-5.9281,-5.9858,-6.0319,-6.0704,-6.0781,-6.0781,-6.0781,-6.0781,-6.0781,-6.0781,-6.0781,-6.0781,-6.0781,-6.0781,-6.0781,-6.0781,-6.0781,-6.0781,-6.0781,-6.0781,-6.0781,-6.0781,-6.0781,-6.0781,-6.0781,-6.0781,-6.0781,-6.0781,-6.0012,-5.9511,-5.9511,-5.8781,-5.8319,-5.8319,-5.8319,-5.8319,-5.8319,-5.8319,-5.8127,-5.7742,-5.7742,-5.7319,-5.6445,-5.6445,-5.6214,-5.5703,-5.5703,-5.5703,-4.2526,0.0,0.0,0.0,0.0,0.0,0.0,0.0,0.0,0.0,0.0,0.0,0.0,0.0,0.0,0.0,0.0,0.0,0.0,0.0,0.0,0.0,0.0,0.0,0.0,0.0,0.0,0.0,0.0,0.0,-4.5811,-4.6486,-4.7667,-4.969,-5.0043,-5.0917,-5.242,-5.2937,-5.3785,-5.4919,-5.4919,-5.4919,-5.4919,-5.4919,-5.4919,-5.4919,-5.4919,-5.5173,-5.5543,-5.5543,-5.5599,-5.5703,-5.5703,-5.5703,-5.5742,-5.5972,-5.6445,-5.7022,-5.7291,-5.778,-5.8357,-5.855,-5.9011,-5.955,-5.9781,-6.0281,-6.0781,-6.0781,-6.0781,-6.0781,-6.0781,-6.0781,-6.0781,-6.0781,-6.0781,-6.0781,-6.0781,-6.0781,-6.0781,-6.0781,-6.0781,-6.0781,-6.0781,-6.0781,-6.0781,-6.0781,-6.0781,-6.0781,-6.0781,-6.0781,-6.0781,-6.0781,-6.0242,-5.9858,-5.9858,-5.9319,-5.8973,-5.8973,-5.8973,-5.8973,-5.8973,-5.8973,-5.8858,-5.8627,-5.8627,-5.8204,-5.7368,-5.7368,-5.7011,-5.6395,-5.5934,-5.5703,0.0,0.0,0.0,-3.7955,0.0,0.0,0.0,0.0,-3.3697,0.0,0.0,0.0,0.0,0.0,-3.4087,-3.1788,0.0,0.0,0.0,0.0,0.0,0.0,0.0,0.0,0.0,0.0,0.0,0.0,0.0,0.0,-4.4469,-4.5516,-4.6871,-4.8874,-4.9769,-5.0771,-5.2024,-5.2802,-5.3632,-5.45,-5.45,-5.45,-5.45,-5.45,-5.45,-5.45,-5.45,-5.4745,-5.5134,-5.5134,-5.5363,-5.5703,-5.5703,-5.5703,-5.578,-5.6637,-5.6983,-5.7137,-5.7973,-5.828,-5.8434,-5.9204,-5.9473,-5.9665,-6.0512,-6.0781,-6.0781,-6.0781,-6.0781,-6.0781,-6.0781,-6.0781,-6.0781,-6.0781,-6.0781,-6.0781,-6.0781,-6.0781,-6.0781,-6.0781,-6.0781,-6.0781,-6.0781,-6.0781,-6.0781,-6.0781,-6.0781,-6.0781,-6.0781,-6.0781,-6.0781,-6.0781,-6.0781,-6.0742,-6.0742,-6.0742,-6.0704,-6.0704,-6.0704,-6.0704,-6.0704,-6.0704,-6.0319,-5.9473,-5.9473,-5.905,-5.828,-5.828,-5.8242,-5.8165,-5.6472,-5.5703,0.0,0.0,-4.704,-4.1625,0.0,0.0,0.0,0.0,0.0,0.0,0.0,0.0,0.0,0.0,-3.4564,-3.322,-3.2302,0.0,0.0,0.0,0.0,0.0,0.0,0.0,0.0,0.0,0.0,0.0,0.0,0.0,0.0,-4.5149,-4.6595,-4.8058,-4.8658,-4.9767,-5.1507,-5.16,-5.2419,-5.4031,-5.4031,-5.4031,-5.4031,-5.4031,-5.4031,-5.4031,-5.4031,-5.4288,-5.4701,-5.4701,-5.4933,-5.5287,-5.5287,-5.5803,-5.6599,-5.6907,-5.7368,-5.805,-5.9473,-5.9935,-6.0012,-6.0281,-6.0358,-6.0435,-6.0704,-6.0781,-6.0781,-6.0781,-6.0781,-6.0781,-6.0781,-6.0781,-6.0781,-6.0781,-6.0781,-6.0781,-6.0781,-6.0781,-6.0781,-6.0781,-6.0781,-6.0781,-6.0781,-6.0781,-6.0781,-6.0781,-6.0781,-6.0781,-6.0781,-6.0781,-6.0781,-6.0781,-6.0781,-6.0781,-6.0781,-6.0781,-6.0781,-6.0781,-6.0781,-6.0781,-6.0781,-6.0781,-6.0666,-6.0358,-6.0358,-5.9935,-5.9088,-5.9088,-5.8819,-5.828,-5.7703,-5.7126,-4.8086,-4.8783,0.0,-4.4232,-4.2543,0.0,-3.6523,0.0,0.0,0.0,0.0,0.0,0.0,0.0,-3.5642,-3.4835,-3.3073,-3.0797,0.0,0.0,0.0,0.0,0.0,0.0,0.0,0.0,-3.394,-3.6523,0.0,0.0,0.0,0.0,-4.5806,-4.7433,-4.8034,-4.9194,-5.1083,-5.0925,-5.1755,-5.3585,-5.3585,-5.3585,-5.3585,-5.3585,-5.3585,-5.3585,-5.3585,-5.3851,-5.4255,-5.4255,-5.4594,-5.5107,-5.5426,-5.6128,-5.706,-5.7368,-5.8204,-5.9358,-6.0435,-6.0781,-6.0781,-6.0781,-6.0781,-6.0781,-6.0781,-6.0781,-6.0781,-6.0781,-6.0781,-6.0781,-6.0781,-6.0781,-6.0781,-6.0781,-6.0781,-6.0781,-6.0781,-6.0781,-6.0781,-6.0781,-6.0781,-6.0781,-6.0781,-6.0781,-6.0781,-6.0781,-6.0781,-6.0781,-6.0781,-6.0781,-6.0781,-6.0781,-6.0781,-6.0781,-6.0781,-6.0781,-6.0781,-6.0781,-6.0781,-6.0781,-6.0781,-6.0781,-6.0781,-6.0781,-6.0781,-6.0512,-5.9973,-5.9973,-5.9704,-5.9204,-5.9204,-5.8704]},{"header":{"parameterUnit":"m.s-1","parameterCategory":1,"la1":30.6,"la2":29.2853,"lo1":-89.7004,"lo2":-87.6739,"dy":0.0162,"dx":0.0183,"nx":112,"ny":82,"refTime":"2026-05-06T00:00:00:Z","depth":0,"parameterNumber":3,"parameterNumberName":"V-component_of_WINDS"},"data":[0.0,0.0,0.0,0.0,0.0,0.0,0.0,0.0,0.0,0.0,0.0,0.0,0.0,0.0,0.0,0.0,0.0,0.0,0.0,0.0,0.0,0.0,0.0,0.0,0.0,0.0,0.0,0.0,0.0,0.0,0.0,0.0,0.0,0.0,0.0,0.0,0.0,0.0,0.0,0.0,0.0,0.0,0.0,0.0,0.0,0.0,0.0,0.0,0.0,0.0,0.0,0.0,0.0,0.0,0.0,0.0,0.0,0.0,0.0,0.0,0.0,0.0,0.0,0.0,0.0,0.0,0.0,0.0,0.0,0.0,0.0,0.0,0.0,0.0,0.0,0.0,0.0,0.0,0.0,0.0,0.0,0.0,0.0,0.0,0.0,0.0,0.0,0.0,0.0,0.0,0.0,0.7428,0.9271,1.0358,1.0044,0.9612,0.8771,0.7535,0.0,0.0,0.0,0.0,0.0,0.0,0.0,0.0,0.0,0.0,0.0,0.0,0.0,0.0,0.0,0.0,0.0,0.0,0.0,0.0,0.0,0.0,0.0,0.0,0.0,0.0,0.0,0.0,0.0,0.0,0.0,0.0,0.0,0.0,0.0,0.0,0.0,0.0,0.0,0.0,0.0,0.0,0.0,0.0,0.0,0.0,0.0,0.0,0.0,0.0,0.0,0.0,0.0,0.0,0.0,0.0,0.0,0.0,0.0,0.0,0.0,0.0,0.0,0.0,0.0,0.0,0.0,0.0,0.0,0.0,0.0,0.0,0.0,0.0,0.0,0.0,0.0,0.0,0.0,0.0,0.0,0.0,0.0,0.0,0.0,0.0,0.0,0.0,0.0,0.0,0.0,0.0,0.0,0.0,0.0,0.0,0.0,0.0,0.0,0.0,0.0,0.0,0.0,0.0,0.7432,0.9367,1.0044,1.0297,1.0249,0.9483,0.8594,0.7624,0.0,0.0,0.0,0.0,0.0,0.0,0.0,0.0,0.0,0.0,0.0,0.0,0.0,0.0,0.0,0.0,0.0,0.0,0.0,0.0,0.0,0.0,0.0,0.0,0.0,0.0,0.0,0.0,0.0,0.0,0.0,0.0,0.0,0.0,0.0,0.0,0.0,0.0,0.0,0.0,0.0,0.0,0.0,0.0,0.0,0.0,0.0,0.0,0.0,0.0,0.0,0.0,0.0,0.0,0.0,0.0,0.0,0.0,0.0,0.0,0.0,0.0,0.0,0.0,0.0,0.0,0.0,0.0,0.0,0.0,0.0,0.0,0.0,0.0,0.0,0.0,0.0,0.0,0.0,0.0,0.0,0.0,0.0,0.0,0.0,0.0,0.0,0.0,0.0,0.0,0.0,0.0,0.0,0.0,0.0,0.0,0.0,0.0,0.0,0.0,0.0,0.0,0.0,0.736,0.8269,0.9815,1.0051,1.0154,1.0154,0.935,0.8501,0.7658,0.6859,0.0,0.0,0.0,0.0,0.0,0.0,0.0,0.0,0.0,0.0,0.0,0.0,0.0,0.0,0.0,0.0,0.0,0.0,0.0,0.0,0.0,0.0,0.0,0.0,0.0,0.0,0.0,0.0,0.0,0.0,0.0,0.0,0.0,0.0,0.0,0.0,0.0,0.0,0.0,0.0,0.0,0.0,0.0,0.0,0.0,0.0,0.0,0.0,0.0,0.0,0.0,0.0,0.0,0.0,0.0,0.0,0.0,0.0,0.0,0.0,0.0,0.0,0.0,0.0,0.0,0.0,0.0,0.0,0.0,0.0,0.0,0.0,0.0,0.0,0.0,0.0,0.0,0.0,0.0,0.0,0.0,0.0,0.0,0.0,0.0,0.0,0.0,0.0,0.0,0.0,0.0,0.0,0.0,0.0,0.0,0.0,0.0,0.0,0.0,0.0,0.0,0.0,0.8354,0.8879,0.9876,0.9984,0.997,0.9936,0.9195,0.8425,0.7597,0.6648,0.0,0.0,0.0,0.0,0.0,0.0,0.0,0.0,0.0,0.0,0.0,0.0,0.0,0.0,0.0,0.0,0.0,0.0,0.0,0.0,0.0,0.0,0.0,0.0,0.0,0.0,0.0,0.0,0.0,0.0,0.0,0.0,0.0,0.0,0.0,0.0,0.0,0.0,0.0,0.0,0.0,0.0,0.0,0.0,0.0,0.0,0.0,0.0,0.0,0.0,0.0,0.0,0.0,0.0,0.0,0.0,0.0,0.0,0.0,0.0,0.0,0.0,0.0,0.0,0.0,0.0,0.0,0.0,0.0,0.0,0.0,0.0,0.0,0.0,0.0,0.0,0.0,0.0,0.0,0.0,0.0,0.0,0.0,0.0,0.0,0.0,0.0,0.0,0.0,0.0,0.0,0.0,0.0,0.0,0.0,0.0,0.0,0.0,0.0,0.0,0.0,0.0,0.8456,0.934,0.9916,0.9984,0.993,0.9849,0.8906,0.8101,0.7473,0.619,0.0,0.0,0.0,0.0,0.0,0.0,0.0,0.0,0.0,0.0,0.0,0.0,0.0,0.0,0.0,0.0,0.0,0.0,0.0,0.0,0.0,0.0,0.0,0.0,0.0,0.0,0.0,0.0,0.0,0.0,0.0,0.0,0.0,0.0,0.0,0.0,0.0,0.0,0.0,0.0,0.0,0.0,0.0,0.0,0.0,0.0,0.0,0.0,0.0,0.0,0.0,0.0,0.0,0.0,0.0,0.0,0.0,0.0,0.0,0.0,0.0,0.0,0.0,0.0,0.0,0.0,0.0,0.0,0.0,0.0,0.0,0.0,0.0,0.0,0.0,0.0,0.0,0.0,0.0,0.0,0.0,0.0,0.0,0.0,0.0,0.0,0.0,0.0,0.0,0.0,0.0,0.0,0.0,0.0,0.0,0.0,0.0,0.0,0.0,0.0,0.0,0.0,0.7857,0.9001,0.0,0.9774,0.9754,0.9693,0.8988,0.8167,0.7285,0.0,0.0,0.0,0.0,0.0,0.0,0.0,0.0,0.0,0.0,0.0,0.0,0.0,0.0,0.0,0.0,0.0,0.0,0.0,0.0,0.0,0.0,0.0,0.0,0.0,0.0,0.0,0.0,0.0,0.0,0.0,0.0,0.0,0.0,0.0,0.0,0.0,0.0,0.0,0.0,0.0,0.0,0.0,0.0,0.0,0.0,0.0,0.0,0.0,0.0,0.0,0.0,0.0,0.0,0.0,0.0,0.0,0.0,0.0,0.0,0.0,0.0,0.0,0.0,0.0,0.0,0.0,0.0,0.0,0.0,0.0,0.0,0.0,0.0,0.0,0.0,0.0,0.0,0.0,0.0,0.0,0.0,0.0,0.0,0.0,0.0,0.0,0.0,0.0,0.0,0.0,0.0,0.0,0.0,0.0,0.0,0.0,0.0,0.0,0.0,0.0,0.0,0.6367,0.7709,0.8804,0.0,0.9537,0.9517,0.9469,0.8825,0.8038,0.7085,0.0,0.0,0.0,0.0,0.0,0.0,0.0,0.0,0.0,0.0,0.0,0.0,0.0,0.0,0.0,0.0,0.0,0.0,0.0,0.0,0.0,0.0,0.0,0.0,0.0,0.0,0.0,0.0,0.0,0.0,0.0,0.0,0.0,0.0,0.0,0.0,0.0,0.0,0.0,0.0,0.0,0.0,0.0,0.0,0.0,0.0,0.0,0.0,0.0,0.0,0.0,0.0,0.0,0.0,0.0,0.0,0.0,0.0,0.0,0.0,0.0,0.0,0.0,0.0,0.0,0.0,0.0,0.0,0.0,0.0,0.0,0.0,0.0,0.0,0.0,0.0,0.0,0.0,0.0,0.0,0.0,0.0,0.0,0.0,0.0,0.0,0.0,0.0,0.0,0.0,0.0,0.0,0.0,0.0,0.0,0.0,0.0,0.0,0.0,0.0,0.0,0.0,0.7251,0.8153,0.8886,0.9334,0.9381,0.932,0.9221,0.833,0.7563,0.0,0.0,0.0,0.0,0.0,0.0,0.0,0.0,0.0,0.0,0.0,0.0,0.0,0.0,0.0,0.0,0.0,0.0,0.0,0.0,0.0,0.0,0.0,0.0,0.0,0.0,0.0,0.0,0.0,0.0,0.0,0.0,0.0,0.0,0.0,0.0,0.0,0.0,0.0,0.0,0.0,0.0,0.0,0.0,0.0,0.0,0.0,0.0,0.0,0.0,0.0,0.0,0.0,0.0,0.0,0.0,0.0,0.0,0.0,0.0,0.0,0.0,0.0,0.0,0.0,0.0,0.0,0.0,0.0,0.0,0.0,0.0,0.0,0.0,0.0,0.0,0.0,0.0,0.0,0.0,0.0,0.0,0.0,0.0,0.0,0.0,0.0,0.0,0.0,0.0,0.0,0.0,0.0,0.0,0.0,0.0,0.0,0.0,0.0,0.0,0.0,0.0,0.0,0.626,0.7769,0.896,0.9255,0.9275,0.9262,0.9214,0.8579,0.7746,0.6824,0.0,0.0,0.0,0.0,0.0,0.0,0.0,0.0,0.0,0.0,0.0,0.0,0.0,0.0,0.0,0.0,0.0,0.0,0.0,0.0,0.0,0.0,0.0,0.0,0.0,0.0,0.0,0.0,0.0,0.0,0.0,0.0,0.0,0.0,0.0,0.0,0.0,0.0,0.0,0.0,0.0,0.0,0.0,0.0,0.0,0.0,0.0,0.0,0.0,0.0,0.0,0.0,0.0,0.0,0.0,0.0,0.0,0.0,0.0,0.0,0.0,0.0,0.0,0.0,0.0,0.0,0.0,0.0,0.0,0.0,0.0,0.0,0.0,0.0,0.0,0.0,0.0,0.0,0.0,0.0,0.0,0.0,0.0,0.0,0.0,0.0,0.0,0.0,0.0,0.0,0.0,0.0,0.0,0.0,0.0,0.0,0.0,0.0,0.0,0.0,0.0,0.0,0.6287,0.7729,0.8838,0.9049,0.9069,0.9069,0.9069,0.852,0.778,0.6851,0.0,0.0,0.0,0.0,0.0,0.0,0.0,0.0,0.0,0.0,0.0,0.0,0.0,0.0,0.0,0.0,0.0,0.0,0.0,0.0,0.0,0.0,0.0,0.0,0.0,0.0,0.0,0.0,0.0,0.0,0.0,0.0,0.0,0.0,0.0,0.0,0.0,0.0,0.0,0.0,0.0,0.0,0.0,0.0,0.0,0.0,0.0,0.0,0.0,0.0,0.0,0.0,0.0,0.0,0.0,0.0,0.0,0.0,0.0,0.0,0.0,0.0,0.0,0.0,0.0,0.0,0.0,0.0,0.0,0.0,0.0,0.0,0.0,0.0,0.0,0.0,0.0,0.0,0.0,0.0,0.0,0.0,0.0,0.0,0.0,0.0,0.0,0.0,0.0,0.0,0.0,0.0,0.0,0.0,0.0,0.0,0.0,0.0,0.0,0.0,0.0,0.0,0.6977,0.7923,0.8601,0.8851,0.8885,0.8878,0.8865,0.8339,0.7698,0.695,0.0,0.0,0.0,0.0,0.0,0.0,0.0,0.0,0.0,0.0,0.0,0.0,0.0,0.0,0.0,0.0,0.0,0.0,0.0,0.0,0.0,0.0,0.0,0.0,0.0,0.0,0.0,0.0,0.0,0.0,0.0,0.0,0.0,0.0,0.0,0.0,0.0,0.0,0.0,0.0,0.0,0.0,0.0,0.0,0.0,0.0,0.0,0.0,0.0,0.0,0.0,0.0,0.0,0.0,0.0,0.0,0.0,0.0,0.0,0.0,0.0,0.0,0.0,0.0,0.0,0.0,0.0,0.0,0.0,0.0,0.0,0.0,0.0,0.0,0.0,0.0,0.0,0.0,0.0,0.0,0.0,0.0,0.0,0.0,0.0,0.0,0.0,0.0,0.0,0.0,0.0,0.0,0.0,0.0,0.0,0.0,0.0,0.0,0.0,0.0,0.0,0.0,0.6977,0.7923,0.8601,0.8851,0.8885,0.8838,0.8771,0.8431,0.7902,0.7098,0.0,0.0,0.0,0.0,0.0,0.0,0.0,0.0,0.0,0.0,0.0,0.0,0.0,0.0,0.0,0.0,0.0,0.0,0.0,0.0,0.0,0.0,0.0,0.0,0.0,0.0,0.0,0.0,0.0,0.0,0.0,0.0,0.0,0.0,0.0,0.0,0.0,0.0,0.0,0.0,0.0,0.0,0.0,0.0,0.0,0.0,0.0,0.0,0.0,0.0,0.0,0.0,0.0,0.0,0.0,0.0,0.0,0.0,0.0,0.0,0.0,0.0,0.0,0.0,0.0,0.0,0.0,0.0,0.0,0.0,0.0,0.0,0.0,0.0,0.0,0.0,0.0,0.0,0.0,0.0,0.0,0.0,0.0,0.0,0.0,0.0,0.0,0.0,0.0,0.0,0.0,0.0,0.0,0.0,0.0,0.0,0.0,0.0,0.0,0.0,0.0,0.0,0.7136,0.797,0.8601,0.8851,0.8817,0.8798,0.8716,0.837,0.7902,0.7292,0.6552,0.0,0.0,0.0,0.0,0.0,0.0,0.0,0.0,0.0,0.0,0.0,0.0,0.0,0.0,0.0,0.0,0.0,0.0,0.0,0.0,0.0,0.0,0.0,0.0,0.0,0.0,0.0,0.0,0.0,0.0,0.0,0.0,0.0,0.0,0.0,0.0,0.0,0.0,0.0,0.0,0.0,0.0,0.0,0.0,0.0,0.0,0.0,0.0,0.0,0.0,0.0,0.0,0.0,0.0,0.0,0.0,0.0,0.0,0.0,0.0,0.0,0.0,0.0,0.0,0.0,0.0,0.0,0.0,0.0,0.0,0.0,0.0,0.0,0.0,0.0,0.0,0.0,0.0,0.0,0.0,0.0,0.0,0.0,0.0,0.0,0.0,0.0,0.7841,0.7685,0.0,0.0,0.0,0.0,0.0,0.0,0.0,0.0,0.0,0.0,0.0,0.0,0.7299,0.8038,0.8587,0.8811,0.8784,0.8689,0.8635,0.8296,0.7902,0.7475,0.6839,0.6265,0.0,0.0,0.0,0.0,0.0,0.0,0.0,0.0,0.0,0.0,0.0,0.0,0.0,0.0,0.0,0.0,0.0,0.0,0.0,0.0,0.0,0.0,0.0,0.0,0.0,0.0,0.0,0.0,0.0,0.0,0.0,0.0,0.0283,0.0049,0.0,0.0,0.0,0.0,0.0,0.0,0.0,0.0,0.0,0.0,0.0,0.0,0.0,0.0,0.0,0.0,0.0,0.0,0.0,0.0,0.0,0.0,0.0,0.0,0.0,0.0,0.0,0.0,0.0,0.0,0.0,0.0,0.0,0.0,0.0,0.0,0.0,0.0,0.0,0.0,0.0,0.0,0.0,0.0,0.0,0.0,0.0,0.0,0.0,0.0,0.8506,0.8391,0.8377,0.8323,0.0,0.7285,0.6539,0.6218,0.0,0.0,0.0,0.0,0.0,0.0,0.0,0.0,0.7455,0.8106,0.8547,0.8723,0.8723,0.8608,0.835,0.8275,0.8099,0.7773,0.7292,0.6885,0.6566,0.5861,0.0,0.0,0.0,0.0,0.0,0.0,0.0,0.0,0.0,0.0,0.0,0.0,0.0,0.0,0.0,0.0,0.0,0.0,0.0,0.0,0.0,0.0,0.0,0.0,0.0,0.0,0.0,0.0,0.0,0.0825,0.0,0.0,0.0,0.0204,0.0,0.0,0.0,0.0,0.0,0.0,0.0,0.0,0.0,0.0,0.0,0.0,0.0,0.0,0.0,0.0,0.0,0.0,0.0,0.0,0.0,0.0,0.0,0.0,0.0,0.0,0.0,0.0,0.0,0.0,0.0,0.0,0.0,0.0108,0.085,0.1697,0.0,0.0,0.0,0.0,0.0,0.0,0.0,0.0,0.0,0.0,0.0,0.0,0.0,0.8886,0.8914,0.8818,0.8676,0.8214,0.7645,0.0,0.677,0.6342,0.5549,0.0,0.0,0.0,0.0,0.0,0.7624,0.8092,0.8418,0.8567,0.8513,0.8411,0.8333,0.8187,0.8011,0.7712,0.7428,0.7136,0.6844,0.6274,0.576,0.0,0.0,0.0,0.0,0.0,0.0,0.0,0.0,0.0,0.0,0.0,0.0,0.0,0.0,0.0,0.0,0.0,0.0,0.0,0.0,0.0,0.0,0.0,0.0,0.0,0.0,0.0,0.0,0.0541,0.0,0.0,0.0,0.0,0.0,0.0,0.0,0.0,0.0,0.0,0.0,0.0,0.0,0.0,0.0,0.0,0.0,0.0,0.0,0.0,0.0,0.0,0.0,0.0,0.0,0.0,0.0,0.0,0.0,0.0,0.0,0.0,0.0,0.0,0.0,0.0,0.0,0.0119,0.1004,0.2139,0.3502,0.4998,0.0,0.711,0.7638,0.0,0.0,0.0,0.0,0.8058,0.8581,0.8798,0.8927,0.9166,0.9207,0.9173,0.8967,0.8818,0.8499,0.0,0.7563,0.721,0.6349,0.0,0.0,0.0,0.0,0.7244,0.7801,0.8106,0.8361,0.8418,0.8388,0.8255,0.8214,0.8072,0.7889,0.7665,0.7475,0.7272,0.7048,0.6647,0.6259,0.5808,0.0,0.0,0.0,0.0,0.0,0.0,0.0,0.0,0.0,0.0,0.0,0.0,0.0,0.0,0.0,0.0,0.0,0.0,0.0,0.0,0.0,0.0,0.0,0.0,0.0,0.0,0.0,0.0,0.0,0.0,0.0,0.0,0.0,0.0,0.0,0.0,0.0,0.0,0.0,0.0,0.0,0.0,0.0,0.0,0.0,0.0,0.0,0.0,0.0,0.0,0.0,0.0,0.0,0.0,0.0,0.0,0.0,0.0,0.0,0.0,0.0,0.0,0.0,0.0,0.0,0.045,0.3714,0.482,0.5338,0.8833,0.954,0.904,0.8858,0.856,0.0,0.0,0.8757,0.894,0.9259,0.934,0.9313,0.9241,0.9207,0.9173,0.8967,0.8818,0.8655,0.0,0.8079,0.7685,0.7398,0.0,0.6883,0.7018,0.7238,0.7516,0.7921,0.8167,0.8327,0.8333,0.8327,0.8208,0.8015,0.7909,0.7814,0.7801,0.7529,0.7412,0.7398,0.7054,0.6681,0.6272,0.5815,0.0,0.0,0.0,0.0,0.0,0.0,0.0,0.0,0.0,0.0,0.0,0.0,0.0,0.0,0.0,0.0,0.0,0.0,0.0,0.0,0.0,0.0,0.0,0.0,0.0,0.0,0.0,0.0,0.0,0.0,0.0,0.0,0.0,0.0,0.0,0.0,0.0,0.0,0.0,0.0,0.0,0.0,0.0,0.0,0.0,0.0,0.0,0.0,0.0,0.0,0.0,0.0,0.0,0.0,0.0,0.0,0.0,0.0,0.0,0.0,0.0,0.0,0.0,0.0748,0.188,0.3102,0.4993,0.7238,0.9437,0.9883,0.9537,0.9293,0.911,0.9008,0.911,0.9184,0.9273,0.9476,0.953,0.949,0.9334,0.93,0.9232,0.8932,0.8844,0.8838,0.8784,0.8486,0.8085,0.7604,0.759,0.7516,0.7326,0.7495,0.7746,0.7955,0.8085,0.8119,0.8119,0.8119,0.8058,0.7909,0.7841,0.7733,0.7543,0.7333,0.7183,0.7088,0.6892,0.662,0.6306,0.6003,0.5433,0.0,0.0,0.0,0.0,0.0,0.0,0.0,0.0,0.0,0.0,0.0,0.0,0.0,0.0,0.0,0.0,0.0,0.0,0.0,0.0,0.0,0.0,0.0,0.0,0.0,0.0,0.0,0.0,0.0,0.0,0.0,0.0,0.0,0.0,0.0,0.0,0.0,0.0,0.0,0.0,0.0,0.0,0.0,0.0,0.0,0.0,0.0,0.0,0.0,0.0,0.0,0.0,0.0,0.0,0.0,0.0,0.0,0.0,0.0,0.0,0.0,0.0,0.0772,0.1931,0.3209,0.5923,0.8996,0.9908,0.9997,0.9863,0.9666,0.9571,0.953,0.953,0.953,0.9551,0.9652,0.9646,0.9571,0.9415,0.934,0.9239,0.8939,0.8885,0.8885,0.8885,0.873,0.8431,0.8045,0.8052,0.8018,0.7767,0.7794,0.7874,0.7975,0.7988,0.7988,0.7988,0.7988,0.7928,0.7821,0.7719,0.7577,0.7433,0.7129,0.693,0.6889,0.6729,0.6512,0.6306,0.5962,0.5488,0.4836,0.0,0.0,0.0,0.0,0.0,0.0,0.0,0.0,0.0,0.0,0.0,0.0,0.0,0.0,0.0,0.0,0.0,0.0,0.0,0.0,0.0,0.0,0.0,0.0,0.0,0.0,0.0,0.0,0.0,0.0,0.0,0.0,0.0,0.0,0.0,0.0,0.0,0.0,0.0,0.0,0.0,0.0,0.0,0.0,0.0,0.0,0.0,0.0,0.0,0.0,0.0,0.0079,0.0078,0.0077,0.0152,0.0151,0.0149,0.0073,0.0,0.0,0.0073,0.0144,0.0768,0.4335,0.7766,1.05,1.0493,1.0297,0.9997,0.999,0.9883,0.9822,0.9822,0.9822,0.9822,0.9822,0.9713,0.9571,0.9415,0.9323,0.9173,0.8967,0.8885,0.8885,0.8885,0.8818,0.8716,0.871,0.8472,0.8327,0.832,0.814,0.0,0.7988,0.7988,0.7988,0.7988,0.7988,0.7921,0.7821,0.7536,0.7412,0.7405,0.6946,0.677,0.6869,0.6634,0.645,0.6306,0.5713,0.5291,0.511,0.0,0.0,0.0,0.0,0.0,0.0,0.0,0.0,0.0,0.0,0.0,0.0,0.0,0.0,0.0,0.0,0.0,0.0,0.0,0.0,0.0,0.0,0.0,0.0,0.0,0.0,0.0,0.0,0.0,0.0,0.0,0.0,0.0,0.0,0.0,0.0,0.0,0.0,0.0,0.0,0.0,0.0,0.0,0.0,0.0,0.0,0.0,0.0,0.0,0.0,0.0079,0.1568,0.2179,0.223,0.3717,0.427,0.3923,0.1099,0.0,0.0146,0.1602,0.379,0.6326,0.852,0.9889,1.0636,1.0527,1.0365,1.0195,1.0017,0.9883,0.9822,0.9822,0.9822,0.9822,0.9822,0.9713,0.9571,0.9415,0.9323,0.9173,0.8967,0.8885,0.8885,0.8885,0.8851,0.8838,0.873,0.8554,0.8391,0.834,0.814,0.0,0.7988,0.7988,0.7988,0.7988,0.7887,0.7814,0.7672,0.7482,0.7278,0.7061,0.6831,0.6722,0.6763,0.6573,0.6497,0.6457,0.5863,0.5508,0.0,0.0,0.0,0.0,0.0,0.0,0.0,0.0,0.0,0.0,0.0,0.0,0.0,0.0,0.0,0.0,0.0,0.0,0.0,0.0,0.0,0.0,0.231,0.0904,0.0133,0.0,0.0,0.0,0.0,0.0,0.0,0.0,0.0,0.0,0.0,0.0,0.0,0.0,0.0,0.0,0.0,0.0,0.0,0.0,0.0,0.0,0.0,0.0471,0.1333,0.1333,0.1803,0.0,0.3912,0.4338,0.4269,0.5519,0.5894,0.0,0.0,0.0,0.0,0.0,0.5778,0.8275,0.9242,1.0047,1.0704,1.0616,1.0446,1.0263,1.0175,0.9992,0.9822,0.9822,0.9822,0.9808,0.9747,0.9625,0.9476,0.932,0.9171,0.9042,0.8898,0.8885,0.8885,0.8885,0.0,0.0,0.8737,0.8581,0.8452,0.837,0.8174,0.7988,0.7988,0.7988,0.7988,0.7988,0.7914,0.7821,0.7617,0.7461,0.0,0.0,0.0,0.6647,0.6519,0.647,0.0,0.0,0.0,0.0,0.0,0.0,0.0,0.0,0.5487,0.5204,0.0,0.0,0.0,0.0,0.0,0.0,0.0,0.0,0.0,0.0,0.0,0.0,0.0,0.0,0.0,0.0,0.3737,0.26,0.0926,0.0659,0.0598,0.0378,0.0387,0.0314,0.0314,0.0157,0.0,0.0,0.0,0.0,0.0,0.0,0.0,0.0,0.0,0.0,0.0,0.0,0.0079,0.0314,0.0314,0.1411,0.3443,0.3443,0.4537,0.6332,0.6559,0.6546,0.633,0.6544,0.66,0.6387,0.5953,0.5949,0.6066,0.5986,0.6915,0.0,0.0,0.0,0.0,1.0717,1.0521,1.0283,1.0283,1.0066,0.9822,0.9822,0.9822,0.9788,0.9646,0.9496,0.934,0.9248,0.9042,0.8885,0.8885,0.8885,0.8885,0.8885,0.8885,0.8838,0.8757,0.8594,0.8479,0.8459,0.8221,0.7988,0.7988,0.7988,0.7988,0.7988,0.0,0.0,0.7624,0.7461,0.7299,0.7085,0.6871,0.6607,0.6388,0.6375,0.6375,0.6375,0.6361,0.6477,0.6702,0.6702,0.6715,0.6729,0.5938,0.5183,0.0,0.0,0.0,0.0,0.0,0.0,0.0,0.0,0.0,0.0,0.0,0.0,0.0,0.0,0.0,0.6814,0.5979,0.5108,0.4757,0.4695,0.4168,0.2641,0.247,0.2506,0.2506,0.102,0.0,0.0,0.0,0.0,0.0,0.0,0.0,0.0,0.0,0.0,0.0,0.0,0.0863,0.2506,0.0,0.0,0.5708,0.5708,0.5942,0.6407,0.7967,0.855,0.8431,1.0059,1.059,1.0161,0.7042,0.6705,0.7979,0.786,0.8856,1.0306,1.0232,1.0386,1.0717,1.0717,1.0521,1.0283,1.0283,1.0066,0.0,0.9822,0.9822,0.9788,0.9646,0.9496,0.934,0.9248,0.9042,0.8885,0.8885,0.8885,0.8885,0.8885,0.8885,0.8871,0.8844,0.8662,0.8445,0.8381,0.8153,0.7988,0.7988,0.7988,0.7988,0.7988,0.788,0.7787,0.7611,0.7461,0.7258,0.6943,0.6876,0.6858,0.6803,0.6803,0.6803,0.6803,0.6675,0.6647,0.6702,0.6702,0.6824,0.7004,0.6634,0.5868,0.0,0.0,0.0,0.0,0.0,0.0,0.0,0.0,0.0,0.0,0.0,0.8418,0.8947,0.0,0.7386,0.7761,0.7511,0.6881,0.5939,0.7555,0.7725,0.4895,0.4522,0.4582,0.4691,0.3758,0.3133,0.3133,0.3133,0.3133,0.3133,0.3133,0.3133,0.3133,0.3133,0.3133,0.3133,0.3133,0.3679,0.4693,0.4693,0.5786,0.7816,0.7816,0.8411,0.9367,1.0309,1.0631,1.0441,1.1345,1.1681,1.1404,0.9435,0.9177,0.9852,0.9787,1.0197,1.0759,1.0744,1.0717,1.0717,1.0717,1.0521,1.0283,1.0283,1.0066,0.9822,0.9822,0.9822,0.9768,0.9551,0.9442,0.9327,0.9096,0.8988,0.8885,0.8885,0.8885,0.8885,0.8885,0.8885,0.8858,0.8838,0.8635,0.8459,0.8384,0.8187,0.7988,0.7988,0.7988,0.7988,0.7988,0.7921,0.7868,0.7719,0.7502,0.7278,0.7004,0.6991,0.6957,0.6889,0.6957,0.6991,0.6991,0.7034,0.7075,0.7149,0.7149,0.7224,0.7366,0.7217,0.651,0.0,0.0,0.0,0.0,0.0,0.0,0.0,0.0,0.7972,0.8642,0.8906,0.9164,0.9652,0.8899,0.8356,0.8595,0.8981,0.8744,0.7174,0.9736,1.0584,0.7493,0.6846,0.6704,0.6848,0.6559,0.6332,0.6332,0.6332,0.6332,0.6332,0.6332,0.6332,0.6332,0.6332,0.6332,0.6332,0.6332,0.6488,0.6878,0.6878,0.7972,0.9998,0.9976,1.0845,1.2284,1.223,1.2047,1.1782,1.1667,1.1619,1.1613,1.1586,1.1409,1.1234,1.1234,1.0975,1.0717,1.0717,1.0717,1.0717,1.0717,1.0521,1.0283,1.0283,1.0066,0.9822,0.9822,0.9822,0.9754,0.9456,0.9381,0.9306,0.8952,0.8885,0.8885,0.8885,0.8885,0.8885,0.8885,0.8885,0.8844,0.8777,0.8601,0.8472,0.8445,0.8214,0.7988,0.7988,0.7988,0.7988,0.7988,0.7988,0.7914,0.7787,0.7522,0.7305,0.7105,0.7098,0.7058,0.7021,0.7078,0.7152,0.7186,0.7353,0.7475,0.7597,0.7597,0.7611,0.7638,0.7638,0.6969,0.7092,0.719,0.7441,0.7773,0.7779,0.8092,0.0,0.0,0.913,0.9747,0.9998,1.0127,1.0195,1.0372,1.0589,1.0829,1.1107,1.1234,1.0959,1.1338,1.1477,1.1171,0.9757,0.8827,0.8836,0.7301,0.6332,0.6332,0.6332,0.6332,0.6332,0.6332,0.6332,0.6332,0.6332,0.6332,0.6332,0.6332,0.7189,0.9061,0.9061,1.0153,1.2185,1.206,1.2076,1.2277,1.1999,1.1789,1.164,1.1626,1.1619,1.1606,1.147,1.1314,1.1234,1.1234,1.0975,1.0717,1.0717,1.0717,1.0717,1.0717,1.0521,1.0283,1.0283,1.0066,0.9822,0.9822,0.9822,0.9754,0.9456,0.9381,0.9306,0.8952,0.8885,0.8885,0.8885,0.8885,0.8885,0.8885,0.8885,0.8878,0.8858,0.8676,0.8438,0.8368,0.8147,0.7988,0.7988,0.7988,0.7988,0.7988,0.7988,0.788,0.7645,0.7468,0.7305,0.7105,0.7098,0.7197,0.7319,0.7339,0.7407,0.7543,0.7563,0.7584,0.7597,0.7597,0.7665,0.7787,0.7787,0.7057,0.8123,0.8167,0.8235,0.0,0.8777,0.9042,0.9694,0.972,0.9686,1.0202,1.0358,1.0432,1.0521,1.0765,1.0995,0.0,1.1348,1.1518,1.1606,1.1545,1.1511,1.1565,1.1027,1.0717,1.0954,1.0256,0.985,0.9915,0.992,0.992,0.992,0.992,0.992,0.992,0.992,0.992,0.992,0.992,1.0314,1.1172,1.1172,1.1637,1.2494,1.2352,1.2196,1.2013,1.1796,1.1674,1.1619,1.1619,1.1619,1.1606,1.145,1.1301,1.122,1.107,1.09,1.0717,1.0717,1.0717,1.0717,1.0717,1.0521,1.0283,1.0283,1.0066,0.9822,0.9822,0.9822,0.9754,0.9456,0.9381,0.9306,0.8952,0.8885,0.8885,0.8885,0.8885,0.8885,0.8885,0.8885,0.8885,0.8885,0.8682,0.8465,0.8404,0.8194,0.7988,0.7988,0.7988,0.7988,0.7988,0.7988,0.7901,0.774,0.759,0.7441,0.7285,0.7146,0.721,0.7412,0.7455,0.7577,0.7719,0.7807,0.7855,0.7855,0.7855,0.7889,0.7894,0.7894,0.7599,0.8703,0.8791,0.0,0.9205,0.9503,0.9781,0.9964,1.0005,1.01,1.0426,1.0493,1.0514,1.0588,1.0758,1.0934,1.1084,1.1267,1.143,1.1538,1.1463,1.1375,1.1335,1.1423,1.1653,1.2067,1.2182,1.2284,1.2433,1.244,1.2461,1.2501,1.2501,1.2501,1.2501,1.2501,1.2501,1.2501,1.2501,1.2501,1.2501,1.2501,1.2481,1.2433,1.225,1.202,1.1769,1.166,1.1619,1.1619,1.1619,1.1619,1.1599,1.1402,1.126,1.1138,1.0955,1.0745,1.0717,1.0717,1.0717,1.0711,1.067,1.0487,1.0276,1.0229,1.0032,0.9822,0.9822,0.9822,0.9754,0.9456,0.9381,0.9306,0.8952,0.8885,0.8885,0.8885,0.8885,0.8885,0.8885,0.8885,0.8871,0.8824,0.8655,0.8465,0.8431,0.8201,0.7988,0.7988,0.7988,0.7988,0.7988,0.7988,0.7928,0.7821,0.7719,0.7597,0.7441,0.7333,0.7333,0.7489,0.7597,0.7726,0.7868,0.7934,0.7988,0.7988,0.7988,0.7988,0.7988,0.7988,0.7988,0.8374,0.0,0.9268,0.9517,0.9815,1.0051,1.0405,1.0473,1.0473,1.0487,1.0493,1.0453,1.0317,1.0534,1.0778,1.086,1.1199,1.1396,1.1396,1.1396,1.1335,1.1185,1.1241,1.1301,0.0,1.1898,1.2135,1.2284,1.2298,1.2359,1.2494,1.2501,1.2501,1.2501,1.2501,1.2501,1.2501,1.2501,1.2501,1.2501,1.2501,1.2427,1.2284,1.1986,1.1762,1.1626,1.1619,1.1619,1.1619,1.1619,1.1619,1.1592,1.1287,1.1165,1.1124,1.0833,1.0724,1.0717,1.0717,1.0717,1.0697,1.0548,1.0399,1.0249,1.0038,0.9883,0.9822,0.9822,0.9822,0.9754,0.9456,0.9381,0.9306,0.8952,0.8885,0.8885,0.8885,0.8885,0.8885,0.8885,0.8885,0.8838,0.8743,0.8587,0.8438,0.8347,0.814,0.7988,0.7988,0.7988,0.7988,0.7988,0.7988,0.7928,0.7821,0.7807,0.7746,0.7604,0.759,0.7651,0.7794,0.7801,0.7875,0.7982,0.7988,0.7988,0.7988,0.7988,0.7988,0.7988,0.7988,0.7988,0.8838,0.0,0.9673,0.9978,1.0202,1.0399,1.0595,1.0568,1.0493,1.0493,1.0337,1.0118,1.0134,1.0145,1.0294,1.0609,1.09,1.1131,1.1226,1.1328,1.1301,1.105,1.1104,0.0,0.0,0.0,0.0,1.2121,1.223,1.2311,1.2359,1.2447,1.2501,1.2501,1.2501,1.2501,1.2501,1.2501,1.2501,1.2501,1.2406,1.223,1.1986,1.1877,1.1755,1.1619,1.1619,1.1619,1.1619,1.1619,1.1619,1.1592,1.128,1.1234,1.1124,1.0833,1.0717,1.0717,1.0717,1.0717,1.0697,1.0541,1.0399,1.0249,1.0031,0.9883,0.9822,0.9822,0.9822,0.9754,0.9456,0.9381,0.9306,0.8952,0.8885,0.8885,0.8885,0.8885,0.8885,0.8885,0.8885,0.8865,0.8817,0.8648,0.8397,0.8153,0.8022,0.7988,0.7988,0.7988,0.7988,0.7988,0.7988,0.7968,0.7921,0.7868,0.7787,0.774,0.7651,0.7665,0.7807,0.7814,0.7882,0.7988,0.7988,0.7988,0.7988,0.7988,0.7988,0.7988,0.7988,0.7988,0.9259,0.9639,0.9985,1.0351,1.0507,1.0582,1.0629,1.0521,1.0371,1.0209,0.9937,0.9713,0.9599,0.9593,0.9741,1.0263,1.0548,1.0819,1.1118,1.1199,1.1179,1.1043,1.1063,1.1131,0.0,0.0,0.0,1.1959,1.2121,1.223,1.2284,1.2427,1.2501,1.2501,1.2501,1.2501,1.2501,1.2501,1.2474,1.2427,1.2277,1.2074,1.183,1.1775,1.1708,1.1619,1.1619,1.1619,1.1619,1.1619,1.1619,1.1592,1.128,1.1234,1.1124,1.0833,1.0717,1.0717,1.0717,1.0717,1.0683,1.048,1.0351,1.0243,1.0032,0.9897,0.9822,0.9822,0.9822,0.9754,0.9456,0.9381,0.9306,0.8952,0.8885,0.8885,0.8885,0.8885,0.8885,0.8885,0.8885,0.8865,0.8811,0.8608,0.8323,0.8029,0.7988,0.7988,0.7988,0.7988,0.7988,0.7988,0.7988,0.7988,0.7988,0.7901,0.7889,0.7889,0.7807,0.7801,0.7889,0.7889,0.7887,0.7988,0.7988,0.7988,0.7988,0.7988,0.7988,0.7988,0.7988,0.7988,0.9673,0.9896,1.0125,1.0616,1.0717,1.067,1.0514,1.0358,1.012,0.9666,0.9327,0.9118,0.0,0.0,0.9157,0.9951,1.0161,1.0487,1.107,1.105,1.1016,0.0,0.0,0.0,0.0,0.0,0.0,1.1796,0.0,1.2128,1.2271,1.242,1.2501,1.2501,1.2501,1.2501,1.2501,1.2494,1.242,1.2277,1.2121,1.1972,1.1816,1.1681,1.1619,1.1619,1.1619,1.1619,1.1619,1.1619,1.1613,1.1579,1.128,1.1158,1.1118,1.0826,1.0717,1.0717,1.0717,1.0717,1.0663,1.0371,1.0276,1.0215,0.991,0.9822,0.9822,0.9822,0.9822,0.9754,0.9456,0.9381,0.9306,0.8952,0.8885,0.8885,0.8885,0.8885,0.8885,0.8885,0.8885,0.8831,0.8723,0.8465,0.8228,0.8015,0.7988,0.7988,0.7988,0.7988,0.7988,0.7988,0.7988,0.7988,0.7988,0.7988,0.7988,0.7988,0.7988,0.7988,0.7988,0.7988,0.7988,0.7988,0.7988,0.7988,0.7988,0.7988,0.7988,0.7988,0.7988,0.7988,0.9829,1.0199,1.0575,1.069,1.0636,1.0514,1.0365,1.0046,0.9652,0.9205,0.8784,0.8418,0.0,0.0,0.0,0.9357,0.9951,0.0,1.0934,1.1158,0.0,1.1241,0.0,1.1307,1.1382,1.1389,0.0,0.0,1.1918,1.2081,1.2121,1.2366,1.2501,1.2501,1.2501,1.2501,1.2501,1.24,1.2271,1.2121,1.1965,1.1816,1.1674,1.1633,1.1619,1.1619,1.1619,1.1619,1.1619,1.1619,1.1552,1.143,1.124,1.1097,1.0982,1.0792,1.0717,1.0717,1.0717,1.0643,1.0521,1.0337,1.0202,1.0011,0.9876,0.9822,0.9822,0.9822,0.9822,0.9754,0.9456,0.9381,0.9306,0.8952,0.8885,0.8885,0.8885,0.8885,0.8885,0.8885,0.8885,0.8797,0.8587,0.8479,0.8336,0.8029,0.7988,0.7988,0.7988,0.7988,0.7988,0.7988,0.7988,0.7988,0.7988,0.7988,0.7988,0.7988,0.7988,0.7988,0.7988,0.7988,0.7988,0.7988,0.7988,0.7988,0.7988,0.7988,0.7988,0.7988,0.7988,0.7988,1.0161,1.0473,1.0704,1.0636,1.0507,1.029,0.9876,0.949,0.9028,0.8384,0.7997,0.0,0.738,0.0,0.0,0.0,0.0,0.0,1.0793,1.109,1.124,0.0,1.1382,0.0,1.1484,1.1491,1.1552,0.0,1.1932,1.2135,1.2135,1.2338,1.2501,1.2501,1.2501,1.2474,1.2413,1.2264,1.2115,1.1959,1.187,1.1755,1.1619,1.1619,1.1619,1.1619,0.0,1.1619,1.1619,1.1619,1.1531,1.1375,1.1219,1.1077,1.086,1.0778,1.0717,1.0717,1.0717,1.0582,1.0385,1.0304,1.0175,0.9957,0.9869,0.9822,0.9822,0.9822,0.9822,0.9754,0.9456,0.9381,0.9306,0.8952,0.8885,0.8885,0.8885,0.8885,0.8885,0.8885,0.8885,0.8811,0.8621,0.8526,0.8404,0.8174,0.8029,0.7988,0.7988,0.7988,0.7988,0.7988,0.7988,0.7988,0.7988,0.7988,0.7988,0.7988,0.7988,0.7988,0.7988,0.7988,0.7988,0.7988,0.7988,0.7988,0.7988,0.7988,0.7988,0.7988,0.7988,0.8022,1.0446,1.0616,1.0683,1.0527,1.0371,1.0053,0.9357,0.8866,0.8364,0.7468,0.0,0.6896,0.6661,0.7102,0.7719,0.835,0.0,0.9869,1.0718,1.0867,1.1042,1.1538,1.1491,1.147,1.1606,1.1619,1.1674,1.1796,1.1965,1.2149,1.2169,1.2352,1.2494,1.2474,1.2474,1.2406,1.2264,1.2108,1.1965,1.183,1.1809,1.1742,1.1619,1.1619,1.1619,1.1619,0.0,0.0,1.1619,1.1619,1.1518,1.1348,1.1212,1.1063,1.0833,1.0772,1.0717,1.0717,1.0717,1.0527,1.0283,1.0283,1.0161,0.993,0.9863,0.9822,0.9822,0.9822,0.9822,0.9754,0.9456,0.9381,0.9306,0.8952,0.8885,0.8885,0.8885,0.8885,0.8885,0.8885,0.8885,0.8838,0.8737,0.8601,0.8465,0.8374,0.8167,0.8022,0.8022,0.8002,0.7988,0.7988,0.7988,0.7988,0.7988,0.7988,0.7988,0.7988,0.7988,0.7988,0.7988,0.7988,0.7988,0.7988,0.7988,0.7988,0.7988,0.7988,0.7988,0.7988,0.8008,0.814,1.0629,1.0697,1.0683,1.0527,1.029,0.9897,0.9144,0.8501,0.0,0.0,0.66,0.6356,0.6179,0.66,0.7326,0.8167,0.0,0.0,0.0,0.0,1.1002,0.0,0.0,0.0,0.0,0.0,0.0,0.0,0.0,0.0,1.2244,1.2413,1.2447,1.2332,1.2325,1.2257,1.2176,1.1945,1.1857,1.183,1.1714,1.1647,1.1619,1.1619,1.1619,1.1619,0.0,0.0,1.1619,1.1619,1.1457,1.1199,1.1241,1.0995,1.0758,1.0731,1.0717,1.0717,1.0717,1.0527,1.0283,1.0283,1.0086,0.9856,0.9829,0.9822,0.9822,0.9822,0.9822,0.9754,0.9456,0.9381,0.9306,0.8952,0.8885,0.8885,0.8885,0.8885,0.8885,0.8885,0.8885,0.8838,0.8737,0.8689,0.8621,0.8465,0.8323,0.8228,0.8228,0.8119,0.7988,0.7988,0.7988,0.7988,0.7988,0.7988,0.7988,0.7988,0.7988,0.7988,0.7988,0.7988,0.7988,0.7988,0.7988,0.7988,0.7988,0.7988,0.7988,0.7995,0.8174,0.8248,1.0677,1.0717,1.0663,1.0439,1.01,0.9585,0.8622,0.0,0.0,0.0,0.6118,0.5949,0.5725,0.6302,0.0,0.7489,0.0,0.0,0.0,0.0,0.0,0.0,0.0,0.0,0.0,0.0,0.0,0.0,0.0,0.0,1.2162,1.2311,1.2325,1.2176,1.2094,1.202,1.1945,1.1796,1.1721,1.1721,1.1653,1.1619,1.1619,1.1619,1.1619,1.1619,1.1619,0.0,1.1613,1.1531,1.1369,1.1158,1.1084,1.0914,1.0717,1.0717,1.0717,1.0717,1.0717,1.0527,1.0283,1.0283,1.0073,0.9822,0.9822,0.9822,0.9822,0.9822,0.9822,0.9754,0.9456,0.9381,0.9306,0.8952,0.8885,0.8885,0.8885,0.8885,0.8885,0.8885,0.8885,0.8858,0.8845,0.8764,0.8682,0.8615,0.8411,0.832,0.832,0.8133,0.7988,0.7988,0.7988,0.7988,0.7988,0.7988,0.7988,0.7988,0.7988,0.7988,0.7988,0.7988,0.7988,0.7988,0.7988,0.7988,0.7988,0.8119,0.816,0.8167,0.8309,0.8425,1.0636,1.0697,1.0649,1.0351,0.9944,0.9327,0.8184,0.7483,0.0,0.0,0.5732,0.5644,0.5481,0.601,0.6614,0.0,0.7624,0.8499,0.0,0.0,0.0,0.0,0.0,0.0,0.0,0.0,0.0,0.0,0.0,0.0,1.2054,1.2176,1.2169,1.202,1.1898,1.1816,1.1782,1.1674,1.1619,1.1619,1.1619,1.1619,1.1619,1.1619,1.1619,1.1619,1.1619,0.0,0.0,1.1457,1.1301,1.1151,1.1002,1.0786,1.0717,1.0717,1.0717,1.0717,1.0717,1.0527,1.0283,1.0283,1.0073,0.9822,0.9822,0.9822,0.9822,0.9822,0.9822,0.9754,0.9456,0.9381,0.9306,0.8952,0.8885,0.8885,0.8885,0.8885,0.8885,0.8885,0.8885,0.8885,0.8885,0.8838,0.8757,0.8757,0.8533,0.835,0.8374,0.818,0.8029,0.7995,0.7988,0.7988,0.7988,0.7988,0.7988,0.7988,0.7988,0.7988,0.7988,0.7988,0.7988,0.7988,0.7988,0.8008,0.8092,0.8214,0.834,0.8374,0.8465,0.8594,1.0507,1.0616,1.0649,1.0351,0.9944,0.93,0.8106,0.0,0.0,0.5793,0.5535,0.5467,0.5549,0.5739,0.6152,0.6943,0.7428,0.8072,0.0,0.0,0.0,0.0,0.0,0.0,0.0,0.0,0.0,0.0,0.0,0.0,0.0,1.2074,1.2013,1.1857,1.1837,1.1769,1.164,1.1626,1.1619,1.1619,1.1619,1.1619,1.1619,1.1619,1.1619,1.1619,0.0,0.0,0.0,1.1457,1.1301,1.1151,1.1002,1.0786,1.0717,1.0717,1.0717,1.0717,1.0717,1.0527,1.0283,1.0283,1.0073,0.9822,0.9822,0.9822,0.9822,0.9822,0.9822,0.9754,0.9456,0.9381,0.9306,0.8952,0.8885,0.8885,0.8885,0.8885,0.8885,0.8885,0.8885,0.8885,0.8885,0.8871,0.8865,0.8865,0.8777,0.8621,0.8479,0.8336,0.8194,0.8002,0.7988,0.7988,0.7988,0.7988,0.7988,0.7988,0.7988,0.7988,0.7988,0.7988,0.7988,0.7988,0.7988,0.8106,0.8248,0.8313,0.8336,0.8465,0.8621,0.8696,1.0419,1.0534,1.0534,1.0331,0.9802,0.9069,0.8045,0.0,0.6559,0.5759,0.5501,0.5412,0.5474,0.5576,0.5847,0.6343,0.6654,0.7177,0.8282,0.0,0.0,0.0,0.0,0.0,0.0,0.0,0.0,0.0,0.0,0.0,0.0,1.1877,1.1857,1.1708,1.1701,1.1674,1.1619,1.1619,1.1619,1.1619,1.1619,1.1619,1.1619,1.1619,1.1619,1.1619,0.0,0.0,0.0,1.1314,1.1165,1.1016,1.0867,1.0772,1.0717,1.0717,1.0717,1.0717,1.0717,1.0527,1.0283,1.0283,1.0073,0.9822,0.9822,0.9822,0.9822,0.9822,0.9822,0.9774,0.9571,0.9381,0.9191,0.8988,0.8885,0.8885,0.8885,0.8885,0.8885,0.8885,0.8885,0.8885,0.8885,0.8885,0.8885,0.8885,0.8811,0.8655,0.8499,0.8357,0.8214,0.8008,0.7988,0.7988,0.7988,0.7988,0.7988,0.7988,0.7988,0.7988,0.7988,0.7988,0.8035,0.8174,0.818,0.8248,0.8397,0.8492,0.8567,0.8621,0.8777,0.8845,1.0134,1.0331,1.0385,1.0195,0.9612,0.8852,0.0,0.717,0.6437,0.5732,0.5501,0.5392,0.5392,0.5481,0.5637,0.5939,0.6193,0.673,0.7733,0.8303,0.0,0.0,0.0,0.0,0.0,0.0,0.0,0.0,0.0,0.0,0.0,1.1714,1.1721,1.1619,1.1619,1.1619,1.1619,1.1619,1.1619,1.1619,1.1619,1.1619,1.1619,1.1619,1.1619,1.1619,0.0,0.0,0.0,1.1179,1.1036,1.0867,1.0778,1.0717,1.0717,1.0717,1.0717,1.0717,1.0717,1.0527,1.0283,1.0283,1.0073,0.9822,0.9822,0.9822,0.9822,0.9822,0.9754,0.9666,0.9564,0.932,0.9062,0.8905,0.8885,0.8885,0.8885,0.8885,0.8885,0.8885,0.8885,0.8885,0.8885,0.8885,0.8885,0.8885,0.8845,0.8723,0.8567,0.8465,0.8343,0.8187,0.8133,0.8092,0.7995,0.7988,0.7988,0.7988,0.7988,0.7988,0.7988,0.8035,0.816,0.832,0.8361,0.8404,0.8554,0.8655,0.873,0.8777,0.8831,0.8885,0.9578,0.9944,1.0209,0.9903,0.9323,0.8649,0.7807,0.7014,0.6347,0.5711,0.5501,0.5392,0.5392,0.5399,0.5542,0.5919,0.6274,0.6837,0.784,0.8501,0.0,0.0,0.0,0.0,0.0,0.0,0.0,0.0,0.0,0.0,0.0,1.1619,1.1619,1.1619,1.1619,1.1619,1.1619,1.1619,1.1619,1.1619,1.1619,1.1619,1.1619,1.1619,1.1619,0.0,0.0,0.0,0.0,1.107,1.088,1.0867,1.0778,1.0717,1.0717,1.0717,1.0717,1.0717,1.0717,1.0527,1.0283,1.0283,1.0073,0.9822,0.9822,0.9822,0.9822,0.9822,0.9612,0.9388,0.9388,0.9164,0.8885,0.8885,0.8885,0.8885,0.8885,0.8885,0.8885,0.8885,0.8885,0.8885,0.8885,0.8885,0.8885,0.8885,0.8885,0.8824,0.873,0.871,0.8648,0.8492,0.835,0.8208,0.8002,0.7988,0.7988,0.7988,0.7988,0.7988,0.7988,0.8187,0.832,0.832,0.8411,0.8554,0.871,0.871,0.8784,0.8885,0.8885,0.8885,0.8798,0.9022,0.9137,0.8838,0.8459,0.7963,0.7163,0.6715,0.6313,0.561,0.5426,0.5392,0.5392,0.5392,0.561,0.6227,0.645,0.6803,0.0,0.0,0.0,0.0,0.0,0.0,0.0,0.0,0.0,0.0,0.0,0.0,0.0,1.1619,1.1619,1.1619,1.1619,1.1619,1.1619,1.1619,1.1619,1.1619,1.1619,1.1619,1.1619,1.1619,0.0,0.0,0.0,0.0,0.0,1.0921,1.082,1.0785,1.0738,1.0717,1.0717,1.0717,1.0717,1.0704,1.0602,1.0439,1.0263,1.0154,0.9985,0.9822,0.9822,0.9822,0.9822,0.9822,0.9686,0.951,0.9408,0.9232,0.9062,0.8905,0.8885,0.8885,0.8885,0.8885,0.8885,0.8885,0.8885,0.8885,0.8885,0.8885,0.8885,0.8885,0.8885,0.8831,0.873,0.871,0.8655,0.8499,0.8438,0.8357,0.8208,0.8099,0.8085,0.8187,0.8201,0.8241,0.8336,0.8391,0.8465,0.8567,0.8615,0.8716,0.8811,0.8811,0.8838,0.8885,0.8885,0.8885,0.8065,0.8303,0.8397,0.816,0.7868,0.7482,0.6844,0.6498,0.6139,0.5603,0.5433,0.5392,0.5392,0.5392,0.5583,0.6125,0.6354,0.675,0.0,0.0,0.0,0.0,0.0,0.0,0.0,0.0,0.0,0.0,0.0,0.0,0.0,0.0,1.1619,1.1619,1.1619,1.1619,1.1619,1.1619,1.1619,1.1619,1.1619,1.1619,1.1619,1.1558,0.0,0.0,0.0,0.0,0.0,1.082,1.0806,1.0717,1.0717,1.0717,1.0717,1.0717,1.0717,1.0697,1.0548,1.0399,1.0256,1.01,0.9883,0.9822,0.9822,0.9822,0.9822,0.9822,0.972,0.9571,0.9422,0.9323,0.9173,0.8974,0.8885,0.8885,0.8885,0.8885,0.8885,0.8885,0.8885,0.8885,0.8885,0.8885,0.8885,0.8885,0.8885,0.8851,0.8811,0.8798,0.8757,0.8662,0.8601,0.8533,0.8445,0.8296,0.8248,0.8343,0.835,0.8391,0.8479,0.854,0.8615,0.871,0.8764,0.8845,0.8885,0.8885,0.8885,0.8885,0.8885,0.8885,0.0,0.7706,0.7853,0.7726,0.7489,0.7221,0.6722,0.6308,0.0,0.5637,0.5494,0.5405,0.544,0.5426,0.5528,0.584,0.6139,0.0,0.0,0.0,0.0,0.0,0.0,0.0,0.0,0.0,0.0,0.0,0.0,0.0,0.0,0.0,1.1619,1.1619,1.1619,1.1619,1.1619,1.1619,1.1619,1.1619,1.1619,1.1613,1.1599,1.1457,0.0,0.0,0.0,0.0,0.0,1.0778,1.0717,1.0717,1.0717,1.0717,1.0717,1.0711,1.0704,1.0677,1.0514,1.0371,1.0236,1.0017,0.9876,0.9822,0.9822,0.9822,0.9822,0.9822,0.972,0.9578,0.9435,0.933,0.9173,0.8988,0.8892,0.8885,0.8885,0.8885,0.8885,0.8885,0.8885,0.8885,0.8885,0.8885,0.8885,0.8885,0.8885,0.8885,0.8885,0.8885,0.8885,0.8885,0.8811,0.8723,0.8723,0.8574,0.8486,0.8499,0.8499,0.8506,0.8513,0.8648,0.8723,0.8723,0.8811,0.8885,0.8885,0.8885,0.8885,0.8885,0.8885,0.8892,0.6186,0.0,0.6926,0.6505,0.6485,0.6443,0.0,0.5854,0.5772,0.5508,0.5419,0.5501,0.5806,0.5691,0.582,0.6647,0.6842,0.0,0.0,0.0,0.0,0.0,0.0,0.0,0.0,0.0,0.0,0.0,0.0,0.0,0.0,0.0,1.1619,1.1619,1.1619,1.1619,1.1619,1.1619,1.1619,1.1619,1.1619,1.1558,1.1443,1.1409,0.0,0.0,0.0,0.0,1.0772,1.0731,1.0717,1.0717,1.0717,1.0717,1.0704,1.0588,1.0548,1.0507,1.0243,1.0134,1.008,0.9924,0.9849,0.9822,0.9822,0.9822,0.9822,0.9822,0.972,0.9598,0.9564,0.9354,0.92,0.9166,0.9022,0.8885,0.8885,0.8885,0.8885,0.8885,0.8885,0.8885,0.8885,0.8885,0.8885,0.8885,0.8885,0.8885,0.8885,0.8885,0.8885,0.8885,0.8851,0.8831,0.8831,0.8635,0.8533,0.8648,0.8655,0.871,0.8825,0.8811,0.8831,0.8831,0.8865,0.8885,0.8885,0.8885,0.8885,0.8885,0.8885,0.8994,0.5824,0.6139,0.6539,0.6295,0.6295,0.6313,0.6006,0.58,0.5637,0.544,0.5392,0.5487,0.5772,0.5806,0.6017,0.6722,0.7068,0.0,0.0,0.0,0.0,0.0,0.0,0.0,0.0,0.0,0.0,0.0,0.0,0.0,0.0,0.0,1.1409,1.1409,1.1409,1.1477,1.1619,1.1552,1.1511,1.1511,1.1443,1.1369,1.1287,1.1219,0.0,0.0,0.0,0.0,1.0717,1.0717,1.0717,1.0717,1.0717,1.0717,1.0711,1.0629,1.0555,1.046,1.0236,1.0059,0.9869,0.9849,0.9822,0.9822,0.9822,0.9822,0.9822,0.9822,0.9768,0.9693,0.9625,0.9435,0.9296,0.9228,0.9042,0.8885,0.8885,0.8885,0.8885,0.8885,0.8885,0.8885,0.8885,0.8885,0.8885,0.8885,0.8885,0.8885,0.8885,0.8885,0.8885,0.8885,0.8885,0.8885,0.8885,0.8784,0.8723,0.8811,0.8818,0.8797,0.8878,0.8885,0.8885,0.8885,0.8885,0.8885,0.8885,0.8885,0.8885,0.8885,0.8885,0.9015,0.6084,0.6204,0.6512,0.6436,0.6463,0.6463,0.6272,0.5931,0.5583,0.5487,0.546,0.5528,0.5718,0.5962,0.0,0.0,0.0,0.0,0.0,0.0,0.0,0.0,0.0,0.0,0.0,0.0,0.0,0.0,0.0,0.0,0.0,0.0,0.0,1.1234,1.1234,1.1287,1.1545,1.1423,1.1355,1.1355,1.1226,1.1151,1.1124,1.1002,1.0867,0.0,0.0,0.0,1.0717,1.0717,1.0717,1.0717,1.0717,1.0717,1.0717,1.0697,1.0588,1.0432,1.027,1.0039,0.9822,0.9822,0.9822,0.9822,0.9822,0.9822,0.9822,0.9822,0.9822,0.9795,0.9673,0.951,0.9347,0.9275,0.9062,0.8885,0.8885,0.8885,0.8885,0.8885,0.8885,0.8885,0.8885,0.8885,0.8885,0.8885,0.8885,0.8885,0.8885,0.8885,0.8885,0.8885,0.8885,0.8885,0.8885,0.8885,0.8885,0.8885,0.8885,0.8885,0.8885,0.8885,0.8885,0.8885,0.8885,0.8885,0.8885,0.8885,0.8885,0.8885,0.8905,0.9049,0.7001,0.6942,0.6709,0.6064,0.6186,0.6409,0.5962,0.582,0.5766,0.5739,0.0,0.0,0.0,0.6566,0.6776,0.0,0.0,0.0,0.0,0.0,0.0,0.0,0.0,0.0,0.0,0.0,0.0,0.0,0.0,0.0,0.0,0.0,0.0,1.1234,1.1234,1.1185,1.1233,1.1212,1.1199,1.1199,1.1241,1.1097,1.0982,1.0894,1.0813,0.0,0.0,1.0717,1.0717,1.0717,1.0717,1.0717,1.0717,1.0717,1.0704,1.0575,1.0432,1.0276,0.9992,0.9863,0.9822,0.9822,0.9822,0.9822,0.9822,0.9822,0.9822,0.9822,0.9822,0.9815,0.9795,0.9585,0.9374,0.9354,0.9137,0.8885,0.8885,0.8885,0.8885,0.8885,0.8885,0.8885,0.8885,0.8885,0.8885,0.8885,0.8885,0.8885,0.8885,0.8885,0.8885,0.8885,0.8885,0.8885,0.8885,0.8885,0.8885,0.8885,0.8885,0.8885,0.8885,0.8885,0.8885,0.8885,0.8885,0.8885,0.8885,0.8885,0.8885,0.8885,0.9062,0.9262,0.7753,0.7472,0.719,0.6836,0.6924,0.7007,0.6715,0.6458,0.6261,0.6179,0.6166,0.0,0.0,0.0,0.0,0.0,0.0,0.0,0.0,0.0,0.0,0.0,0.0,0.0,0.0,0.0,0.0,0.0,0.0,0.0,0.0,0.0,0.0,0.0,1.0921,1.0921,1.0921,1.0921,1.0968,1.105,1.0962,1.0887,1.0759,1.0759,1.0785,1.0717,0.0,1.0717,1.0717,1.0717,1.0717,1.0717,1.0717,1.0717,1.069,1.046,1.0337,1.0236,0.9924,0.9822,0.9822,0.9822,0.9822,0.9822,0.9822,0.9822,0.9822,0.9822,0.9822,0.9822,0.9822,0.9666,0.9503,0.9503,0.9334,0.9157,0.9069,0.9055,0.9028,0.8898,0.8885,0.8885,0.8885,0.8885,0.8885,0.8885,0.8885,0.8885,0.8885,0.8885,0.8885,0.8885,0.8885,0.8885,0.8885,0.8885,0.8885,0.8885,0.8885,0.8885,0.8885,0.8885,0.8885,0.8885,0.8885,0.8885,0.8885,0.8885,0.8981,0.9055,0.918,0.9337,0.8708,0.8123,0.7669,0.7713,0.7573,0.7387,0.7419,0.7054,0.6749,0.6736,0.6777,0.0,0.0,0.0,0.0,0.0,0.0,0.0,0.0,0.0,0.0,0.0,0.0,0.0,0.0,0.0,0.0,0.0,0.0,0.0,0.0,0.0,0.0,0.0,1.0717,1.0717,1.0717,1.0717,1.0778,1.0826,1.0778,1.0717,1.0717,1.0717,1.0717,1.0717,1.0717,1.0717,1.0717,1.0717,1.0717,1.0717,1.0717,1.0717,1.0683,1.0392,1.0283,1.0236,0.9924,0.9822,0.9822,0.9822,0.9822,0.9822,0.9822,0.9822,0.9822,0.9822,0.9822,0.9822,0.9822,0.9713,0.9612,0.9612,0.949,0.9347,0.9289,0.9234,0.918,0.9008,0.8905,0.8885,0.8885,0.8885,0.8885,0.8885,0.8885,0.8885,0.8885,0.8885,0.8885,0.8885,0.8885,0.8885,0.8885,0.8885,0.8885,0.8885,0.8885,0.8885,0.8885,0.8885,0.8885,0.8885,0.8885,0.8885,0.8885,0.8974,0.9049,0.9214,0.9282,0.9388,1.0137,0.9048,0.7837,0.8088,0.7441,0.6871,0.7323,0.7129,0.7027,0.7434,0.7516,0.0,0.0,0.0,0.0,0.0,0.0,0.0,0.0,0.0,0.0,0.0,0.0,0.0,0.0,0.0,0.0,0.0,0.0,0.0,0.0,0.0,0.0,0.0,0.0,1.0717,1.0717,1.0717,1.0724,1.0738,1.0724,1.0717,1.0717,1.0717,1.0717,1.0717,1.0717,1.0717,1.0717,1.0717,1.0717,1.0717,1.0717,1.0717,1.0683,1.0392,1.0283,1.0236,0.9924,0.9822,0.9822,0.9822,0.9822,0.9822,0.9822,0.9822,0.9822,0.9822,0.9822,0.9822,0.9822,0.9713,0.9612,0.9612,0.949,0.9374,0.9367,0.9309,0.9207,0.9193,0.9028,0.8885,0.8885,0.8885,0.8885,0.8885,0.8885,0.8885,0.8885,0.8885,0.8885,0.8885,0.8885,0.8885,0.8885,0.8885,0.8885,0.8885,0.8885,0.8885,0.8885,0.8885,0.8885,0.8885,0.8885,0.8885,0.8885,0.9076,0.92,0.9214,0.9442,0.9591,1.0557,0.9249,0.7861,0.8586,0.7923,0.7238,0.7685,0.7773,0.7862,0.8214,0.8289,0.8289,0.0,0.0,0.0,0.0,0.0,0.0,0.0,0.0,0.0,0.0,0.0,0.0,0.0,0.0,0.0,0.0,0.0,0.0,0.0,0.0,0.0,0.0,0.0,1.0717,1.0717,1.0717,1.0717,1.0717,1.0717,1.0717,1.0717,1.0717,1.0717,1.0717,1.0717,1.0717,1.0717,1.0717,1.0717,1.0717,1.0717,1.0717,1.0697,1.0487,1.0358,1.0249,1.0039,0.9897,0.9822,0.9822,0.9822,0.9822,0.9822,0.9822,0.9822,0.9822,0.9822,0.9822,0.9822,0.9781,0.9741,0.9741,0.9693,0.9632,0.9544,0.9476,0.9408,0.9313,0.9252,0.9184,0.9089,0.9076,0.9042,0.8898,0.8885,0.8885,0.8885,0.8885,0.8885,0.8885,0.8885,0.8885,0.8885,0.8885,0.8885,0.8885,0.8885,0.8885,0.8885,0.8885,0.8885,0.8885,0.8885,0.8885,0.8885,0.9083,0.9262,0.93,0.951,0.9659,1.1034,0.95,0.7868,0.9015,0.8268,0.7455,0.8045,0.8228,0.8391,0.8832,0.8845,0.8798,0.8838,0.0,0.0,0.0,0.0,0.0,0.0,0.0,0.0,0.0,0.0,0.0,0.0,0.0,0.0,0.0,0.0,0.0,0.0,0.0,0.0,0.0,0.0,0.0,1.0717,1.0717,1.0717,1.0717,1.0717,1.0717,1.0717,1.0717,1.0717,1.0717,1.0717,1.0717,1.0717,1.0717,1.0717,1.0717,1.0717,1.0717,1.0704,1.0548,1.0405,1.0256,1.0038,0.9889,0.9822,0.9822,0.9822,0.9822,0.9822,0.9822,0.9822,0.9822,0.9822,0.9822,0.9822,0.9822,0.9822,0.9822,0.9822,0.9795,0.97,0.9639,0.9578,0.9476,0.9415,0.9347,0.9303,0.9241,0.9173,0.9022,0.8967,0.8885,0.8885,0.8885,0.8885,0.8885,0.8885,0.8885,0.8885,0.8885,0.8885,0.8885,0.8885,0.8885,0.8885,0.8885,0.8885,0.8885,0.8885,0.8905,0.9008,0.915,0.9306,0.9456,0.9605,0.9727,1.1644,0.9786,0.794,0.9316,0.8403,0.7341,0.8282,0.8377,0.8538,0.9232,0.915,0.8988,0.9187,0.0,0.0,0.0,0.0,0.0,0.0,0.0,0.0,0.0,0.0,0.0,0.0,0.0,0.0,0.0,0.0,0.0,0.0,0.0,0.0,0.0,0.0,0.0,1.0717,1.0717,1.0717,1.0717,1.0717,1.0717,1.0717,1.0717,1.0717,1.0717,1.0717,1.0717,1.0717,1.0717,1.0717,1.0717,1.0717,1.0717,1.0704,1.0548,1.0405,1.0256,1.0044,0.9889,0.9822,0.9822,0.9822,0.9822,0.9822,0.9822,0.9822,0.9822,0.9822,0.9822,0.9822,0.9822,0.9822,0.9822,0.9822,0.9822,0.9822,0.9707,0.9612,0.9612,0.949,0.9388,0.9381,0.9316,0.9214,0.9207,0.9028,0.8885,0.8885,0.8885,0.8885,0.8885,0.8885,0.8885,0.8885,0.8885,0.8885,0.8885,0.8885,0.8885,0.8885,0.8885,0.8885,0.8885,0.8885,0.9008,0.9207,0.9306,0.9462,0.9612,0.9754,0.9822,1.0336,0.8701,0.7111,0.8346,0.8383,0.8208,0.8689,0.8771,0.892,0.9557,0.9544,0.9422,0.9462,0.0,0.0,0.0,0.0,0.0,0.0,0.0,0.0,0.0,0.0,0.0,0.0,0.0,0.0,0.0,0.0,0.0,0.0,0.0,0.0,0.0,0.0,0.0,1.0717,1.0717,1.0717,1.0717,1.0717,1.0717,1.0717,1.0717,1.0717,1.0717,1.0717,1.0717,1.0717,1.0717,1.0717,1.0717,1.0717,1.0717,1.0717,1.067,1.0493,1.0276,1.0229,1.0039,0.9822,0.9822,0.9822,0.9822,0.9822,0.9822,0.9822,0.9822,0.9822,0.9822,0.9822,0.9822,0.9822,0.9822,0.9822,0.9822,0.9822,0.9788,0.9754,0.9754,0.972,0.9659,0.9557,0.9503,0.9401,0.9241,0.9173,0.9055,0.8898,0.8885,0.8885,0.8885,0.8885,0.8885,0.8885,0.8885,0.8885,0.8885,0.8885,0.8885,0.8885,0.8885,0.8885,0.8885,0.9042,0.9166,0.9207,0.9415,0.9564,0.9612,0.9754,0.9822,1.033,0.9182,0.8005,0.9349,0.9518,0.9345,0.9202,0.0,0.0,0.0,0.9707,0.9612,0.0,0.0,0.0,0.0,0.0,0.0,0.0,0.0,0.0,0.0,0.0,0.0,0.0,0.0,0.0,0.0,0.0,0.0,0.0,0.0,0.0,0.0,0.0,0.0,1.0717,1.0717,1.069,1.0629,1.069,1.069,1.0629,1.069,1.0717,1.0717,1.0656,1.0629,1.0622,1.0568,1.0582,1.0629,1.0629,1.0629,1.0629,1.0629,1.0439,1.0188,1.0188,1.0025,0.9822,0.9822,0.9822,0.9822,0.9822,0.9822,0.9822,0.9822,0.9822,0.9822,0.9822,0.9822,0.9822,0.9822,0.9822,0.9822,0.9822,0.9822,0.9822,0.9822,0.9822,0.9795,0.9707,0.9646,0.9544,0.9361,0.9289,0.9103,0.8898,0.8885,0.8885,0.8885,0.8885,0.8885,0.8885,0.8885,0.8885,0.8885,0.8885,0.896,0.9022,0.8967,0.8885,0.8885,0.9083,0.9241,0.9303,0.949,0.9639,0.9693,0.9781,0.9822,1.1168,1.0674,0.9994,1.1384,1.1125,0.0,0.993,0.9847,0.9822,0.9822,0.0,0.0,0.0,0.0,0.0,0.0,0.0,0.0,0.0,0.0,0.0,0.0,0.0,0.0,0.0,0.0,0.0,0.0,0.0,0.0,0.0,0.0,0.0,0.0,0.0,0.0,1.0677,1.0677,1.0609,0.0,1.0616,1.0609,1.048,1.0643,1.0711,1.069,1.0541,1.0473,1.046,1.0331,1.0358,1.0473,1.0473,1.0473,1.0473,1.0473,1.0297,0.9984,0.9984,0.9889,0.9822,0.9822,0.9822,0.9822,0.9822,0.9822,0.9822,0.9822,0.9822,0.9822,0.9822,0.9822,0.9822,0.9822,0.9822,0.9822,0.9822,0.9822,0.9822,0.9822,0.9822,0.9822,0.9822,0.9713,0.9625,0.9612,0.9347,0.911,0.8994,0.8898,0.8892,0.8898,0.8892,0.8885,0.8885,0.8898,0.8905,0.8905,0.8912,0.9035,0.9228,0.9035,0.8912,0.8925,0.9123,0.9323,0.9401,0.9557,0.9693,0.9822,0.9822,0.9822,1.086,1.0857,0.0,1.0443,1.0034,1.0025,1.1336,1.0695,0.9822,0.9822,0.0,0.0,0.0,0.0,0.0,0.0,0.0,0.0,0.0,0.0,0.0,0.0,0.0,0.0,0.0,0.0,0.0,0.0,0.0,0.0,0.0,0.0,0.0,0.0,0.0,1.0378,1.0378,1.0378,1.0358,0.0,1.0358,1.0358,1.0337,1.0602,1.0656,1.0534,1.0385,1.0324,1.0324,1.029,1.0297,1.0324,1.0324,1.0324,1.0324,1.0324,1.0209,0.9984,0.9984,0.9889,0.9822,0.9822,0.9822,0.9822,0.9822,0.9822,0.9822,0.9822,0.9822,0.9822,0.9822,0.9822,0.9822,0.9822,0.9822,0.9822,0.9822,0.9822,0.9822,0.9822,0.9822,0.9822,0.9822,0.9795,0.9741,0.9625,0.9347,0.9241,0.9273,0.9083,0.8981,0.9096,0.9008,0.8885,0.8885,0.9042,0.9166,0.9166,0.9218,0.93,0.9334,0.9184,0.9164,0.9286,0.9435,0.953,0.9557,0.9707,0.9788,0.9822,0.9822,0.9822,1.0997,0.0,0.0,1.2669,0.0,1.2705,1.3067,1.203,1.0959,0.0,0.0,0.0,0.0,0.0,0.0,0.0,0.0,0.0,0.0,0.0,0.0,0.0,0.0,0.0,0.0,0.0,0.0,0.0,0.0,0.0,0.0,0.0,0.0,0.0,1.0283,1.0283,1.0283,1.0283,1.0243,1.0168,1.0243,1.0283,1.0283,1.0439,1.0466,1.0385,1.0236,1.0168,1.0168,1.0093,1.01,1.0168,1.0168,1.0168,1.0168,1.0168,1.0073,0.9876,0.9876,0.989,0.9822,0.9822,0.9822,0.9822,0.9822,0.9822,0.9822,0.9822,0.9822,0.9822,0.9822,0.9822,0.9822,0.9822,0.9822,0.9822,0.9822,0.9822,0.9822,0.9822,0.9822,0.9822,0.9822,0.9822,0.9774,0.9632,0.9476,0.9374,0.9381,0.9245,0.9178,0.9309,0.9198,0.915,0.915,0.9218,0.9316,0.9316,0.934,0.9415,0.949,0.9415,0.9374,0.9381,0.953,0.9612,0.9612,0.9754,0.9822,0.9822,0.9822,0.9822,1.1194,0.0,1.3957,1.563,1.5664,0.0,1.4662,1.3057,0.0,0.0,0.0,0.0,0.0,0.0,0.0,0.0,0.0,0.0,0.0,0.0,0.0,0.0,0.0,0.0,0.0,0.0,0.0,0.0,0.0,0.0,0.0,0.0,1.0066,1.0195,1.0202,1.0202,1.0202,1.0202,1.0134,0.995,1.0141,1.0202,1.0202,1.0202,1.0215,1.0236,1.0073,0.995,0.9936,0.9876,0.9897,0.995,0.995,0.995,0.995,0.995,0.9869,0.9822,0.9822,0.9822,0.9822,0.9822,0.9822,0.9822,0.9822,0.9822,0.9822,0.9822,0.9822,0.9822,0.9822,0.9822,0.9822,0.9822,0.9822,0.9822,0.9822,0.9822,0.9822,0.9822,0.9822,0.9822,0.9822,0.9822,0.9781,0.9666,0.9625,0.9571,0.9469,0.9415,0.9395,0.9415,0.9395,0.9381,0.9381,0.9408,0.9422,0.9422,0.9442,0.951,0.9639,0.9646,0.9585,0.9462,0.9585,0.9646,0.9646,0.9768,0.9822,0.9822,0.9822,0.9822,1.0974,0.0,1.3637,0.0,1.4614,1.2627,0.0,0.0,0.0,0.0,0.0,0.0,0.0,0.0,0.0,0.0,0.0,0.0,0.0,0.0,0.0,0.0,0.0,0.0,0.0,0.0,0.0,0.0,0.0,0.0,0.0,0.9849,0.9863,0.9883,0.9883,0.9883,0.9883,0.9883,0.9869,0.9849,0.9869,0.9883,0.9883,0.9883,0.9958,1.0011,0.9917,0.9849,0.9849,0.9829,0.9836,0.9849,0.9849,0.9849,0.9849,0.9849,0.9836,0.9822,0.9822,0.9822,0.9822,0.9822,0.9822,0.9822,0.9822,0.9822,0.9822,0.9822,0.9822,0.9822,0.9822,0.9822,0.9822,0.9822,0.9822,0.9822,0.9822,0.9822,0.9822,0.9822,0.9822,0.9822,0.9822,0.9822,0.9815,0.9795,0.9686,0.9646,0.9747,0.9537,0.9435,0.9564,0.9462,0.9381,0.9381,0.9503,0.9578,0.9578,0.9693,0.9774,0.9788,0.9795,0.9781,0.9761,0.9781,0.9795,0.9795,0.9815,0.9822,0.9822,0.9822,0.9822,1.2037,1.3229,1.4587,0.0,1.609,1.505,1.5806,0.0,0.0,0.0,0.0,0.0,0.0,0.0,0.0,0.0,0.0,0.0,0.0,0.0,0.0,0.0,0.0,0.0,0.0,0.0,0.0,0.0,0.0,0.0,0.9822,0.9822,0.9822,0.9822,0.9822,0.9822,0.9822,0.9822,0.9822,0.9822,0.9822,0.9822,0.9822,0.9822,0.9856,0.9856,0.9849,0.9822,0.9822,0.9822,0.9822,0.9822,0.9822,0.9822,0.9822,0.9822,0.9822,0.9822,0.9822,0.9822,0.9822,0.9822,0.9822,0.9822,0.9822,0.9822,0.9822,0.9822,0.9822,0.9822,0.9822,0.9822,0.9822,0.9822,0.9822,0.9822,0.9822,0.9822,0.9822,0.9822,0.9822,0.9822,0.9822,0.9822,0.9822,0.9822,0.9768,0.9747,0.9815,0.9707,0.9652,0.972,0.9666,0.9625,0.9625,0.9686,0.9727,0.9727,0.9788,0.9822,0.9822,0.9822,0.9822,0.9822,0.9822,0.9822,0.9822,0.9822,0.9822,0.9822,0.9822,0.9822,1.2388,1.3614,1.4606,1.6241,1.6608,1.6458,0.0,0.0,0.0,0.0,0.0,0.0,0.0,0.0,0.0,0.0,0.0,0.0,0.0,0.0,0.0,0.0,0.0,0.0,0.0,0.0,0.0,0.0,0.0,0.0,0.9822,0.9822,0.9822,0.9822,0.9822,0.9822,0.9822,0.9822,0.9822,0.9822,0.9822,0.9822,0.9822,0.9822,0.9822,0.9822,0.9822,0.9822,0.9822,0.9822,0.9822,0.9822,0.9822,0.9822,0.9822,0.9822,0.9822,0.9822,0.9822,0.9822,0.9822,0.9822,0.9822,0.9822,0.9822,0.9822,0.9822,0.9822,0.9822,0.9822,0.9822,0.9822,0.9822,0.9822,0.9822,0.9822,0.9822,0.9822,0.9822,0.9822,0.9822,0.9822,0.9822,0.9822,0.9822,0.9822,0.9822,0.9822,0.9822,0.9822,0.9822,0.9822,0.9822,0.9822,0.9822,0.9822,0.9822,0.9822,0.9822,0.9822,0.9822,0.9822,0.9822,0.9822,0.9822,0.9822,0.9822,0.9822,0.9822,0.9822,0.9822,0.9822,1.1016,1.1784,1.2556,1.4606,1.4506,0.0,0.0,0.0,0.0,0.0,0.0,0.0,0.0,0.0,0.0,0.0,0.0,0.0,0.0,0.0,0.0,0.0,0.0,0.0,0.0,0.0,0.0,0.0,0.0,0.0,0.9822,0.9822,0.9822,0.9822,0.9822,0.9822,0.9822,0.9822,0.9822,0.9822,0.9822,0.9822,0.9822,0.9822,0.9822,0.9822,0.9822,0.9822,0.9822,0.9822,0.9822,0.9822,0.9822,0.9822,0.9822,0.9822,0.9822,0.9822,0.9822,0.9822,0.9822,0.9822,0.9822,0.9822,0.9822,0.9822,0.9822,0.9822,0.9822,0.9822,0.9822,0.9822,0.9822,0.9822,0.9822,0.9822,0.9822,0.9822,0.9822,0.9822,0.9822,0.9822,0.9822,0.9822,0.9822,0.9822,0.9822,0.9822,0.9822,0.9822,0.9822,0.9822,0.9822,0.9822,0.9822,0.9822,0.9822,0.9822,0.9822,0.9822,0.9822,0.9822,0.9822,0.9822,0.9822,0.9822,0.9822,0.9822,0.9822,0.9822,0.9822,0.9822,1.0541,1.139,0.0,1.3734,1.4343,0.0,0.0,0.0,0.0,0.0,0.0,0.0,0.0,0.0,0.0,0.0,0.0,0.0,0.0,0.0,0.0,0.0,0.0,0.0,0.0,0.0,0.0,0.0,0.0,0.0,0.968,0.9686,0.9727,0.9815,0.9822,0.9822,0.9822,0.9822,0.9822,0.9822,0.9822,0.9822,0.9822,0.9822,0.9822,0.9822,0.9822,0.9822,0.9822,0.9822,0.9822,0.9822,0.9822,0.9822,0.9822,0.9822,0.9822,0.9822,0.9822,0.9822,0.9822,0.9822,0.9822,0.9822,0.9822,0.9822,0.9822,0.9822,0.9822,0.9822,0.9822,0.9822,0.9822,0.9822,0.9822,0.9822,0.9822,0.9822,0.9822,0.9822,0.9822,0.9822,0.9822,0.9822,0.9822,0.9822,0.9822,0.9822,0.9822,0.9822,0.9822,0.9822,0.9822,0.9822,0.9822,0.9822,0.9822,0.9822,0.9822,0.9822,0.9822,0.9822,0.9822,0.9822,0.9822,0.9822,0.9822,0.9822,0.9822,0.9822,0.9822,0.9822,0.9953,1.0688,0.0,0.0,0.0,0.0,0.0,0.0,0.0,0.0,0.0,0.0,0.0,0.0,0.0,0.0,0.0,0.0,0.0,0.0,0.0,0.0,0.0,0.0,0.0,0.0,0.0,0.0,0.0,0.0,0.953,0.953,0.9598,0.9747,0.9795,0.9822,0.9822,0.9822,0.9822,0.9822,0.9822,0.9822,0.9822,0.9822,0.9822,0.9822,0.9822,0.9822,0.9822,0.9822,0.9822,0.9822,0.9822,0.9822,0.9822,0.9822,0.9822,0.9822,0.9822,0.9822,0.9822,0.9822,0.9822,0.9822,0.9822,0.9822,0.9822,0.9822,0.9856,0.9835,0.9835,0.9937,0.9978,0.9978,0.9978,0.9978,0.9978,0.9897,0.9822,0.9822,0.9822,0.9822,0.9822,0.9822,0.9822,0.9822,0.9822,0.9822,0.9822,0.9822,0.9822,0.9822,0.9822,0.9822,0.9822,0.9822,0.9822,0.9822,0.9822,0.9822,0.9822,0.9822,0.9822,0.9822,0.9822,0.9822,0.9822,0.9822,0.9822,0.9822,0.9822,0.9822,0.0,0.0,0.0,0.0,0.0,0.0,0.0,0.0,0.0,0.0,0.0,0.0,0.0,0.0,0.0,0.0,0.0,0.0,0.0,0.0,0.0,0.0,0.0,0.0,0.0,0.0,0.0,0.0,0.0,1.0962,0.9548,0.9439,0.9449,0.9605,0.9741,0.9815,0.9822,0.9822,0.9822,0.9822,0.9822,0.9822,0.9822,0.9822,0.9822,0.9822,0.9822,0.9822,0.9822,0.9822,0.9822,0.9822,0.9822,0.9822,0.9822,0.9822,0.9822,0.9822,0.9822,0.9822,0.9822,0.9822,0.9822,0.9822,0.9822,0.9822,0.9829,0.9829,0.9876,0.9997,0.9997,1.0168,1.0283,1.0283,1.0283,1.0283,1.0283,1.0046,0.9836,0.9836,0.9836,0.9836,0.9836,0.9836,0.9836,0.9836,0.9829,0.9829,0.9829,0.9822,0.9822,0.9822,0.9822,0.9822,0.9822,0.9822,0.9822,0.9822,0.9822,0.9822,0.9822,0.9822,0.9822,0.9822,0.9822,0.9822,0.9822,0.9822,0.9822,0.9822,0.9822,0.9822,0.9217,0.0,0.0,0.0,0.0,0.0,0.0,0.0,0.0,0.0,0.0,0.0,0.0,0.0,0.0,0.0,0.0,0.0,0.0,0.0,0.0,0.0,0.0,0.0,0.0,0.0,0.0,0.0,1.2788,1.2192,1.0827,0.9889,0.9449,0.9605,0.9646,0.972,0.9822,0.9822,0.9822,0.9822,0.9822,0.9822,0.9822,0.9822,0.9822,0.9822,0.9822,0.9822,0.9822,0.9822,0.9822,0.9822,0.9822,0.9822,0.9822,0.9822,0.9822,0.9822,0.9822,0.9822,0.9822,0.9822,0.9822,0.9822,0.9822,0.9897,0.9923,0.9923,1.01,1.0215,1.0215,1.0249,1.0283,1.0283,1.0283,1.0283,1.0283,1.0215,1.0154,1.0154,1.0154,1.0154,1.0154,1.0154,1.0154,1.0154,1.0059,0.9923,0.9923,0.989,0.9822,0.9822,0.9822,0.9822,0.9822,0.9822,0.9822,0.9822,0.9822,0.9822,0.9822,0.9822,0.9822,0.9822,0.9822,0.9822,0.9822,0.9822,0.9822,0.9822,0.9822,0.9822,0.967,1.0003,1.0541,0.0,0.0,0.0,0.0,0.0,0.0,0.0,0.0,0.0,0.0,0.0,0.0,0.0,0.0,0.0,0.0,0.0,0.0,0.0,0.0,0.0,0.0,0.0,0.0,0.0,1.418,1.3315,1.1309,1.1166,1.0578,0.9473,1.0126,1.0235,0.9734,0.9788,0.9822,0.9822,0.9822,0.9822,0.9822,0.9822,0.9822,0.9822,0.9822,0.9822,0.9822,0.9822,0.9822,0.9822,0.9822,0.9822,0.9822,0.9822,0.9822,0.9822,0.9822,0.9822,0.9822,0.9822,0.9822,0.9822,0.9822,0.9869,0.9984,0.9984,1.0202,1.0385,1.0446,1.0466,1.0466,1.0466,1.0466,1.0466,1.0466,1.0466,1.0426,1.0304,1.0283,1.0283,1.0283,1.0283,1.0283,1.0283,1.0202,1.0148,1.0148,1.0012,0.9856,0.9856,0.9863,0.9822,0.9822,0.9822,0.9822,0.9822,0.9822,0.9822,0.9822,0.9822,0.9822,0.9822,0.9822,0.9822,0.9822,0.9822,0.9822,0.9822,0.9822,0.9822,1.0528,1.0688,1.1196,1.1698,0.0,0.0,1.3093,1.2879,0.0,0.0,0.0,0.0,0.0,0.0,0.0,0.0,0.0,0.0,0.0,0.0,0.0,0.0,0.0,0.0,0.0,0.0,1.7041,1.5743,1.5464,1.4288,1.1701,1.2633,1.208,0.949,1.0809,1.093,0.9612,0.9747,0.9822,0.9822,0.9822,0.9822,0.9822,0.9822,0.9822,0.9822,0.9822,0.9822,0.9822,0.9822,0.9822,0.9822,0.9822,0.9822,0.9822,0.9822,0.9822,0.9822,0.9822,0.9822,0.9822,0.9822,0.9822,0.9822,0.9822,0.9876,1.0017,1.0051,1.0317,1.0548,1.0683,1.0717,1.0717,1.0717,1.0717,1.0717,1.0717,1.0717,1.0643,1.0378,1.0331,1.0331,1.0331,1.0331,1.0331,1.0331,1.0317,1.0304,1.0304,1.0168,1.0011,1.0011,0.9937,0.9842,0.9842,0.9829,0.9822,0.9822,0.9822,0.9822,0.9822,0.9822,0.9822,0.9822,0.9822,0.9822,0.9822,0.9822,0.9822,0.9822,0.9822,0.9822,1.1637,1.1645,1.1645,1.1283,0.0,0.0,0.0,1.1089,0.0,0.0,0.0,0.0,0.0,0.0,0.0,0.0,0.0,0.0,0.0,0.0,0.0,0.0,0.0,0.0,0.0,0.0,1.7477,1.7199,1.6062,1.5144,1.4609,1.2654,1.1338,1.0923,1.0241,0.9776,0.9605,0.9747,0.9822,0.9822,0.9822,0.9822,0.9822,0.9822,0.9822,0.9822,0.9822,0.9822,0.9822,0.9822,0.9822,0.9822,0.9822,0.9822,0.9822,0.9822,0.9822,0.9822,0.9822,0.9822,0.9822,0.9822,0.9822,0.9822,0.9822,1.0012,1.0283,1.0521,1.0629,1.0683,1.0711,1.0717,1.0717,1.0717,1.0717,1.0717,1.0717,1.0717,1.0704,1.0643,1.0636,1.0636,1.0636,1.0636,1.0636,1.0636,1.0527,1.0453,1.0453,1.0324,1.0236,1.0236,1.01,0.9943,0.9943,0.989,0.9822,0.9822,0.9822,0.9822,0.9822,0.9822,0.9822,0.9822,0.9822,0.9822,0.9822,0.9822,0.9822,0.9822,0.9822,0.9822,1.2543,1.2462,1.2465,1.2171,0.0,0.0,0.0,0.0,0.0,0.0,0.0,0.0,0.0,0.0,0.0,0.0,0.0,0.0,0.0,0.0,0.0,0.0,0.0,0.0,0.0,0.0,1.7474,1.7569,1.6935,1.5849,1.4449,1.4341,1.3044,1.0191,1.1062,1.0902,0.9496,0.9713,0.9822,0.9822,0.9822,0.9822,0.9822,0.9822,0.9822,0.9822,0.9822,0.9822,0.9822,0.9822,0.9822,0.9822,0.9822,0.9822,0.9822,0.9822,0.9822,0.9822,0.9822,0.9822,0.9822,0.9822,0.9822,0.9836,0.9849,1.0148,1.0432,1.0656,1.0717,1.0717,1.0717,1.0717,1.0717,1.0717,1.0717,1.0717,1.0717,1.0717,1.0717,1.0717,1.0717,1.0717,1.0717,1.0717,1.0717,1.0717,1.0656,1.0609,1.0609,1.048,1.0385,1.0385,1.0181,0.9984,0.9984,0.9849,0.9822,0.9822,0.9822,0.9822,0.9822,0.9822,0.9822,0.9822,0.9822,0.9822,0.9822,0.9822,0.9822,0.9822,0.9822,0.9822,0.0,0.0,0.0,0.0,0.0,1.2064,0.0,0.0,0.0,1.2492,0.0,0.0,0.0,0.0,0.0,0.0,0.0,0.0,0.0,0.0,0.0,0.0,0.0,0.0,0.0,0.0,1.7032,1.7382,1.7315,1.63,1.4158,1.6037,1.4877,0.9919,1.2019,1.2051,0.9439,0.9673,0.9822,0.9822,0.9822,0.9822,0.9822,0.9822,0.9822,0.9822,0.9822,0.9822,0.9822,0.9822,0.9822,0.9822,0.9822,0.9822,0.9822,0.9822,0.9822,0.9822,0.9822,0.9822,0.9822,0.9822,0.9842,0.9897,1.0017,1.0304,1.0521,1.0677,1.0717,1.0717,1.0717,1.0717,1.0717,1.0717,1.0717,1.0717,1.0717,1.0717,1.0717,1.0717,1.0717,1.0717,1.0717,1.0717,1.0717,1.0717,1.0717,1.0717,1.0717,1.0616,1.0534,1.0534,1.0297,1.0071,1.0071,0.9998,0.991,0.991,0.991,0.991,0.991,0.991,0.9897,0.9863,0.9863,0.9849,0.9822,0.9822,0.9822,0.9822,0.9822,0.9822,0.0,0.0,0.0,0.0,1.3494,0.0,0.0,0.0,1.1631,1.1015,0.0,0.0,0.0,0.0,0.0,0.0,0.0,0.0,0.0,0.0,0.0,0.0,0.0,0.0,0.0,0.0,0.0,1.674,1.6326,1.6219,1.6729,1.6045,1.477,1.2832,1.2131,1.097,0.9439,0.9673,0.9822,0.9822,0.9822,0.9822,0.9822,0.9822,0.9822,0.9822,0.9822,0.9822,0.9822,0.9822,0.9822,0.9822,0.9822,0.9822,0.9822,0.9822,0.9822,0.9822,0.9822,0.9822,0.9822,0.9822,0.9849,1.0011,1.0358,1.0466,1.0521,1.0677,1.0717,1.0717,1.0717,1.0717,1.0717,1.0717,1.0717,1.0717,1.0717,1.0717,1.0717,1.0717,1.0717,1.0717,1.0717,1.0717,1.0717,1.0717,1.0717,1.0717,1.0717,1.0704,1.0697,1.0697,1.0541,1.0439,1.0439,1.031,1.0229,1.0229,1.0229,1.0229,1.0229,1.0229,1.0161,0.9963,0.9963,0.9896,0.9822,0.9822,0.9822,0.9822,0.9822,0.9822,0.0,0.0,0.0,0.0,0.0,0.0,1.153,0.0,1.139,0.0,0.0,0.0,0.0,0.0,0.0,0.0,0.0,0.0,0.0,0.0,0.0,0.0,0.0,0.0,0.0,0.0,0.0,0.0,0.0,1.5569,1.5656,1.6161,1.5112,1.2127,1.3291,1.2899,1.0813,1.1804,1.198,1.1201,1.1201,1.1201,1.1201,1.1201,1.1201,1.1201,1.1201,1.0657,0.9822,0.9822,0.9822,0.9822,0.9822,0.9822,0.9822,0.9822,0.9876,0.9889,0.9889,1.0012,1.0086,1.0086,1.0188,1.0331,1.0453,1.0555,1.0636,1.0704,1.0717,1.0717,1.0717,1.0717,1.0717,1.0717,1.0717,1.0717,1.0717,1.0717,1.0717,1.0717,1.0717,1.0717,1.0717,1.0717,1.0717,1.0717,1.0717,1.0717,1.0717,1.0717,1.0717,1.0717,1.0582,1.0493,1.0493,1.0365,1.0283,1.0283,1.0283,1.0283,1.0283,1.0283,1.0249,1.0181,1.0181,1.0107,0.9889,0.9889,0.9849,0.9822,0.9822,0.9822,1.5531,0.0,0.0,0.0,0.0,0.0,0.0,0.0,0.0,0.0,0.0,0.0,0.0,0.0,0.0,0.0,0.0,0.0,0.0,0.0,0.0,0.0,0.0,0.0,0.0,0.0,0.0,0.0,0.0,0.0,1.4996,1.6291,1.5603,1.2389,1.4527,1.46,1.2404,1.3567,1.3722,1.2868,1.2868,1.2868,1.2868,1.2868,1.2868,1.2868,1.2868,1.1916,1.0482,1.0482,1.0179,0.9822,0.9822,0.9822,0.9829,0.9869,0.9889,0.999,1.0038,1.0188,1.029,1.0324,1.0405,1.05,1.0541,1.0629,1.0717,1.0717,1.0717,1.0717,1.0717,1.0717,1.0717,1.0717,1.0717,1.0717,1.0717,1.0717,1.0717,1.0717,1.0717,1.0717,1.0717,1.0717,1.0717,1.0717,1.0717,1.0717,1.0717,1.0717,1.0717,1.0717,1.0622,1.0555,1.0555,1.046,1.0399,1.0399,1.0399,1.0399,1.0399,1.0399,1.0378,1.0337,1.0337,1.0263,1.0051,1.0051,1.0053,0.9944,0.9863,0.9822,0.0,0.0,0.0,1.3814,0.0,0.0,0.0,0.0,1.2265,0.0,0.0,0.0,0.0,0.0,1.2449,1.157,0.0,0.0,0.0,0.0,0.0,0.0,0.0,0.0,0.0,0.0,0.0,0.0,0.0,0.0,1.6131,1.6567,1.6253,1.5293,1.5573,1.5099,1.3818,1.4086,1.4308,1.454,1.454,1.454,1.454,1.454,1.454,1.454,1.454,1.3586,1.2097,1.2097,1.1201,0.9822,0.9822,0.9822,0.9836,0.9923,0.9984,1.0011,1.0222,1.0276,1.0304,1.0439,1.0487,1.0521,1.067,1.0717,1.0717,1.0717,1.0717,1.0717,1.0717,1.0717,1.0717,1.0717,1.0717,1.0717,1.0717,1.0717,1.0717,1.0717,1.0717,1.0717,1.0717,1.0717,1.0717,1.0717,1.0717,1.0717,1.0717,1.0717,1.0717,1.0717,1.0717,1.0711,1.0711,1.0711,1.0704,1.0704,1.0704,1.0704,1.0704,1.0704,1.0636,1.0487,1.0487,1.0412,1.0276,1.0276,1.027,1.0256,0.9958,0.9822,0.0,0.0,1.7063,1.515,0.0,0.0,0.0,0.0,0.0,0.0,0.0,0.0,0.0,0.0,1.2623,1.2091,1.1757,0.0,0.0,0.0,0.0,0.0,0.0,0.0,0.0,0.0,0.0,0.0,0.0,0.0,0.0,1.6433,1.6215,1.5153,1.634,1.6471,1.5502,1.6517,1.6779,1.6197,1.6197,1.6197,1.6197,1.6197,1.6197,1.6197,1.6197,1.5311,1.3765,1.3765,1.2808,1.1374,1.1374,1.0784,0.9916,0.997,1.0051,1.0236,1.0487,1.0568,1.0582,1.0629,1.0643,1.0656,1.0704,1.0717,1.0717,1.0717,1.0717,1.0717,1.0717,1.0717,1.0717,1.0717,1.0717,1.0717,1.0717,1.0717,1.0717,1.0717,1.0717,1.0717,1.0717,1.0717,1.0717,1.0717,1.0717,1.0717,1.0717,1.0717,1.0717,1.0717,1.0717,1.0717,1.0717,1.0717,1.0717,1.0717,1.0717,1.0717,1.0717,1.0717,1.0697,1.0643,1.0643,1.0568,1.0419,1.0419,1.0371,1.0276,1.0175,1.0073,1.7502,1.7756,0.0,1.6099,1.5484,0.0,1.3293,0.0,0.0,0.0,0.0,0.0,0.0,0.0,1.2973,1.2679,1.2037,1.1209,0.0,0.0,0.0,0.0,0.0,0.0,0.0,0.0,1.2395,1.3293,0.0,0.0,0.0,0.0,1.6221,1.5813,1.6951,1.7421,1.7092,1.8033,1.8264,1.7864,1.7864,1.7864,1.7864,1.7864,1.7864,1.7864,1.7864,1.6915,1.5429,1.5429,1.4183,1.2217,1.2224,1.1356,0.9997,1.0051,1.0263,1.0466,1.0656,1.0717,1.0717,1.0717,1.0717,1.0717,1.0717,1.0717,1.0717,1.0717,1.0717,1.0717,1.0717,1.0717,1.0717,1.0717,1.0717,1.0717,1.0717,1.0717,1.0717,1.0717,1.0717,1.0717,1.0717,1.0717,1.0717,1.0717,1.0717,1.0717,1.0717,1.0717,1.0717,1.0717,1.0717,1.0717,1.0717,1.0717,1.0717,1.0717,1.0717,1.0717,1.0717,1.0717,1.0717,1.0717,1.0717,1.067,1.0575,1.0575,1.0527,1.0439,1.0439,1.0351]}]]